<?xml version='1.0' encoding='UTF-8'?><gpx version="1.1" creator="JPX - https://github.com/jenetics/jpx" xmlns="http://www.topografix.com/GPX/1/1"><trk><trkseg><trkpt lat="43.6273801" lon="11.5162904"><ele>147.0</ele><time>2026-04-17T16:11:38.141Z</time></trkpt><trkpt lat="43.6273766" lon="11.5163779"><ele>147.0</ele><time>2026-04-17T16:11:47.074Z</time></trkpt><trkpt lat="43.6273972" lon="11.5164653"><ele>147.0</ele><time>2026-04-17T16:11:56.343Z</time></trkpt><trkpt lat="43.6274124" lon="11.5165559"><ele>147.0</ele><time>2026-04-17T16:12:44.349Z</time></trkpt><trkpt lat="43.6273492" lon="11.5166056"><ele>147.0</ele><time>2026-04-17T16:12:51.232Z</time></trkpt><trkpt lat="43.6272789" lon="11.5166511"><ele>147.0</ele><time>2026-04-17T16:12:53.31Z</time></trkpt><trkpt lat="43.6272324" lon="11.5167194"><ele>147.0</ele><time>2026-04-17T16:12:55.28Z</time></trkpt><trkpt lat="43.6271248" lon="11.5168478"><ele>147.0</ele><time>2026-04-17T16:12:57.248Z</time></trkpt><trkpt lat="43.6270994" lon="11.5169595"><ele>147.0</ele><time>2026-04-17T16:12:59.333Z</time></trkpt><trkpt lat="43.6271515" lon="11.5170253"><ele>147.0</ele><time>2026-04-17T16:13:05.347Z</time></trkpt><trkpt lat="43.6271931" lon="11.5170928"><ele>147.0</ele><time>2026-04-17T16:13:08.248Z</time></trkpt><trkpt lat="43.6272447" lon="11.517143"><ele>147.0</ele><time>2026-04-17T16:13:10.333Z</time></trkpt><trkpt lat="43.6274583" lon="11.51733"><ele>147.5</ele><time>2026-04-17T16:13:13.23Z</time></trkpt><trkpt lat="43.6275417" lon="11.517345"><ele>148.0</ele><time>2026-04-17T16:13:15.232Z</time></trkpt><trkpt lat="43.6276133" lon="11.5173567"><ele>148.5</ele><time>2026-04-17T16:13:17.23Z</time></trkpt><trkpt lat="43.6276917" lon="11.5173967"><ele>149.0</ele><time>2026-04-17T16:13:20.231Z</time></trkpt><trkpt lat="43.6277617" lon="11.5174133"><ele>149.5</ele><time>2026-04-17T16:13:24.23Z</time></trkpt><trkpt lat="43.627835" lon="11.51738"><ele>150.0</ele><time>2026-04-17T16:13:27.231Z</time></trkpt><trkpt lat="43.627875" lon="11.51728"><ele>150.66666666666666</ele><time>2026-04-17T16:13:29.234Z</time></trkpt><trkpt lat="43.6278817" lon="11.5171233"><ele>151.33333333333334</ele><time>2026-04-17T16:13:31.231Z</time></trkpt><trkpt lat="43.6278833" lon="11.517035"><ele>152.0</ele><time>2026-04-17T16:13:32.232Z</time></trkpt><trkpt lat="43.6278833" lon="11.5169333"><ele>152.66666666666669</ele><time>2026-04-17T16:13:33.232Z</time></trkpt><trkpt lat="43.6278817" lon="11.5168267"><ele>153.33333333333334</ele><time>2026-04-17T16:13:34.232Z</time></trkpt><trkpt lat="43.6278817" lon="11.5167133"><ele>154.0</ele><time>2026-04-17T16:13:35.231Z</time></trkpt><trkpt lat="43.6278783" lon="11.5165967"><ele>154.0</ele><time>2026-04-17T16:13:36.23Z</time></trkpt><trkpt lat="43.6278767" lon="11.5164783"><ele>154.0</ele><time>2026-04-17T16:13:37.233Z</time></trkpt><trkpt lat="43.6278717" lon="11.516355"><ele>154.0</ele><time>2026-04-17T16:13:38.234Z</time></trkpt><trkpt lat="43.62787" lon="11.5162317"><ele>154.0</ele><time>2026-04-17T16:13:39.232Z</time></trkpt><trkpt lat="43.6278683" lon="11.51611"><ele>154.0</ele><time>2026-04-17T16:13:40.231Z</time></trkpt><trkpt lat="43.627865" lon="11.51599"><ele>154.0</ele><time>2026-04-17T16:13:41.23Z</time></trkpt><trkpt lat="43.62786" lon="11.5158683"><ele>154.0</ele><time>2026-04-17T16:13:42.23Z</time></trkpt><trkpt lat="43.6278567" lon="11.515745"><ele>154.0</ele><time>2026-04-17T16:13:43.23Z</time></trkpt><trkpt lat="43.6278517" lon="11.5156267"><ele>154.0</ele><time>2026-04-17T16:13:44.229Z</time></trkpt><trkpt lat="43.6278467" lon="11.5155083"><ele>154.0</ele><time>2026-04-17T16:13:45.231Z</time></trkpt><trkpt lat="43.6278417" lon="11.5153883"><ele>154.0</ele><time>2026-04-17T16:13:46.23Z</time></trkpt><trkpt lat="43.627835" lon="11.5152667"><ele>154.0</ele><time>2026-04-17T16:13:47.232Z</time></trkpt><trkpt lat="43.6278283" lon="11.515145"><ele>154.0</ele><time>2026-04-17T16:13:48.23Z</time></trkpt><trkpt lat="43.627825" lon="11.5150217"><ele>154.0</ele><time>2026-04-17T16:13:49.231Z</time></trkpt><trkpt lat="43.6278167" lon="11.51491"><ele>154.0</ele><time>2026-04-17T16:13:50.232Z</time></trkpt><trkpt lat="43.6278117" lon="11.5147967"><ele>154.0</ele><time>2026-04-17T16:13:51.231Z</time></trkpt><trkpt lat="43.6278033" lon="11.5146767"><ele>154.0</ele><time>2026-04-17T16:13:52.231Z</time></trkpt><trkpt lat="43.627795" lon="11.5145617"><ele>154.0</ele><time>2026-04-17T16:13:53.232Z</time></trkpt><trkpt lat="43.6277867" lon="11.5144433"><ele>152.5</ele><time>2026-04-17T16:13:54.232Z</time></trkpt><trkpt lat="43.62778" lon="11.514315"><ele>151.0</ele><time>2026-04-17T16:13:55.232Z</time></trkpt><trkpt lat="43.6277717" lon="11.5141917"><ele>149.5</ele><time>2026-04-17T16:13:56.231Z</time></trkpt><trkpt lat="43.6277567" lon="11.5140683"><ele>148.0</ele><time>2026-04-17T16:13:57.23Z</time></trkpt><trkpt lat="43.6277383" lon="11.51395"><ele>146.5</ele><time>2026-04-17T16:13:58.23Z</time></trkpt><trkpt lat="43.6277267" lon="11.51383"><ele>145.0</ele><time>2026-04-17T16:13:59.23Z</time></trkpt><trkpt lat="43.6277183" lon="11.5137117"><ele>144.57142857142858</ele><time>2026-04-17T16:14:00.231Z</time></trkpt><trkpt lat="43.6277183" lon="11.5136017"><ele>144.14285714285717</ele><time>2026-04-17T16:14:01.232Z</time></trkpt><trkpt lat="43.627725" lon="11.5135033"><ele>143.71428571428572</ele><time>2026-04-17T16:14:02.233Z</time></trkpt><trkpt lat="43.6277333" lon="11.5134133"><ele>143.28571428571428</ele><time>2026-04-17T16:14:03.229Z</time></trkpt><trkpt lat="43.627725" lon="11.5133167"><ele>142.85714285714283</ele><time>2026-04-17T16:14:04.23Z</time></trkpt><trkpt lat="43.6276883" lon="11.5132317"><ele>142.42857142857142</ele><time>2026-04-17T16:14:05.231Z</time></trkpt><trkpt lat="43.62763" lon="11.5131667"><ele>142.0</ele><time>2026-04-17T16:14:06.231Z</time></trkpt><trkpt lat="43.62756" lon="11.5131217"><ele>142.0</ele><time>2026-04-17T16:14:07.23Z</time></trkpt><trkpt lat="43.627485" lon="11.5130883"><ele>142.0</ele><time>2026-04-17T16:14:08.231Z</time></trkpt><trkpt lat="43.6274067" lon="11.5130617"><ele>142.0</ele><time>2026-04-17T16:14:09.23Z</time></trkpt><trkpt lat="43.6273267" lon="11.513035"><ele>142.0</ele><time>2026-04-17T16:14:10.23Z</time></trkpt><trkpt lat="43.6272433" lon="11.5130117"><ele>142.0</ele><time>2026-04-17T16:14:11.231Z</time></trkpt><trkpt lat="43.627165" lon="11.5129833"><ele>142.0</ele><time>2026-04-17T16:14:12.231Z</time></trkpt><trkpt lat="43.6270867" lon="11.5129533"><ele>142.0</ele><time>2026-04-17T16:14:13.23Z</time></trkpt><trkpt lat="43.627005" lon="11.5129183"><ele>142.0</ele><time>2026-04-17T16:14:14.23Z</time></trkpt><trkpt lat="43.626925" lon="11.512875"><ele>142.0</ele><time>2026-04-17T16:14:15.23Z</time></trkpt><trkpt lat="43.6268467" lon="11.5128267"><ele>142.0</ele><time>2026-04-17T16:14:16.232Z</time></trkpt><trkpt lat="43.626775" lon="11.5127717"><ele>142.0</ele><time>2026-04-17T16:14:17.232Z</time></trkpt><trkpt lat="43.6267083" lon="11.512715"><ele>142.0</ele><time>2026-04-17T16:14:18.231Z</time></trkpt><trkpt lat="43.6266367" lon="11.5126617"><ele>141.83333333333334</ele><time>2026-04-17T16:14:19.23Z</time></trkpt><trkpt lat="43.6265633" lon="11.5126167"><ele>141.66666666666669</ele><time>2026-04-17T16:14:20.231Z</time></trkpt><trkpt lat="43.6264883" lon="11.51258"><ele>141.5</ele><time>2026-04-17T16:14:21.23Z</time></trkpt><trkpt lat="43.6264067" lon="11.5125483"><ele>141.33333333333334</ele><time>2026-04-17T16:14:22.231Z</time></trkpt><trkpt lat="43.626325" lon="11.5125117"><ele>141.16666666666666</ele><time>2026-04-17T16:14:23.23Z</time></trkpt><trkpt lat="43.62624" lon="11.512475"><ele>141.0</ele><time>2026-04-17T16:14:24.232Z</time></trkpt><trkpt lat="43.6261583" lon="11.5124383"><ele>140.83333333333334</ele><time>2026-04-17T16:14:25.231Z</time></trkpt><trkpt lat="43.6260783" lon="11.512405"><ele>140.66666666666666</ele><time>2026-04-17T16:14:26.23Z</time></trkpt><trkpt lat="43.6259967" lon="11.5123717"><ele>140.5</ele><time>2026-04-17T16:14:27.23Z</time></trkpt><trkpt lat="43.625915" lon="11.5123367"><ele>140.33333333333331</ele><time>2026-04-17T16:14:28.229Z</time></trkpt><trkpt lat="43.62584" lon="11.5123033"><ele>140.16666666666666</ele><time>2026-04-17T16:14:29.23Z</time></trkpt><trkpt lat="43.6257633" lon="11.5122633"><ele>140.0</ele><time>2026-04-17T16:14:30.232Z</time></trkpt><trkpt lat="43.62569" lon="11.5122133"><ele>140.0</ele><time>2026-04-17T16:14:31.23Z</time></trkpt><trkpt lat="43.6256167" lon="11.51216"><ele>140.0</ele><time>2026-04-17T16:14:32.23Z</time></trkpt><trkpt lat="43.6255417" lon="11.5121083"><ele>140.0</ele><time>2026-04-17T16:14:33.232Z</time></trkpt><trkpt lat="43.6254683" lon="11.5120417"><ele>140.0</ele><time>2026-04-17T16:14:34.23Z</time></trkpt><trkpt lat="43.6254017" lon="11.5119667"><ele>140.0</ele><time>2026-04-17T16:14:35.232Z</time></trkpt><trkpt lat="43.6253317" lon="11.5118917"><ele>140.0</ele><time>2026-04-17T16:14:36.23Z</time></trkpt><trkpt lat="43.6252683" lon="11.51182"><ele>139.66666666666666</ele><time>2026-04-17T16:14:37.23Z</time></trkpt><trkpt lat="43.6252033" lon="11.51175"><ele>139.33333333333331</ele><time>2026-04-17T16:14:38.23Z</time></trkpt><trkpt lat="43.6251367" lon="11.5116817"><ele>139.0</ele><time>2026-04-17T16:14:39.23Z</time></trkpt><trkpt lat="43.6250717" lon="11.51161"><ele>138.66666666666666</ele><time>2026-04-17T16:14:40.231Z</time></trkpt><trkpt lat="43.6250083" lon="11.5115383"><ele>138.33333333333334</ele><time>2026-04-17T16:14:41.232Z</time></trkpt><trkpt lat="43.624945" lon="11.5114667"><ele>138.0</ele><time>2026-04-17T16:14:42.231Z</time></trkpt><trkpt lat="43.624885" lon="11.5113917"><ele>138.0</ele><time>2026-04-17T16:14:43.232Z</time></trkpt><trkpt lat="43.6248283" lon="11.5113117"><ele>138.0</ele><time>2026-04-17T16:14:44.229Z</time></trkpt><trkpt lat="43.6247717" lon="11.5112317"><ele>138.0</ele><time>2026-04-17T16:14:45.229Z</time></trkpt><trkpt lat="43.6247233" lon="11.5111467"><ele>138.0</ele><time>2026-04-17T16:14:46.23Z</time></trkpt><trkpt lat="43.624675" lon="11.5110517"><ele>138.0</ele><time>2026-04-17T16:14:47.231Z</time></trkpt><trkpt lat="43.6246383" lon="11.5109517"><ele>138.0</ele><time>2026-04-17T16:14:48.23Z</time></trkpt><trkpt lat="43.6246067" lon="11.5108467"><ele>138.0</ele><time>2026-04-17T16:14:49.229Z</time></trkpt><trkpt lat="43.6245767" lon="11.5107383"><ele>138.0</ele><time>2026-04-17T16:14:50.231Z</time></trkpt><trkpt lat="43.6245467" lon="11.5106283"><ele>138.0</ele><time>2026-04-17T16:14:51.229Z</time></trkpt><trkpt lat="43.6245167" lon="11.510515"><ele>138.0</ele><time>2026-04-17T16:14:52.23Z</time></trkpt><trkpt lat="43.624485" lon="11.5104017"><ele>138.0</ele><time>2026-04-17T16:14:53.23Z</time></trkpt><trkpt lat="43.6244533" lon="11.510285"><ele>138.0</ele><time>2026-04-17T16:14:54.23Z</time></trkpt><trkpt lat="43.6244233" lon="11.5101683"><ele>137.83333333333334</ele><time>2026-04-17T16:14:55.231Z</time></trkpt><trkpt lat="43.62439" lon="11.510055"><ele>137.66666666666666</ele><time>2026-04-17T16:14:56.23Z</time></trkpt><trkpt lat="43.6243583" lon="11.50994"><ele>137.5</ele><time>2026-04-17T16:14:57.23Z</time></trkpt><trkpt lat="43.6243267" lon="11.5098233"><ele>137.33333333333331</ele><time>2026-04-17T16:14:58.231Z</time></trkpt><trkpt lat="43.6242967" lon="11.5097083"><ele>137.16666666666666</ele><time>2026-04-17T16:14:59.23Z</time></trkpt><trkpt lat="43.6242667" lon="11.5095917"><ele>137.0</ele><time>2026-04-17T16:15:00.231Z</time></trkpt><trkpt lat="43.62424" lon="11.5094733"><ele>136.79999999999998</ele><time>2026-04-17T16:15:01.232Z</time></trkpt><trkpt lat="43.62421" lon="11.5093567"><ele>136.6</ele><time>2026-04-17T16:15:02.23Z</time></trkpt><trkpt lat="43.6241783" lon="11.5092383"><ele>136.39999999999998</ele><time>2026-04-17T16:15:03.232Z</time></trkpt><trkpt lat="43.6241467" lon="11.5091217"><ele>136.2</ele><time>2026-04-17T16:15:04.231Z</time></trkpt><trkpt lat="43.6241167" lon="11.509005"><ele>136.0</ele><time>2026-04-17T16:15:05.23Z</time></trkpt><trkpt lat="43.6240883" lon="11.5088867"><ele>136.0</ele><time>2026-04-17T16:15:06.232Z</time></trkpt><trkpt lat="43.62406" lon="11.5087717"><ele>136.0</ele><time>2026-04-17T16:15:07.23Z</time></trkpt><trkpt lat="43.6240267" lon="11.5086583"><ele>136.0</ele><time>2026-04-17T16:15:08.23Z</time></trkpt><trkpt lat="43.6239917" lon="11.5085467"><ele>136.0</ele><time>2026-04-17T16:15:09.231Z</time></trkpt><trkpt lat="43.62395" lon="11.5084333"><ele>136.0</ele><time>2026-04-17T16:15:10.232Z</time></trkpt><trkpt lat="43.623905" lon="11.5083267"><ele>136.0</ele><time>2026-04-17T16:15:11.231Z</time></trkpt><trkpt lat="43.6238567" lon="11.5082217"><ele>135.83333333333334</ele><time>2026-04-17T16:15:12.23Z</time></trkpt><trkpt lat="43.6238067" lon="11.5081183"><ele>135.66666666666669</ele><time>2026-04-17T16:15:13.229Z</time></trkpt><trkpt lat="43.6237567" lon="11.508015"><ele>135.5</ele><time>2026-04-17T16:15:14.233Z</time></trkpt><trkpt lat="43.6237017" lon="11.5079183"><ele>135.33333333333334</ele><time>2026-04-17T16:15:15.231Z</time></trkpt><trkpt lat="43.623645" lon="11.5078233"><ele>135.16666666666666</ele><time>2026-04-17T16:15:16.23Z</time></trkpt><trkpt lat="43.6235883" lon="11.50773"><ele>135.0</ele><time>2026-04-17T16:15:17.229Z</time></trkpt><trkpt lat="43.623525" lon="11.5076433"><ele>134.66666666666666</ele><time>2026-04-17T16:15:18.23Z</time></trkpt><trkpt lat="43.6234617" lon="11.5075633"><ele>134.33333333333334</ele><time>2026-04-17T16:15:19.23Z</time></trkpt><trkpt lat="43.623395" lon="11.50748"><ele>134.0</ele><time>2026-04-17T16:15:20.23Z</time></trkpt><trkpt lat="43.6233283" lon="11.5074"><ele>133.66666666666669</ele><time>2026-04-17T16:15:21.23Z</time></trkpt><trkpt lat="43.6232583" lon="11.507325"><ele>133.33333333333334</ele><time>2026-04-17T16:15:22.23Z</time></trkpt><trkpt lat="43.6231883" lon="11.5072533"><ele>133.0</ele><time>2026-04-17T16:15:23.231Z</time></trkpt><trkpt lat="43.6231183" lon="11.507185"><ele>133.0</ele><time>2026-04-17T16:15:24.231Z</time></trkpt><trkpt lat="43.6230467" lon="11.5071233"><ele>133.0</ele><time>2026-04-17T16:15:25.231Z</time></trkpt><trkpt lat="43.6229733" lon="11.5070617"><ele>133.0</ele><time>2026-04-17T16:15:26.232Z</time></trkpt><trkpt lat="43.622895" lon="11.507005"><ele>133.0</ele><time>2026-04-17T16:15:27.23Z</time></trkpt><trkpt lat="43.6228183" lon="11.5069483"><ele>133.0</ele><time>2026-04-17T16:15:28.231Z</time></trkpt><trkpt lat="43.6227383" lon="11.5068933"><ele>133.0</ele><time>2026-04-17T16:15:29.229Z</time></trkpt><trkpt lat="43.6226567" lon="11.5068383"><ele>133.16666666666669</ele><time>2026-04-17T16:15:30.229Z</time></trkpt><trkpt lat="43.6225767" lon="11.5067817"><ele>133.33333333333334</ele><time>2026-04-17T16:15:31.232Z</time></trkpt><trkpt lat="43.622495" lon="11.506725"><ele>133.5</ele><time>2026-04-17T16:15:32.233Z</time></trkpt><trkpt lat="43.622415" lon="11.50667"><ele>133.66666666666666</ele><time>2026-04-17T16:15:33.232Z</time></trkpt><trkpt lat="43.6223367" lon="11.5066133"><ele>133.83333333333331</ele><time>2026-04-17T16:15:34.23Z</time></trkpt><trkpt lat="43.62226" lon="11.5065567"><ele>134.0</ele><time>2026-04-17T16:15:35.23Z</time></trkpt><trkpt lat="43.622185" lon="11.5065017"><ele>134.0</ele><time>2026-04-17T16:15:36.231Z</time></trkpt><trkpt lat="43.6221117" lon="11.5064467"><ele>134.0</ele><time>2026-04-17T16:15:37.232Z</time></trkpt><trkpt lat="43.6220367" lon="11.50639"><ele>134.0</ele><time>2026-04-17T16:15:38.231Z</time></trkpt><trkpt lat="43.62196" lon="11.5063333"><ele>134.0</ele><time>2026-04-17T16:15:39.231Z</time></trkpt><trkpt lat="43.6218833" lon="11.5062783"><ele>134.0</ele><time>2026-04-17T16:15:40.232Z</time></trkpt><trkpt lat="43.621805" lon="11.5062217"><ele>134.0</ele><time>2026-04-17T16:15:41.232Z</time></trkpt><trkpt lat="43.6217267" lon="11.506165"><ele>134.16666666666666</ele><time>2026-04-17T16:15:42.231Z</time></trkpt><trkpt lat="43.6216517" lon="11.5061133"><ele>134.33333333333331</ele><time>2026-04-17T16:15:43.229Z</time></trkpt><trkpt lat="43.621575" lon="11.506055"><ele>134.5</ele><time>2026-04-17T16:15:44.232Z</time></trkpt><trkpt lat="43.6214983" lon="11.5060017"><ele>134.66666666666666</ele><time>2026-04-17T16:15:45.23Z</time></trkpt><trkpt lat="43.621425" lon="11.505945"><ele>134.83333333333334</ele><time>2026-04-17T16:15:46.231Z</time></trkpt><trkpt lat="43.62135" lon="11.50589"><ele>135.0</ele><time>2026-04-17T16:15:47.23Z</time></trkpt><trkpt lat="43.6212717" lon="11.5058433"><ele>135.0</ele><time>2026-04-17T16:15:48.231Z</time></trkpt><trkpt lat="43.6211933" lon="11.50579"><ele>135.0</ele><time>2026-04-17T16:15:49.229Z</time></trkpt><trkpt lat="43.6211183" lon="11.5057383"><ele>135.0</ele><time>2026-04-17T16:15:50.232Z</time></trkpt><trkpt lat="43.6210417" lon="11.50569"><ele>135.0</ele><time>2026-04-17T16:15:51.23Z</time></trkpt><trkpt lat="43.6209617" lon="11.5056417"><ele>135.0</ele><time>2026-04-17T16:15:52.232Z</time></trkpt><trkpt lat="43.620885" lon="11.5055983"><ele>135.0</ele><time>2026-04-17T16:15:53.229Z</time></trkpt><trkpt lat="43.62081" lon="11.5055533"><ele>134.66666666666666</ele><time>2026-04-17T16:15:54.231Z</time></trkpt><trkpt lat="43.62073" lon="11.5055217"><ele>134.33333333333334</ele><time>2026-04-17T16:15:55.228Z</time></trkpt><trkpt lat="43.620655" lon="11.5054867"><ele>134.0</ele><time>2026-04-17T16:15:56.231Z</time></trkpt><trkpt lat="43.6205783" lon="11.5054633"><ele>133.66666666666669</ele><time>2026-04-17T16:15:57.23Z</time></trkpt><trkpt lat="43.6204983" lon="11.5054333"><ele>133.33333333333334</ele><time>2026-04-17T16:15:58.231Z</time></trkpt><trkpt lat="43.620415" lon="11.50541"><ele>133.0</ele><time>2026-04-17T16:15:59.23Z</time></trkpt><trkpt lat="43.6203333" lon="11.5053917"><ele>133.5</ele><time>2026-04-17T16:16:00.23Z</time></trkpt><trkpt lat="43.6202517" lon="11.5053767"><ele>134.0</ele><time>2026-04-17T16:16:01.229Z</time></trkpt><trkpt lat="43.6201717" lon="11.505365"><ele>134.5</ele><time>2026-04-17T16:16:02.231Z</time></trkpt><trkpt lat="43.62009" lon="11.50536"><ele>135.0</ele><time>2026-04-17T16:16:03.23Z</time></trkpt><trkpt lat="43.6200083" lon="11.505355"><ele>135.5</ele><time>2026-04-17T16:16:04.231Z</time></trkpt><trkpt lat="43.6199233" lon="11.5053567"><ele>136.0</ele><time>2026-04-17T16:16:05.229Z</time></trkpt><trkpt lat="43.6198383" lon="11.50536"><ele>136.0</ele><time>2026-04-17T16:16:06.231Z</time></trkpt><trkpt lat="43.6197533" lon="11.5053667"><ele>136.0</ele><time>2026-04-17T16:16:07.231Z</time></trkpt><trkpt lat="43.61967" lon="11.505375"><ele>136.0</ele><time>2026-04-17T16:16:08.23Z</time></trkpt><trkpt lat="43.619585" lon="11.5053817"><ele>136.0</ele><time>2026-04-17T16:16:09.231Z</time></trkpt><trkpt lat="43.6195" lon="11.5053883"><ele>136.0</ele><time>2026-04-17T16:16:10.231Z</time></trkpt><trkpt lat="43.6194133" lon="11.505395"><ele>136.0</ele><time>2026-04-17T16:16:11.231Z</time></trkpt><trkpt lat="43.6193317" lon="11.5054"><ele>136.33333333333334</ele><time>2026-04-17T16:16:12.229Z</time></trkpt><trkpt lat="43.619245" lon="11.505405"><ele>136.66666666666669</ele><time>2026-04-17T16:16:13.229Z</time></trkpt><trkpt lat="43.6191617" lon="11.5054067"><ele>137.0</ele><time>2026-04-17T16:16:14.231Z</time></trkpt><trkpt lat="43.61908" lon="11.5054067"><ele>137.33333333333334</ele><time>2026-04-17T16:16:15.231Z</time></trkpt><trkpt lat="43.6189967" lon="11.505405"><ele>137.66666666666666</ele><time>2026-04-17T16:16:16.231Z</time></trkpt><trkpt lat="43.618915" lon="11.5054017"><ele>138.0</ele><time>2026-04-17T16:16:17.232Z</time></trkpt><trkpt lat="43.61883" lon="11.5053917"><ele>138.0</ele><time>2026-04-17T16:16:18.231Z</time></trkpt><trkpt lat="43.6187467" lon="11.5053783"><ele>138.0</ele><time>2026-04-17T16:16:19.23Z</time></trkpt><trkpt lat="43.618665" lon="11.5053633"><ele>138.0</ele><time>2026-04-17T16:16:20.23Z</time></trkpt><trkpt lat="43.6185833" lon="11.5053483"><ele>138.0</ele><time>2026-04-17T16:16:21.229Z</time></trkpt><trkpt lat="43.6185017" lon="11.505325"><ele>138.0</ele><time>2026-04-17T16:16:22.231Z</time></trkpt><trkpt lat="43.6184217" lon="11.505295"><ele>138.0</ele><time>2026-04-17T16:16:23.231Z</time></trkpt><trkpt lat="43.6183417" lon="11.5052633"><ele>138.33333333333334</ele><time>2026-04-17T16:16:24.23Z</time></trkpt><trkpt lat="43.6182617" lon="11.5052333"><ele>138.66666666666666</ele><time>2026-04-17T16:16:25.231Z</time></trkpt><trkpt lat="43.618185" lon="11.5051983"><ele>139.0</ele><time>2026-04-17T16:16:26.229Z</time></trkpt><trkpt lat="43.6181067" lon="11.5051617"><ele>139.33333333333331</ele><time>2026-04-17T16:16:27.229Z</time></trkpt><trkpt lat="43.6180233" lon="11.5051233"><ele>139.66666666666666</ele><time>2026-04-17T16:16:28.23Z</time></trkpt><trkpt lat="43.6179433" lon="11.50509"><ele>140.0</ele><time>2026-04-17T16:16:29.234Z</time></trkpt><trkpt lat="43.6178633" lon="11.5050533"><ele>138.83333333333331</ele><time>2026-04-17T16:16:30.231Z</time></trkpt><trkpt lat="43.6177817" lon="11.50502"><ele>137.66666666666666</ele><time>2026-04-17T16:16:31.229Z</time></trkpt><trkpt lat="43.6176983" lon="11.504985"><ele>136.5</ele><time>2026-04-17T16:16:32.232Z</time></trkpt><trkpt lat="43.6176183" lon="11.5049533"><ele>135.33333333333334</ele><time>2026-04-17T16:16:33.229Z</time></trkpt><trkpt lat="43.617535" lon="11.50492"><ele>134.16666666666669</ele><time>2026-04-17T16:16:34.232Z</time></trkpt><trkpt lat="43.617445" lon="11.504885"><ele>133.0</ele><time>2026-04-17T16:16:35.23Z</time></trkpt><trkpt lat="43.6173567" lon="11.50485"><ele>133.0</ele><time>2026-04-17T16:16:36.23Z</time></trkpt><trkpt lat="43.6172683" lon="11.504815"><ele>133.0</ele><time>2026-04-17T16:16:37.23Z</time></trkpt><trkpt lat="43.6171867" lon="11.5047833"><ele>133.0</ele><time>2026-04-17T16:16:38.229Z</time></trkpt><trkpt lat="43.6171" lon="11.5047467"><ele>133.0</ele><time>2026-04-17T16:16:39.231Z</time></trkpt><trkpt lat="43.61702" lon="11.504705"><ele>133.0</ele><time>2026-04-17T16:16:40.231Z</time></trkpt><trkpt lat="43.6169333" lon="11.504665"><ele>133.0</ele><time>2026-04-17T16:16:41.231Z</time></trkpt><trkpt lat="43.616845" lon="11.5046283"><ele>133.4</ele><time>2026-04-17T16:16:42.232Z</time></trkpt><trkpt lat="43.6167583" lon="11.50459"><ele>133.8</ele><time>2026-04-17T16:16:43.233Z</time></trkpt><trkpt lat="43.6166683" lon="11.5045467"><ele>134.2</ele><time>2026-04-17T16:16:44.232Z</time></trkpt><trkpt lat="43.6165817" lon="11.504505"><ele>134.6</ele><time>2026-04-17T16:16:45.231Z</time></trkpt><trkpt lat="43.6164933" lon="11.5044617"><ele>135.0</ele><time>2026-04-17T16:16:46.234Z</time></trkpt><trkpt lat="43.6164083" lon="11.5044167"><ele>135.0</ele><time>2026-04-17T16:16:47.232Z</time></trkpt><trkpt lat="43.61632" lon="11.5043667"><ele>135.0</ele><time>2026-04-17T16:16:48.231Z</time></trkpt><trkpt lat="43.61623" lon="11.5043133"><ele>135.0</ele><time>2026-04-17T16:16:49.231Z</time></trkpt><trkpt lat="43.6161417" lon="11.5042567"><ele>135.0</ele><time>2026-04-17T16:16:50.233Z</time></trkpt><trkpt lat="43.6160583" lon="11.5042"><ele>135.0</ele><time>2026-04-17T16:16:51.233Z</time></trkpt><trkpt lat="43.61598" lon="11.50414"><ele>133.6</ele><time>2026-04-17T16:16:52.231Z</time></trkpt><trkpt lat="43.615905" lon="11.5040733"><ele>132.2</ele><time>2026-04-17T16:16:53.233Z</time></trkpt><trkpt lat="43.6158283" lon="11.504"><ele>130.8</ele><time>2026-04-17T16:16:54.231Z</time></trkpt><trkpt lat="43.6157533" lon="11.5039233"><ele>129.4</ele><time>2026-04-17T16:16:55.23Z</time></trkpt><trkpt lat="43.6156767" lon="11.5038417"><ele>128.0</ele><time>2026-04-17T16:16:56.23Z</time></trkpt><trkpt lat="43.6156117" lon="11.5037567"><ele>128.20000000000002</ele><time>2026-04-17T16:16:57.231Z</time></trkpt><trkpt lat="43.6155467" lon="11.5036717"><ele>128.4</ele><time>2026-04-17T16:16:58.232Z</time></trkpt><trkpt lat="43.615485" lon="11.50358"><ele>128.60000000000002</ele><time>2026-04-17T16:16:59.232Z</time></trkpt><trkpt lat="43.615425" lon="11.5034833"><ele>128.8</ele><time>2026-04-17T16:17:00.232Z</time></trkpt><trkpt lat="43.6153667" lon="11.503385"><ele>129.0</ele><time>2026-04-17T16:17:01.232Z</time></trkpt><trkpt lat="43.61531" lon="11.503285"><ele>129.0</ele><time>2026-04-17T16:17:02.231Z</time></trkpt><trkpt lat="43.6152567" lon="11.5031833"><ele>129.0</ele><time>2026-04-17T16:17:03.23Z</time></trkpt><trkpt lat="43.6152033" lon="11.5030767"><ele>129.0</ele><time>2026-04-17T16:17:04.232Z</time></trkpt><trkpt lat="43.615155" lon="11.50297"><ele>129.0</ele><time>2026-04-17T16:17:05.23Z</time></trkpt><trkpt lat="43.6151083" lon="11.502865"><ele>129.0</ele><time>2026-04-17T16:17:06.233Z</time></trkpt><trkpt lat="43.6150683" lon="11.5027567"><ele>128.6</ele><time>2026-04-17T16:17:07.231Z</time></trkpt><trkpt lat="43.61503" lon="11.5026417"><ele>128.2</ele><time>2026-04-17T16:17:08.233Z</time></trkpt><trkpt lat="43.614995" lon="11.5025267"><ele>127.79999999999998</ele><time>2026-04-17T16:17:09.233Z</time></trkpt><trkpt lat="43.614965" lon="11.5024083"><ele>127.39999999999999</ele><time>2026-04-17T16:17:10.232Z</time></trkpt><trkpt lat="43.61494" lon="11.5022867"><ele>127.0</ele><time>2026-04-17T16:17:11.23Z</time></trkpt><trkpt lat="43.6149183" lon="11.5021667"><ele>127.0</ele><time>2026-04-17T16:17:12.231Z</time></trkpt><trkpt lat="43.6149" lon="11.5020433"><ele>126.99999999999999</ele><time>2026-04-17T16:17:13.232Z</time></trkpt><trkpt lat="43.6148833" lon="11.501915"><ele>126.99999999999999</ele><time>2026-04-17T16:17:14.231Z</time></trkpt><trkpt lat="43.61487" lon="11.5017883"><ele>127.0</ele><time>2026-04-17T16:17:15.23Z</time></trkpt><trkpt lat="43.6148617" lon="11.5016617"><ele>127.0</ele><time>2026-04-17T16:17:16.231Z</time></trkpt><trkpt lat="43.6148567" lon="11.501535"><ele>127.00000000000001</ele><time>2026-04-17T16:17:17.231Z</time></trkpt><trkpt lat="43.6148533" lon="11.5014083"><ele>127.0</ele><time>2026-04-17T16:17:18.23Z</time></trkpt><trkpt lat="43.614855" lon="11.5012867"><ele>127.0</ele><time>2026-04-17T16:17:19.231Z</time></trkpt><trkpt lat="43.6148633" lon="11.501165"><ele>127.0</ele><time>2026-04-17T16:17:20.23Z</time></trkpt><trkpt lat="43.614875" lon="11.5010433"><ele>127.00000000000001</ele><time>2026-04-17T16:17:21.232Z</time></trkpt><trkpt lat="43.61489" lon="11.500925"><ele>127.0</ele><time>2026-04-17T16:17:22.231Z</time></trkpt><trkpt lat="43.61491" lon="11.5007983"><ele>126.83333333333334</ele><time>2026-04-17T16:17:23.232Z</time></trkpt><trkpt lat="43.6149317" lon="11.5006783"><ele>126.66666666666667</ele><time>2026-04-17T16:17:24.231Z</time></trkpt><trkpt lat="43.61496" lon="11.50056"><ele>126.5</ele><time>2026-04-17T16:17:25.231Z</time></trkpt><trkpt lat="43.6149917" lon="11.5004467"><ele>126.33333333333334</ele><time>2026-04-17T16:17:26.231Z</time></trkpt><trkpt lat="43.6150233" lon="11.50033"><ele>126.16666666666667</ele><time>2026-04-17T16:17:27.232Z</time></trkpt><trkpt lat="43.6150583" lon="11.5002167"><ele>126.0</ele><time>2026-04-17T16:17:28.23Z</time></trkpt><trkpt lat="43.6150983" lon="11.500115"><ele>126.0</ele><time>2026-04-17T16:17:29.23Z</time></trkpt><trkpt lat="43.6151417" lon="11.5000117"><ele>126.0</ele><time>2026-04-17T16:17:30.232Z</time></trkpt><trkpt lat="43.61519" lon="11.4999117"><ele>126.0</ele><time>2026-04-17T16:17:31.231Z</time></trkpt><trkpt lat="43.61524" lon="11.4998167"><ele>126.0</ele><time>2026-04-17T16:17:32.232Z</time></trkpt><trkpt lat="43.6152933" lon="11.4997217"><ele>126.0</ele><time>2026-04-17T16:17:33.23Z</time></trkpt><trkpt lat="43.6153483" lon="11.4996317"><ele>126.0</ele><time>2026-04-17T16:17:34.231Z</time></trkpt><trkpt lat="43.615405" lon="11.4995433"><ele>125.83333333333333</ele><time>2026-04-17T16:17:35.231Z</time></trkpt><trkpt lat="43.6154667" lon="11.499455"><ele>125.66666666666666</ele><time>2026-04-17T16:17:36.231Z</time></trkpt><trkpt lat="43.61553" lon="11.4993683"><ele>125.5</ele><time>2026-04-17T16:17:37.232Z</time></trkpt><trkpt lat="43.6155983" lon="11.4992833"><ele>125.33333333333333</ele><time>2026-04-17T16:17:38.232Z</time></trkpt><trkpt lat="43.615665" lon="11.4992033"><ele>125.16666666666666</ele><time>2026-04-17T16:17:39.231Z</time></trkpt><trkpt lat="43.6157317" lon="11.4991217"><ele>125.0</ele><time>2026-04-17T16:17:40.229Z</time></trkpt><trkpt lat="43.6158017" lon="11.4990383"><ele>124.99999999999999</ele><time>2026-04-17T16:17:41.231Z</time></trkpt><trkpt lat="43.61587" lon="11.49896"><ele>125.0</ele><time>2026-04-17T16:17:42.231Z</time></trkpt><trkpt lat="43.615935" lon="11.498885"><ele>125.0</ele><time>2026-04-17T16:17:43.23Z</time></trkpt><trkpt lat="43.616" lon="11.4988117"><ele>125.0</ele><time>2026-04-17T16:17:44.232Z</time></trkpt><trkpt lat="43.6160633" lon="11.4987383"><ele>124.99999999999999</ele><time>2026-04-17T16:17:45.23Z</time></trkpt><trkpt lat="43.6161283" lon="11.4986617"><ele>125.0</ele><time>2026-04-17T16:17:46.23Z</time></trkpt><trkpt lat="43.6161917" lon="11.4985883"><ele>124.99999999999999</ele><time>2026-04-17T16:17:47.234Z</time></trkpt><trkpt lat="43.6162567" lon="11.4985117"><ele>125.0</ele><time>2026-04-17T16:17:48.231Z</time></trkpt><trkpt lat="43.6163183" lon="11.4984383"><ele>125.0</ele><time>2026-04-17T16:17:49.231Z</time></trkpt><trkpt lat="43.61638" lon="11.498365"><ele>125.0</ele><time>2026-04-17T16:17:50.232Z</time></trkpt><trkpt lat="43.6164433" lon="11.49829"><ele>124.99999999999999</ele><time>2026-04-17T16:17:51.229Z</time></trkpt><trkpt lat="43.6165067" lon="11.498215"><ele>125.0</ele><time>2026-04-17T16:17:52.232Z</time></trkpt><trkpt lat="43.6165667" lon="11.4981433"><ele>124.99999999999999</ele><time>2026-04-17T16:17:53.232Z</time></trkpt><trkpt lat="43.6166267" lon="11.4980717"><ele>125.0</ele><time>2026-04-17T16:17:54.23Z</time></trkpt><trkpt lat="43.6166883" lon="11.4980017"><ele>125.0</ele><time>2026-04-17T16:17:55.231Z</time></trkpt><trkpt lat="43.6167483" lon="11.4979283"><ele>125.0</ele><time>2026-04-17T16:17:56.233Z</time></trkpt><trkpt lat="43.6168083" lon="11.497855"><ele>124.99999999999999</ele><time>2026-04-17T16:17:57.232Z</time></trkpt><trkpt lat="43.6168717" lon="11.4977767"><ele>125.0</ele><time>2026-04-17T16:17:58.231Z</time></trkpt><trkpt lat="43.6169333" lon="11.4977017"><ele>125.16666666666666</ele><time>2026-04-17T16:17:59.231Z</time></trkpt><trkpt lat="43.6169967" lon="11.4976267"><ele>125.33333333333333</ele><time>2026-04-17T16:18:00.232Z</time></trkpt><trkpt lat="43.6170567" lon="11.497555"><ele>125.5</ele><time>2026-04-17T16:18:01.23Z</time></trkpt><trkpt lat="43.6171167" lon="11.4974833"><ele>125.66666666666666</ele><time>2026-04-17T16:18:02.234Z</time></trkpt><trkpt lat="43.6171767" lon="11.497415"><ele>125.83333333333333</ele><time>2026-04-17T16:18:03.233Z</time></trkpt><trkpt lat="43.6172383" lon="11.497345"><ele>126.0</ele><time>2026-04-17T16:18:04.233Z</time></trkpt><trkpt lat="43.6173017" lon="11.4972717"><ele>126.0</ele><time>2026-04-17T16:18:05.23Z</time></trkpt><trkpt lat="43.6173633" lon="11.4972017"><ele>126.0</ele><time>2026-04-17T16:18:06.231Z</time></trkpt><trkpt lat="43.6174283" lon="11.49713"><ele>126.0</ele><time>2026-04-17T16:18:07.232Z</time></trkpt><trkpt lat="43.6174917" lon="11.4970617"><ele>126.0</ele><time>2026-04-17T16:18:08.231Z</time></trkpt><trkpt lat="43.6175583" lon="11.4969917"><ele>126.0</ele><time>2026-04-17T16:18:09.231Z</time></trkpt><trkpt lat="43.6176217" lon="11.4969283"><ele>126.0</ele><time>2026-04-17T16:18:10.233Z</time></trkpt><trkpt lat="43.6176883" lon="11.4968683"><ele>125.83333333333333</ele><time>2026-04-17T16:18:11.229Z</time></trkpt><trkpt lat="43.6177583" lon="11.49681"><ele>125.66666666666666</ele><time>2026-04-17T16:18:12.23Z</time></trkpt><trkpt lat="43.6178317" lon="11.496755"><ele>125.5</ele><time>2026-04-17T16:18:13.232Z</time></trkpt><trkpt lat="43.6179067" lon="11.496705"><ele>125.33333333333333</ele><time>2026-04-17T16:18:14.234Z</time></trkpt><trkpt lat="43.6179833" lon="11.4966567"><ele>125.16666666666666</ele><time>2026-04-17T16:18:15.231Z</time></trkpt><trkpt lat="43.6180633" lon="11.49661"><ele>125.0</ele><time>2026-04-17T16:18:16.232Z</time></trkpt><trkpt lat="43.6181417" lon="11.49657"><ele>124.99999999999999</ele><time>2026-04-17T16:18:17.231Z</time></trkpt><trkpt lat="43.6182217" lon="11.4965367"><ele>125.0</ele><time>2026-04-17T16:18:18.233Z</time></trkpt><trkpt lat="43.6183017" lon="11.4965033"><ele>125.0</ele><time>2026-04-17T16:18:19.231Z</time></trkpt><trkpt lat="43.6183783" lon="11.4964767"><ele>125.0</ele><time>2026-04-17T16:18:20.232Z</time></trkpt><trkpt lat="43.6184533" lon="11.496455"><ele>124.99999999999999</ele><time>2026-04-17T16:18:21.231Z</time></trkpt><trkpt lat="43.6185317" lon="11.496435"><ele>125.0</ele><time>2026-04-17T16:18:22.231Z</time></trkpt><trkpt lat="43.6186083" lon="11.4964167"><ele>125.83333333333333</ele><time>2026-04-17T16:18:23.229Z</time></trkpt><trkpt lat="43.6186883" lon="11.4964"><ele>126.66666666666666</ele><time>2026-04-17T16:18:24.23Z</time></trkpt><trkpt lat="43.6187667" lon="11.4963867"><ele>127.5</ele><time>2026-04-17T16:18:25.231Z</time></trkpt><trkpt lat="43.61885" lon="11.4963717"><ele>128.33333333333334</ele><time>2026-04-17T16:18:26.232Z</time></trkpt><trkpt lat="43.6189333" lon="11.4963583"><ele>129.16666666666669</ele><time>2026-04-17T16:18:27.232Z</time></trkpt><trkpt lat="43.6190133" lon="11.4963467"><ele>130.0</ele><time>2026-04-17T16:18:28.232Z</time></trkpt><trkpt lat="43.6191" lon="11.4963383"><ele>130.0</ele><time>2026-04-17T16:18:29.23Z</time></trkpt><trkpt lat="43.61919" lon="11.4963283"><ele>130.0</ele><time>2026-04-17T16:18:30.231Z</time></trkpt><trkpt lat="43.61927" lon="11.4963167"><ele>130.0</ele><time>2026-04-17T16:18:31.232Z</time></trkpt><trkpt lat="43.619345" lon="11.4963083"><ele>130.0</ele><time>2026-04-17T16:18:32.232Z</time></trkpt><trkpt lat="43.61942" lon="11.4963033"><ele>130.0</ele><time>2026-04-17T16:18:33.23Z</time></trkpt><trkpt lat="43.6194983" lon="11.4962933"><ele>130.0</ele><time>2026-04-17T16:18:34.23Z</time></trkpt><trkpt lat="43.6195717" lon="11.4962833"><ele>129.83333333333334</ele><time>2026-04-17T16:18:35.232Z</time></trkpt><trkpt lat="43.6196483" lon="11.496275"><ele>129.66666666666669</ele><time>2026-04-17T16:18:36.231Z</time></trkpt><trkpt lat="43.6197267" lon="11.4962667"><ele>129.5</ele><time>2026-04-17T16:18:37.231Z</time></trkpt><trkpt lat="43.619805" lon="11.49626"><ele>129.33333333333334</ele><time>2026-04-17T16:18:38.231Z</time></trkpt><trkpt lat="43.6198817" lon="11.4962533"><ele>129.16666666666666</ele><time>2026-04-17T16:18:39.231Z</time></trkpt><trkpt lat="43.6199617" lon="11.4962467"><ele>129.0</ele><time>2026-04-17T16:18:40.232Z</time></trkpt><trkpt lat="43.6200433" lon="11.49624"><ele>128.33333333333334</ele><time>2026-04-17T16:18:41.231Z</time></trkpt><trkpt lat="43.6201217" lon="11.4962317"><ele>127.66666666666666</ele><time>2026-04-17T16:18:42.229Z</time></trkpt><trkpt lat="43.6202" lon="11.4962267"><ele>127.0</ele><time>2026-04-17T16:18:43.231Z</time></trkpt><trkpt lat="43.6202817" lon="11.4962167"><ele>126.33333333333333</ele><time>2026-04-17T16:18:44.23Z</time></trkpt><trkpt lat="43.62036" lon="11.4962083"><ele>125.66666666666666</ele><time>2026-04-17T16:18:45.233Z</time></trkpt><trkpt lat="43.6204383" lon="11.4961983"><ele>125.0</ele><time>2026-04-17T16:18:46.233Z</time></trkpt><trkpt lat="43.6205167" lon="11.49619"><ele>124.99999999999999</ele><time>2026-04-17T16:18:47.231Z</time></trkpt><trkpt lat="43.6205983" lon="11.4961767"><ele>125.0</ele><time>2026-04-17T16:18:48.231Z</time></trkpt><trkpt lat="43.6206767" lon="11.4961633"><ele>125.0</ele><time>2026-04-17T16:18:49.231Z</time></trkpt><trkpt lat="43.6207533" lon="11.4961417"><ele>125.0</ele><time>2026-04-17T16:18:50.232Z</time></trkpt><trkpt lat="43.620835" lon="11.4961117"><ele>124.99999999999999</ele><time>2026-04-17T16:18:51.23Z</time></trkpt><trkpt lat="43.6209183" lon="11.49607"><ele>125.0</ele><time>2026-04-17T16:18:52.232Z</time></trkpt><trkpt lat="43.6209983" lon="11.4960267"><ele>124.99999999999999</ele><time>2026-04-17T16:18:53.233Z</time></trkpt><trkpt lat="43.6210733" lon="11.4959783"><ele>125.0</ele><time>2026-04-17T16:18:54.231Z</time></trkpt><trkpt lat="43.6211517" lon="11.49593"><ele>125.0</ele><time>2026-04-17T16:18:55.23Z</time></trkpt><trkpt lat="43.6212317" lon="11.4958817"><ele>125.0</ele><time>2026-04-17T16:18:56.231Z</time></trkpt><trkpt lat="43.6213033" lon="11.49583"><ele>124.99999999999999</ele><time>2026-04-17T16:18:57.23Z</time></trkpt><trkpt lat="43.62138" lon="11.4957783"><ele>125.0</ele><time>2026-04-17T16:18:58.232Z</time></trkpt><trkpt lat="43.621455" lon="11.49573"><ele>125.33333333333333</ele><time>2026-04-17T16:18:59.233Z</time></trkpt><trkpt lat="43.62153" lon="11.4956767"><ele>125.66666666666666</ele><time>2026-04-17T16:19:00.23Z</time></trkpt><trkpt lat="43.621605" lon="11.4956283"><ele>126.0</ele><time>2026-04-17T16:19:01.234Z</time></trkpt><trkpt lat="43.6216833" lon="11.49558"><ele>126.33333333333334</ele><time>2026-04-17T16:19:02.234Z</time></trkpt><trkpt lat="43.6217617" lon="11.4955283"><ele>126.66666666666667</ele><time>2026-04-17T16:19:03.231Z</time></trkpt><trkpt lat="43.62184" lon="11.495475"><ele>127.0</ele><time>2026-04-17T16:19:04.232Z</time></trkpt><trkpt lat="43.621915" lon="11.495415"><ele>127.00000000000001</ele><time>2026-04-17T16:19:05.231Z</time></trkpt><trkpt lat="43.621985" lon="11.4953533"><ele>127.0</ele><time>2026-04-17T16:19:06.232Z</time></trkpt><trkpt lat="43.6220683" lon="11.4952933"><ele>127.0</ele><time>2026-04-17T16:19:07.233Z</time></trkpt><trkpt lat="43.62214" lon="11.4952333"><ele>127.0</ele><time>2026-04-17T16:19:08.233Z</time></trkpt><trkpt lat="43.62221" lon="11.4951733"><ele>127.00000000000001</ele><time>2026-04-17T16:19:09.233Z</time></trkpt><trkpt lat="43.6222867" lon="11.4951183"><ele>127.0</ele><time>2026-04-17T16:19:10.233Z</time></trkpt><trkpt lat="43.62236" lon="11.4950667"><ele>127.00000000000001</ele><time>2026-04-17T16:19:11.231Z</time></trkpt><trkpt lat="43.6224333" lon="11.4950167"><ele>127.0</ele><time>2026-04-17T16:19:12.233Z</time></trkpt><trkpt lat="43.622505" lon="11.4949683"><ele>127.0</ele><time>2026-04-17T16:19:13.233Z</time></trkpt><trkpt lat="43.622575" lon="11.49492"><ele>127.0</ele><time>2026-04-17T16:19:14.232Z</time></trkpt><trkpt lat="43.6226417" lon="11.4948733"><ele>127.00000000000001</ele><time>2026-04-17T16:19:15.232Z</time></trkpt><trkpt lat="43.6227083" lon="11.49483"><ele>127.0</ele><time>2026-04-17T16:19:16.231Z</time></trkpt><trkpt lat="43.622775" lon="11.4947967"><ele>126.85714285714286</ele><time>2026-04-17T16:19:17.232Z</time></trkpt><trkpt lat="43.6228417" lon="11.494755"><ele>126.71428571428571</ele><time>2026-04-17T16:19:18.232Z</time></trkpt><trkpt lat="43.622905" lon="11.494715"><ele>126.57142857142857</ele><time>2026-04-17T16:19:19.229Z</time></trkpt><trkpt lat="43.6229717" lon="11.4946733"><ele>126.42857142857143</ele><time>2026-04-17T16:19:20.231Z</time></trkpt><trkpt lat="43.623035" lon="11.4946267"><ele>126.28571428571428</ele><time>2026-04-17T16:19:21.231Z</time></trkpt><trkpt lat="43.6230983" lon="11.49458"><ele>126.14285714285714</ele><time>2026-04-17T16:19:22.23Z</time></trkpt><trkpt lat="43.6231583" lon="11.4945283"><ele>126.0</ele><time>2026-04-17T16:19:23.229Z</time></trkpt><trkpt lat="43.6232167" lon="11.49447"><ele>126.0</ele><time>2026-04-17T16:19:24.229Z</time></trkpt><trkpt lat="43.62327" lon="11.4944067"><ele>126.0</ele><time>2026-04-17T16:19:25.229Z</time></trkpt><trkpt lat="43.6233183" lon="11.4943317"><ele>126.0</ele><time>2026-04-17T16:19:26.23Z</time></trkpt><trkpt lat="43.62336" lon="11.4942517"><ele>126.0</ele><time>2026-04-17T16:19:27.231Z</time></trkpt><trkpt lat="43.623405" lon="11.494165"><ele>126.0</ele><time>2026-04-17T16:19:28.231Z</time></trkpt><trkpt lat="43.6234467" lon="11.4940767"><ele>126.0</ele><time>2026-04-17T16:19:29.231Z</time></trkpt><trkpt lat="43.6234867" lon="11.4939867"><ele>126.0</ele><time>2026-04-17T16:19:30.233Z</time></trkpt><trkpt lat="43.62352" lon="11.49389"><ele>126.0</ele><time>2026-04-17T16:19:31.231Z</time></trkpt><trkpt lat="43.623555" lon="11.4937883"><ele>126.0</ele><time>2026-04-17T16:19:32.232Z</time></trkpt><trkpt lat="43.6235867" lon="11.4936917"><ele>126.0</ele><time>2026-04-17T16:19:33.229Z</time></trkpt><trkpt lat="43.623615" lon="11.493595"><ele>126.0</ele><time>2026-04-17T16:19:34.233Z</time></trkpt><trkpt lat="43.6236417" lon="11.4934967"><ele>126.0</ele><time>2026-04-17T16:19:35.23Z</time></trkpt><trkpt lat="43.623665" lon="11.4933967"><ele>126.0</ele><time>2026-04-17T16:19:36.228Z</time></trkpt><trkpt lat="43.6236883" lon="11.4932933"><ele>127.0</ele><time>2026-04-17T16:19:37.229Z</time></trkpt><trkpt lat="43.62371" lon="11.4931833"><ele>128.0</ele><time>2026-04-17T16:19:38.229Z</time></trkpt><trkpt lat="43.6237267" lon="11.49308"><ele>129.0</ele><time>2026-04-17T16:19:39.229Z</time></trkpt><trkpt lat="43.6237467" lon="11.49297"><ele>130.0</ele><time>2026-04-17T16:19:40.23Z</time></trkpt><trkpt lat="43.6237617" lon="11.4928683"><ele>131.0</ele><time>2026-04-17T16:19:41.229Z</time></trkpt><trkpt lat="43.6237717" lon="11.4927617"><ele>132.0</ele><time>2026-04-17T16:19:42.229Z</time></trkpt><trkpt lat="43.6237767" lon="11.4926583"><ele>132.0</ele><time>2026-04-17T16:19:43.23Z</time></trkpt><trkpt lat="43.623785" lon="11.4925533"><ele>132.0</ele><time>2026-04-17T16:19:44.234Z</time></trkpt><trkpt lat="43.6237883" lon="11.492445"><ele>132.0</ele><time>2026-04-17T16:19:45.231Z</time></trkpt><trkpt lat="43.6237883" lon="11.4923383"><ele>132.0</ele><time>2026-04-17T16:19:46.231Z</time></trkpt><trkpt lat="43.62379" lon="11.492225"><ele>132.0</ele><time>2026-04-17T16:19:47.232Z</time></trkpt><trkpt lat="43.62379" lon="11.492115"><ele>132.0</ele><time>2026-04-17T16:19:48.233Z</time></trkpt><trkpt lat="43.623795" lon="11.49201"><ele>131.83333333333334</ele><time>2026-04-17T16:19:49.231Z</time></trkpt><trkpt lat="43.6237983" lon="11.4919067"><ele>131.66666666666666</ele><time>2026-04-17T16:19:50.235Z</time></trkpt><trkpt lat="43.623805" lon="11.4918017"><ele>131.5</ele><time>2026-04-17T16:19:51.234Z</time></trkpt><trkpt lat="43.62381" lon="11.491695"><ele>131.33333333333331</ele><time>2026-04-17T16:19:52.233Z</time></trkpt><trkpt lat="43.6238133" lon="11.491585"><ele>131.16666666666666</ele><time>2026-04-17T16:19:53.231Z</time></trkpt><trkpt lat="43.6238167" lon="11.4914717"><ele>131.0</ele><time>2026-04-17T16:19:54.231Z</time></trkpt><trkpt lat="43.6238183" lon="11.4913617"><ele>130.83333333333331</ele><time>2026-04-17T16:19:55.23Z</time></trkpt><trkpt lat="43.6238217" lon="11.4912533"><ele>130.66666666666666</ele><time>2026-04-17T16:19:56.233Z</time></trkpt><trkpt lat="43.6238233" lon="11.4911467"><ele>130.5</ele><time>2026-04-17T16:19:57.231Z</time></trkpt><trkpt lat="43.6238267" lon="11.4910367"><ele>130.33333333333334</ele><time>2026-04-17T16:19:58.23Z</time></trkpt><trkpt lat="43.62383" lon="11.49093"><ele>130.16666666666669</ele><time>2026-04-17T16:19:59.231Z</time></trkpt><trkpt lat="43.6238333" lon="11.49082"><ele>130.0</ele><time>2026-04-17T16:20:00.231Z</time></trkpt><trkpt lat="43.6238383" lon="11.490705"><ele>130.0</ele><time>2026-04-17T16:20:01.232Z</time></trkpt><trkpt lat="43.6238433" lon="11.490595"><ele>130.0</ele><time>2026-04-17T16:20:02.23Z</time></trkpt><trkpt lat="43.6238517" lon="11.4904833"><ele>130.0</ele><time>2026-04-17T16:20:03.233Z</time></trkpt><trkpt lat="43.6238583" lon="11.4903717"><ele>130.0</ele><time>2026-04-17T16:20:04.231Z</time></trkpt><trkpt lat="43.6238667" lon="11.4902583"><ele>130.0</ele><time>2026-04-17T16:20:05.232Z</time></trkpt><trkpt lat="43.6238733" lon="11.49014"><ele>130.0</ele><time>2026-04-17T16:20:06.233Z</time></trkpt><trkpt lat="43.6238783" lon="11.4900283"><ele>129.66666666666669</ele><time>2026-04-17T16:20:07.231Z</time></trkpt><trkpt lat="43.62388" lon="11.48992"><ele>129.33333333333334</ele><time>2026-04-17T16:20:08.231Z</time></trkpt><trkpt lat="43.6238833" lon="11.48981"><ele>129.0</ele><time>2026-04-17T16:20:09.232Z</time></trkpt><trkpt lat="43.6238867" lon="11.4896983"><ele>128.66666666666666</ele><time>2026-04-17T16:20:10.231Z</time></trkpt><trkpt lat="43.6238883" lon="11.4895833"><ele>128.33333333333331</ele><time>2026-04-17T16:20:11.231Z</time></trkpt><trkpt lat="43.6238917" lon="11.4894683"><ele>128.0</ele><time>2026-04-17T16:20:12.231Z</time></trkpt><trkpt lat="43.6238967" lon="11.4893567"><ele>127.83333333333333</ele><time>2026-04-17T16:20:13.233Z</time></trkpt><trkpt lat="43.6238967" lon="11.48925"><ele>127.66666666666666</ele><time>2026-04-17T16:20:14.231Z</time></trkpt><trkpt lat="43.6239017" lon="11.4891333"><ele>127.5</ele><time>2026-04-17T16:20:15.231Z</time></trkpt><trkpt lat="43.6239067" lon="11.4890117"><ele>127.33333333333334</ele><time>2026-04-17T16:20:16.231Z</time></trkpt><trkpt lat="43.6239117" lon="11.4888967"><ele>127.16666666666667</ele><time>2026-04-17T16:20:17.233Z</time></trkpt><trkpt lat="43.6239167" lon="11.4887833"><ele>127.0</ele><time>2026-04-17T16:20:18.231Z</time></trkpt><trkpt lat="43.6239217" lon="11.4886733"><ele>127.00000000000001</ele><time>2026-04-17T16:20:19.232Z</time></trkpt><trkpt lat="43.62393" lon="11.4885567"><ele>127.0</ele><time>2026-04-17T16:20:20.232Z</time></trkpt><trkpt lat="43.6239433" lon="11.4884383"><ele>127.0</ele><time>2026-04-17T16:20:21.229Z</time></trkpt><trkpt lat="43.6239533" lon="11.4883217"><ele>127.0</ele><time>2026-04-17T16:20:22.231Z</time></trkpt><trkpt lat="43.6239633" lon="11.48822"><ele>127.00000000000001</ele><time>2026-04-17T16:20:23.233Z</time></trkpt><trkpt lat="43.62398" lon="11.4881083"><ele>127.0</ele><time>2026-04-17T16:20:24.231Z</time></trkpt><trkpt lat="43.624005" lon="11.4879967"><ele>126.66666666666667</ele><time>2026-04-17T16:20:25.231Z</time></trkpt><trkpt lat="43.624035" lon="11.4878883"><ele>126.33333333333334</ele><time>2026-04-17T16:20:26.231Z</time></trkpt><trkpt lat="43.62407" lon="11.4877833"><ele>126.0</ele><time>2026-04-17T16:20:27.232Z</time></trkpt><trkpt lat="43.624115" lon="11.4876817"><ele>125.66666666666666</ele><time>2026-04-17T16:20:28.232Z</time></trkpt><trkpt lat="43.6241633" lon="11.48759"><ele>125.33333333333333</ele><time>2026-04-17T16:20:29.232Z</time></trkpt><trkpt lat="43.6242183" lon="11.4874983"><ele>125.0</ele><time>2026-04-17T16:20:30.231Z</time></trkpt><trkpt lat="43.62427" lon="11.4874167"><ele>124.99999999999999</ele><time>2026-04-17T16:20:31.231Z</time></trkpt><trkpt lat="43.6243217" lon="11.4873383"><ele>125.0</ele><time>2026-04-17T16:20:32.232Z</time></trkpt><trkpt lat="43.6243733" lon="11.4872617"><ele>125.0</ele><time>2026-04-17T16:20:33.231Z</time></trkpt><trkpt lat="43.6244283" lon="11.4871833"><ele>125.0</ele><time>2026-04-17T16:20:34.233Z</time></trkpt><trkpt lat="43.6244817" lon="11.48711"><ele>124.99999999999999</ele><time>2026-04-17T16:20:35.231Z</time></trkpt><trkpt lat="43.6245367" lon="11.4870333"><ele>125.0</ele><time>2026-04-17T16:20:36.232Z</time></trkpt><trkpt lat="43.624585" lon="11.4869583"><ele>125.2</ele><time>2026-04-17T16:20:37.231Z</time></trkpt><trkpt lat="43.6246833" lon="11.486835"><ele>125.4</ele><time>2026-04-17T16:20:39.231Z</time></trkpt><trkpt lat="43.6247517" lon="11.4867483"><ele>125.6</ele><time>2026-04-17T16:20:40.23Z</time></trkpt><trkpt lat="43.62483" lon="11.4866733"><ele>125.8</ele><time>2026-04-17T16:20:41.231Z</time></trkpt><trkpt lat="43.624895" lon="11.4866167"><ele>126.0</ele><time>2026-04-17T16:20:42.231Z</time></trkpt><trkpt lat="43.624965" lon="11.48655"><ele>126.0</ele><time>2026-04-17T16:20:43.232Z</time></trkpt><trkpt lat="43.62503" lon="11.486485"><ele>126.0</ele><time>2026-04-17T16:20:44.23Z</time></trkpt><trkpt lat="43.62509" lon="11.4864183"><ele>126.0</ele><time>2026-04-17T16:20:45.229Z</time></trkpt><trkpt lat="43.6251483" lon="11.486345"><ele>126.0</ele><time>2026-04-17T16:20:46.229Z</time></trkpt><trkpt lat="43.6251983" lon="11.48627"><ele>126.0</ele><time>2026-04-17T16:20:47.232Z</time></trkpt><trkpt lat="43.625245" lon="11.4861917"><ele>126.0</ele><time>2026-04-17T16:20:48.23Z</time></trkpt><trkpt lat="43.6252917" lon="11.4861017"><ele>125.66666666666667</ele><time>2026-04-17T16:20:49.23Z</time></trkpt><trkpt lat="43.6253383" lon="11.486005"><ele>125.33333333333334</ele><time>2026-04-17T16:20:50.23Z</time></trkpt><trkpt lat="43.6253783" lon="11.4859133"><ele>125.0</ele><time>2026-04-17T16:20:51.231Z</time></trkpt><trkpt lat="43.6254233" lon="11.4858183"><ele>124.66666666666667</ele><time>2026-04-17T16:20:52.232Z</time></trkpt><trkpt lat="43.6254667" lon="11.4857217"><ele>124.33333333333334</ele><time>2026-04-17T16:20:53.229Z</time></trkpt><trkpt lat="43.62551" lon="11.485635"><ele>124.0</ele><time>2026-04-17T16:20:54.232Z</time></trkpt><trkpt lat="43.62556" lon="11.4855433"><ele>124.0</ele><time>2026-04-17T16:20:55.231Z</time></trkpt><trkpt lat="43.6256083" lon="11.4854583"><ele>124.00000000000001</ele><time>2026-04-17T16:20:56.231Z</time></trkpt><trkpt lat="43.625655" lon="11.4853783"><ele>124.0</ele><time>2026-04-17T16:20:57.23Z</time></trkpt><trkpt lat="43.6257" lon="11.4852967"><ele>124.0</ele><time>2026-04-17T16:20:58.231Z</time></trkpt><trkpt lat="43.6257383" lon="11.4852167"><ele>124.00000000000001</ele><time>2026-04-17T16:20:59.232Z</time></trkpt><trkpt lat="43.6257817" lon="11.485135"><ele>124.0</ele><time>2026-04-17T16:21:00.229Z</time></trkpt><trkpt lat="43.6258217" lon="11.4850517"><ele>124.0</ele><time>2026-04-17T16:21:01.23Z</time></trkpt><trkpt lat="43.62586" lon="11.484975"><ele>124.00000000000001</ele><time>2026-04-17T16:21:02.23Z</time></trkpt><trkpt lat="43.6259" lon="11.4848983"><ele>124.0</ele><time>2026-04-17T16:21:03.23Z</time></trkpt><trkpt lat="43.625965" lon="11.484755"><ele>124.0</ele><time>2026-04-17T16:21:05.23Z</time></trkpt><trkpt lat="43.6260017" lon="11.4846767"><ele>124.0</ele><time>2026-04-17T16:21:06.231Z</time></trkpt><trkpt lat="43.6260417" lon="11.4846"><ele>124.00000000000001</ele><time>2026-04-17T16:21:07.231Z</time></trkpt><trkpt lat="43.6260833" lon="11.484525"><ele>124.0</ele><time>2026-04-17T16:21:08.232Z</time></trkpt><trkpt lat="43.6261233" lon="11.484455"><ele>124.0</ele><time>2026-04-17T16:21:09.231Z</time></trkpt><trkpt lat="43.6261967" lon="11.484335"><ele>124.0</ele><time>2026-04-17T16:21:11.229Z</time></trkpt><trkpt lat="43.6262933" lon="11.4843117"><ele>124.0</ele><time>2026-04-17T16:21:13.229Z</time></trkpt><trkpt lat="43.6263833" lon="11.4844217"><ele>124.0</ele><time>2026-04-17T16:21:15.231Z</time></trkpt><trkpt lat="43.6264283" lon="11.4845033"><ele>124.0</ele><time>2026-04-17T16:21:16.23Z</time></trkpt><trkpt lat="43.626465" lon="11.4845933"><ele>124.00000000000001</ele><time>2026-04-17T16:21:17.23Z</time></trkpt><trkpt lat="43.6265033" lon="11.4846867"><ele>124.0</ele><time>2026-04-17T16:21:18.232Z</time></trkpt><trkpt lat="43.6265433" lon="11.484775"><ele>124.0</ele><time>2026-04-17T16:21:19.233Z</time></trkpt><trkpt lat="43.62659" lon="11.484865"><ele>124.0</ele><time>2026-04-17T16:21:20.231Z</time></trkpt><trkpt lat="43.626635" lon="11.4849517"><ele>124.00000000000001</ele><time>2026-04-17T16:21:21.233Z</time></trkpt><trkpt lat="43.6266717" lon="11.485035"><ele>124.0</ele><time>2026-04-17T16:21:22.229Z</time></trkpt><trkpt lat="43.6267117" lon="11.485125"><ele>124.0</ele><time>2026-04-17T16:21:23.23Z</time></trkpt><trkpt lat="43.6267533" lon="11.4852183"><ele>124.00000000000001</ele><time>2026-04-17T16:21:24.23Z</time></trkpt><trkpt lat="43.62679" lon="11.4853067"><ele>124.0</ele><time>2026-04-17T16:21:25.231Z</time></trkpt><trkpt lat="43.626825" lon="11.4853917"><ele>124.0</ele><time>2026-04-17T16:21:26.233Z</time></trkpt><trkpt lat="43.6268633" lon="11.4854817"><ele>124.00000000000001</ele><time>2026-04-17T16:21:27.231Z</time></trkpt><trkpt lat="43.6269" lon="11.4855683"><ele>124.0</ele><time>2026-04-17T16:21:28.231Z</time></trkpt><trkpt lat="43.6269367" lon="11.4856583"><ele>124.0</ele><time>2026-04-17T16:21:29.232Z</time></trkpt><trkpt lat="43.6269733" lon="11.4857467"><ele>124.14285714285715</ele><time>2026-04-17T16:21:30.233Z</time></trkpt><trkpt lat="43.627005" lon="11.4858367"><ele>124.2857142857143</ele><time>2026-04-17T16:21:31.232Z</time></trkpt><trkpt lat="43.627035" lon="11.485925"><ele>124.42857142857143</ele><time>2026-04-17T16:21:32.231Z</time></trkpt><trkpt lat="43.627065" lon="11.4860083"><ele>124.57142857142858</ele><time>2026-04-17T16:21:33.231Z</time></trkpt><trkpt lat="43.627095" lon="11.486095"><ele>124.71428571428572</ele><time>2026-04-17T16:21:34.232Z</time></trkpt><trkpt lat="43.6271267" lon="11.4861867"><ele>124.85714285714286</ele><time>2026-04-17T16:21:35.231Z</time></trkpt><trkpt lat="43.627155" lon="11.4862733"><ele>125.0</ele><time>2026-04-17T16:21:36.231Z</time></trkpt><trkpt lat="43.6271883" lon="11.486365"><ele>125.16666666666666</ele><time>2026-04-17T16:21:37.231Z</time></trkpt><trkpt lat="43.6272433" lon="11.486515"><ele>125.33333333333333</ele><time>2026-04-17T16:21:39.233Z</time></trkpt><trkpt lat="43.6272717" lon="11.486595"><ele>125.5</ele><time>2026-04-17T16:21:40.23Z</time></trkpt><trkpt lat="43.6273" lon="11.4866883"><ele>125.66666666666666</ele><time>2026-04-17T16:21:41.231Z</time></trkpt><trkpt lat="43.6273267" lon="11.4867817"><ele>125.83333333333333</ele><time>2026-04-17T16:21:42.233Z</time></trkpt><trkpt lat="43.6273533" lon="11.486875"><ele>126.0</ele><time>2026-04-17T16:21:43.232Z</time></trkpt><trkpt lat="43.6273817" lon="11.4869717"><ele>126.0</ele><time>2026-04-17T16:21:44.23Z</time></trkpt><trkpt lat="43.62741" lon="11.487065"><ele>126.0</ele><time>2026-04-17T16:21:45.231Z</time></trkpt><trkpt lat="43.6274383" lon="11.487155"><ele>126.0</ele><time>2026-04-17T16:21:46.231Z</time></trkpt><trkpt lat="43.6274667" lon="11.487245"><ele>126.0</ele><time>2026-04-17T16:21:47.23Z</time></trkpt><trkpt lat="43.627495" lon="11.4873333"><ele>126.0</ele><time>2026-04-17T16:21:48.23Z</time></trkpt><trkpt lat="43.627525" lon="11.4874283"><ele>126.0</ele><time>2026-04-17T16:21:49.232Z</time></trkpt><trkpt lat="43.6275533" lon="11.4875217"><ele>126.0</ele><time>2026-04-17T16:21:50.23Z</time></trkpt><trkpt lat="43.62758" lon="11.4876183"><ele>126.0</ele><time>2026-04-17T16:21:51.231Z</time></trkpt><trkpt lat="43.627605" lon="11.4877183"><ele>126.0</ele><time>2026-04-17T16:21:52.231Z</time></trkpt><trkpt lat="43.6276283" lon="11.4878133"><ele>126.0</ele><time>2026-04-17T16:21:53.231Z</time></trkpt><trkpt lat="43.6276517" lon="11.4879083"><ele>126.0</ele><time>2026-04-17T16:21:54.231Z</time></trkpt><trkpt lat="43.6276733" lon="11.488005"><ele>126.0</ele><time>2026-04-17T16:21:55.23Z</time></trkpt><trkpt lat="43.6276933" lon="11.488105"><ele>126.0</ele><time>2026-04-17T16:21:56.23Z</time></trkpt><trkpt lat="43.6277183" lon="11.488205"><ele>126.0</ele><time>2026-04-17T16:21:57.231Z</time></trkpt><trkpt lat="43.62774" lon="11.4883083"><ele>126.0</ele><time>2026-04-17T16:21:58.23Z</time></trkpt><trkpt lat="43.6277617" lon="11.488405"><ele>126.0</ele><time>2026-04-17T16:21:59.232Z</time></trkpt><trkpt lat="43.627785" lon="11.488505"><ele>126.0</ele><time>2026-04-17T16:22:00.23Z</time></trkpt><trkpt lat="43.6278083" lon="11.4886067"><ele>126.0</ele><time>2026-04-17T16:22:01.23Z</time></trkpt><trkpt lat="43.6278283" lon="11.488705"><ele>126.0</ele><time>2026-04-17T16:22:02.23Z</time></trkpt><trkpt lat="43.6278483" lon="11.4887967"><ele>126.0</ele><time>2026-04-17T16:22:03.231Z</time></trkpt><trkpt lat="43.62787" lon="11.4888917"><ele>126.0</ele><time>2026-04-17T16:22:04.229Z</time></trkpt><trkpt lat="43.6278933" lon="11.4889867"><ele>125.85714285714286</ele><time>2026-04-17T16:22:05.23Z</time></trkpt><trkpt lat="43.6279133" lon="11.4890833"><ele>125.71428571428572</ele><time>2026-04-17T16:22:06.23Z</time></trkpt><trkpt lat="43.6279317" lon="11.4891717"><ele>125.57142857142857</ele><time>2026-04-17T16:22:07.23Z</time></trkpt><trkpt lat="43.62795" lon="11.4892583"><ele>125.42857142857143</ele><time>2026-04-17T16:22:08.232Z</time></trkpt><trkpt lat="43.62797" lon="11.489345"><ele>125.28571428571429</ele><time>2026-04-17T16:22:09.23Z</time></trkpt><trkpt lat="43.62799" lon="11.4894333"><ele>125.14285714285714</ele><time>2026-04-17T16:22:10.231Z</time></trkpt><trkpt lat="43.6280133" lon="11.4895267"><ele>125.0</ele><time>2026-04-17T16:22:11.231Z</time></trkpt><trkpt lat="43.6280333" lon="11.48962"><ele>125.28571428571428</ele><time>2026-04-17T16:22:12.231Z</time></trkpt><trkpt lat="43.6280533" lon="11.4897117"><ele>125.57142857142858</ele><time>2026-04-17T16:22:13.231Z</time></trkpt><trkpt lat="43.628075" lon="11.489805"><ele>125.85714285714286</ele><time>2026-04-17T16:22:14.231Z</time></trkpt><trkpt lat="43.6281033" lon="11.4898917"><ele>126.14285714285714</ele><time>2026-04-17T16:22:15.231Z</time></trkpt><trkpt lat="43.6281383" lon="11.4899767"><ele>126.42857142857142</ele><time>2026-04-17T16:22:16.231Z</time></trkpt><trkpt lat="43.62818" lon="11.49006"><ele>126.71428571428572</ele><time>2026-04-17T16:22:17.229Z</time></trkpt><trkpt lat="43.6282283" lon="11.4901333"><ele>127.0</ele><time>2026-04-17T16:22:18.23Z</time></trkpt><trkpt lat="43.628285" lon="11.4901933"><ele>127.0</ele><time>2026-04-17T16:22:19.231Z</time></trkpt><trkpt lat="43.62834" lon="11.4902467"><ele>127.0</ele><time>2026-04-17T16:22:20.231Z</time></trkpt><trkpt lat="43.6284" lon="11.490295"><ele>127.0</ele><time>2026-04-17T16:22:21.232Z</time></trkpt><trkpt lat="43.6284667" lon="11.4903383"><ele>127.0</ele><time>2026-04-17T16:22:22.231Z</time></trkpt><trkpt lat="43.628535" lon="11.4903717"><ele>127.0</ele><time>2026-04-17T16:22:23.231Z</time></trkpt><trkpt lat="43.6286017" lon="11.49039"><ele>127.0</ele><time>2026-04-17T16:22:24.231Z</time></trkpt><trkpt lat="43.62867" lon="11.4904067"><ele>127.0</ele><time>2026-04-17T16:22:25.23Z</time></trkpt><trkpt lat="43.6287417" lon="11.4904217"><ele>127.14285714285714</ele><time>2026-04-17T16:22:26.231Z</time></trkpt><trkpt lat="43.6288117" lon="11.49044"><ele>127.28571428571428</ele><time>2026-04-17T16:22:27.23Z</time></trkpt><trkpt lat="43.6288833" lon="11.4904567"><ele>127.42857142857142</ele><time>2026-04-17T16:22:28.231Z</time></trkpt><trkpt lat="43.62895" lon="11.4904717"><ele>127.57142857142857</ele><time>2026-04-17T16:22:29.231Z</time></trkpt><trkpt lat="43.6290183" lon="11.49048"><ele>127.7142857142857</ele><time>2026-04-17T16:22:30.23Z</time></trkpt><trkpt lat="43.6290883" lon="11.4904933"><ele>127.85714285714285</ele><time>2026-04-17T16:22:31.231Z</time></trkpt><trkpt lat="43.6291567" lon="11.4905033"><ele>128.0</ele><time>2026-04-17T16:22:32.23Z</time></trkpt><trkpt lat="43.6292267" lon="11.49052"><ele>128.0</ele><time>2026-04-17T16:22:33.23Z</time></trkpt><trkpt lat="43.6292983" lon="11.4905417"><ele>127.99999999999999</ele><time>2026-04-17T16:22:34.229Z</time></trkpt><trkpt lat="43.6293733" lon="11.4905583"><ele>128.0</ele><time>2026-04-17T16:22:35.231Z</time></trkpt><trkpt lat="43.629445" lon="11.4905717"><ele>128.0</ele><time>2026-04-17T16:22:36.232Z</time></trkpt><trkpt lat="43.6295183" lon="11.4905817"><ele>127.99999999999999</ele><time>2026-04-17T16:22:37.23Z</time></trkpt><trkpt lat="43.6295933" lon="11.4906"><ele>128.0</ele><time>2026-04-17T16:22:38.23Z</time></trkpt><trkpt lat="43.6296683" lon="11.4906167"><ele>128.0</ele><time>2026-04-17T16:22:39.23Z</time></trkpt><trkpt lat="43.62974" lon="11.4906317"><ele>128.16666666666666</ele><time>2026-04-17T16:22:40.232Z</time></trkpt><trkpt lat="43.629815" lon="11.49065"><ele>128.33333333333331</ele><time>2026-04-17T16:22:41.229Z</time></trkpt><trkpt lat="43.6298867" lon="11.49067"><ele>128.5</ele><time>2026-04-17T16:22:42.232Z</time></trkpt><trkpt lat="43.6299617" lon="11.4906917"><ele>128.66666666666666</ele><time>2026-04-17T16:22:43.233Z</time></trkpt><trkpt lat="43.630035" lon="11.4907167"><ele>128.83333333333334</ele><time>2026-04-17T16:22:44.23Z</time></trkpt><trkpt lat="43.63011" lon="11.4907467"><ele>129.0</ele><time>2026-04-17T16:22:45.23Z</time></trkpt><trkpt lat="43.6301783" lon="11.490775"><ele>128.99999999999997</ele><time>2026-04-17T16:22:46.23Z</time></trkpt><trkpt lat="43.630245" lon="11.4908083"><ele>129.0</ele><time>2026-04-17T16:22:47.233Z</time></trkpt><trkpt lat="43.63031" lon="11.49084"><ele>129.0</ele><time>2026-04-17T16:22:48.23Z</time></trkpt><trkpt lat="43.6303767" lon="11.4908767"><ele>129.0</ele><time>2026-04-17T16:22:49.231Z</time></trkpt><trkpt lat="43.630445" lon="11.4909133"><ele>129.0</ele><time>2026-04-17T16:22:50.23Z</time></trkpt><trkpt lat="43.6305133" lon="11.4909517"><ele>128.99999999999997</ele><time>2026-04-17T16:22:51.229Z</time></trkpt><trkpt lat="43.63058" lon="11.4909867"><ele>129.0</ele><time>2026-04-17T16:22:52.23Z</time></trkpt><trkpt lat="43.6306483" lon="11.491025"><ele>128.85714285714283</ele><time>2026-04-17T16:22:53.233Z</time></trkpt><trkpt lat="43.630715" lon="11.4910633"><ele>128.71428571428572</ele><time>2026-04-17T16:22:54.231Z</time></trkpt><trkpt lat="43.6307833" lon="11.4911033"><ele>128.57142857142856</ele><time>2026-04-17T16:22:55.231Z</time></trkpt><trkpt lat="43.6308483" lon="11.4911433"><ele>128.42857142857142</ele><time>2026-04-17T16:22:56.232Z</time></trkpt><trkpt lat="43.63091" lon="11.4911867"><ele>128.28571428571428</ele><time>2026-04-17T16:22:57.23Z</time></trkpt><trkpt lat="43.6309733" lon="11.4912283"><ele>128.14285714285714</ele><time>2026-04-17T16:22:58.23Z</time></trkpt><trkpt lat="43.6310333" lon="11.4912717"><ele>128.0</ele><time>2026-04-17T16:22:59.232Z</time></trkpt><trkpt lat="43.6310917" lon="11.4913233"><ele>128.57142857142856</ele><time>2026-04-17T16:23:00.233Z</time></trkpt><trkpt lat="43.63115" lon="11.4913733"><ele>129.14285714285714</ele><time>2026-04-17T16:23:01.23Z</time></trkpt><trkpt lat="43.6312083" lon="11.491425"><ele>129.71428571428572</ele><time>2026-04-17T16:23:02.231Z</time></trkpt><trkpt lat="43.631265" lon="11.4914767"><ele>130.28571428571428</ele><time>2026-04-17T16:23:03.231Z</time></trkpt><trkpt lat="43.6313217" lon="11.49154"><ele>130.85714285714286</ele><time>2026-04-17T16:23:04.233Z</time></trkpt><trkpt lat="43.6313817" lon="11.4916117"><ele>131.42857142857142</ele><time>2026-04-17T16:23:05.23Z</time></trkpt><trkpt lat="43.631445" lon="11.491695"><ele>132.0</ele><time>2026-04-17T16:23:06.231Z</time></trkpt><trkpt lat="43.6315033" lon="11.4917683"><ele>132.0</ele><time>2026-04-17T16:23:07.23Z</time></trkpt><trkpt lat="43.6315617" lon="11.4918367"><ele>132.0</ele><time>2026-04-17T16:23:08.23Z</time></trkpt><trkpt lat="43.6316167" lon="11.491895"><ele>132.0</ele><time>2026-04-17T16:23:09.23Z</time></trkpt><trkpt lat="43.6316717" lon="11.4919567"><ele>132.0</ele><time>2026-04-17T16:23:10.23Z</time></trkpt><trkpt lat="43.6317267" lon="11.4920183"><ele>132.0</ele><time>2026-04-17T16:23:11.231Z</time></trkpt><trkpt lat="43.6317817" lon="11.4920783"><ele>132.0</ele><time>2026-04-17T16:23:12.23Z</time></trkpt><trkpt lat="43.6318367" lon="11.49214"><ele>132.0</ele><time>2026-04-17T16:23:13.23Z</time></trkpt><trkpt lat="43.6318917" lon="11.492205"><ele>131.85714285714286</ele><time>2026-04-17T16:23:14.232Z</time></trkpt><trkpt lat="43.6319467" lon="11.4922683"><ele>131.71428571428572</ele><time>2026-04-17T16:23:15.231Z</time></trkpt><trkpt lat="43.632" lon="11.4923333"><ele>131.57142857142858</ele><time>2026-04-17T16:23:16.23Z</time></trkpt><trkpt lat="43.6320533" lon="11.4923983"><ele>131.42857142857144</ele><time>2026-04-17T16:23:17.23Z</time></trkpt><trkpt lat="43.6321083" lon="11.4924617"><ele>131.2857142857143</ele><time>2026-04-17T16:23:18.232Z</time></trkpt><trkpt lat="43.63216" lon="11.4925267"><ele>131.14285714285714</ele><time>2026-04-17T16:23:19.229Z</time></trkpt><trkpt lat="43.6322117" lon="11.492595"><ele>131.0</ele><time>2026-04-17T16:23:20.233Z</time></trkpt><trkpt lat="43.63226" lon="11.4926667"><ele>131.42857142857144</ele><time>2026-04-17T16:23:21.231Z</time></trkpt><trkpt lat="43.63231" lon="11.4927417"><ele>131.85714285714286</ele><time>2026-04-17T16:23:22.231Z</time></trkpt><trkpt lat="43.6323583" lon="11.49282"><ele>132.28571428571428</ele><time>2026-04-17T16:23:23.231Z</time></trkpt><trkpt lat="43.632405" lon="11.4928933"><ele>132.71428571428572</ele><time>2026-04-17T16:23:24.23Z</time></trkpt><trkpt lat="43.6324517" lon="11.4929683"><ele>133.14285714285714</ele><time>2026-04-17T16:23:25.232Z</time></trkpt><trkpt lat="43.632495" lon="11.493045"><ele>133.57142857142858</ele><time>2026-04-17T16:23:26.231Z</time></trkpt><trkpt lat="43.6325383" lon="11.4931267"><ele>134.0</ele><time>2026-04-17T16:23:27.231Z</time></trkpt><trkpt lat="43.6325783" lon="11.4932083"><ele>134.0</ele><time>2026-04-17T16:23:28.229Z</time></trkpt><trkpt lat="43.6326167" lon="11.493295"><ele>134.0</ele><time>2026-04-17T16:23:29.232Z</time></trkpt><trkpt lat="43.6326517" lon="11.49338"><ele>134.0</ele><time>2026-04-17T16:23:30.231Z</time></trkpt><trkpt lat="43.6326867" lon="11.493465"><ele>134.0</ele><time>2026-04-17T16:23:31.23Z</time></trkpt><trkpt lat="43.63272" lon="11.49355"><ele>134.0</ele><time>2026-04-17T16:23:32.231Z</time></trkpt><trkpt lat="43.6327517" lon="11.4936367"><ele>134.0</ele><time>2026-04-17T16:23:33.232Z</time></trkpt><trkpt lat="43.632785" lon="11.493725"><ele>134.0</ele><time>2026-04-17T16:23:34.229Z</time></trkpt><trkpt lat="43.6328133" lon="11.4938167"><ele>134.42857142857144</ele><time>2026-04-17T16:23:35.232Z</time></trkpt><trkpt lat="43.63284" lon="11.493905"><ele>134.85714285714286</ele><time>2026-04-17T16:23:36.231Z</time></trkpt><trkpt lat="43.6328683" lon="11.4939967"><ele>135.28571428571428</ele><time>2026-04-17T16:23:37.232Z</time></trkpt><trkpt lat="43.632895" lon="11.4940933"><ele>135.71428571428572</ele><time>2026-04-17T16:23:38.232Z</time></trkpt><trkpt lat="43.6329183" lon="11.49419"><ele>136.14285714285714</ele><time>2026-04-17T16:23:39.231Z</time></trkpt><trkpt lat="43.6329383" lon="11.494285"><ele>136.57142857142858</ele><time>2026-04-17T16:23:40.23Z</time></trkpt><trkpt lat="43.6329567" lon="11.4943783"><ele>137.0</ele><time>2026-04-17T16:23:41.233Z</time></trkpt><trkpt lat="43.6329733" lon="11.4944683"><ele>137.00000000000003</ele><time>2026-04-17T16:23:42.232Z</time></trkpt><trkpt lat="43.63299" lon="11.4945617"><ele>137.0</ele><time>2026-04-17T16:23:43.23Z</time></trkpt><trkpt lat="43.6330083" lon="11.4946583"><ele>137.0</ele><time>2026-04-17T16:23:44.232Z</time></trkpt><trkpt lat="43.6330267" lon="11.4947567"><ele>137.0</ele><time>2026-04-17T16:23:45.231Z</time></trkpt><trkpt lat="43.6330467" lon="11.4948517"><ele>137.0</ele><time>2026-04-17T16:23:46.232Z</time></trkpt><trkpt lat="43.633065" lon="11.4949483"><ele>137.00000000000003</ele><time>2026-04-17T16:23:47.233Z</time></trkpt><trkpt lat="43.63308" lon="11.49504"><ele>137.0</ele><time>2026-04-17T16:23:48.231Z</time></trkpt><trkpt lat="43.633095" lon="11.4951333"><ele>136.71428571428572</ele><time>2026-04-17T16:23:49.231Z</time></trkpt><trkpt lat="43.6331117" lon="11.4952267"><ele>136.42857142857144</ele><time>2026-04-17T16:23:50.232Z</time></trkpt><trkpt lat="43.633125" lon="11.4953167"><ele>136.14285714285714</ele><time>2026-04-17T16:23:51.229Z</time></trkpt><trkpt lat="43.6331367" lon="11.495405"><ele>135.85714285714286</ele><time>2026-04-17T16:23:52.228Z</time></trkpt><trkpt lat="43.6331517" lon="11.4954967"><ele>135.57142857142856</ele><time>2026-04-17T16:23:53.23Z</time></trkpt><trkpt lat="43.63317" lon="11.4955833"><ele>135.28571428571428</ele><time>2026-04-17T16:23:54.229Z</time></trkpt><trkpt lat="43.6331933" lon="11.4956733"><ele>135.0</ele><time>2026-04-17T16:23:55.228Z</time></trkpt><trkpt lat="43.6332217" lon="11.4957633"><ele>134.85714285714286</ele><time>2026-04-17T16:23:56.23Z</time></trkpt><trkpt lat="43.63325" lon="11.4958433"><ele>134.7142857142857</ele><time>2026-04-17T16:23:57.228Z</time></trkpt><trkpt lat="43.6332833" lon="11.4959267"><ele>134.57142857142856</ele><time>2026-04-17T16:23:58.229Z</time></trkpt><trkpt lat="43.633315" lon="11.4960033"><ele>134.42857142857142</ele><time>2026-04-17T16:23:59.229Z</time></trkpt><trkpt lat="43.63335" lon="11.4960867"><ele>134.28571428571428</ele><time>2026-04-17T16:24:00.231Z</time></trkpt><trkpt lat="43.6333867" lon="11.4961617"><ele>134.14285714285714</ele><time>2026-04-17T16:24:01.229Z</time></trkpt><trkpt lat="43.6334233" lon="11.4962417"><ele>134.0</ele><time>2026-04-17T16:24:02.23Z</time></trkpt><trkpt lat="43.63346" lon="11.4963283"><ele>134.0</ele><time>2026-04-17T16:24:03.229Z</time></trkpt><trkpt lat="43.6334967" lon="11.4964067"><ele>134.0</ele><time>2026-04-17T16:24:04.229Z</time></trkpt><trkpt lat="43.6335367" lon="11.4964833"><ele>134.0</ele><time>2026-04-17T16:24:05.23Z</time></trkpt><trkpt lat="43.6335683" lon="11.4965733"><ele>134.0</ele><time>2026-04-17T16:24:06.229Z</time></trkpt><trkpt lat="43.6336067" lon="11.4966633"><ele>134.0</ele><time>2026-04-17T16:24:07.229Z</time></trkpt><trkpt lat="43.6336433" lon="11.4967517"><ele>134.0</ele><time>2026-04-17T16:24:08.229Z</time></trkpt><trkpt lat="43.63368" lon="11.4968433"><ele>134.0</ele><time>2026-04-17T16:24:09.231Z</time></trkpt><trkpt lat="43.6337167" lon="11.496935"><ele>134.28571428571428</ele><time>2026-04-17T16:24:10.233Z</time></trkpt><trkpt lat="43.6337583" lon="11.4970217"><ele>134.57142857142856</ele><time>2026-04-17T16:24:11.23Z</time></trkpt><trkpt lat="43.6338" lon="11.4971067"><ele>134.85714285714283</ele><time>2026-04-17T16:24:12.23Z</time></trkpt><trkpt lat="43.63384" lon="11.49719"><ele>135.14285714285714</ele><time>2026-04-17T16:24:13.231Z</time></trkpt><trkpt lat="43.6338817" lon="11.4972683"><ele>135.42857142857142</ele><time>2026-04-17T16:24:14.232Z</time></trkpt><trkpt lat="43.6339217" lon="11.4973433"><ele>135.7142857142857</ele><time>2026-04-17T16:24:15.232Z</time></trkpt><trkpt lat="43.6339617" lon="11.49742"><ele>136.0</ele><time>2026-04-17T16:24:16.23Z</time></trkpt><trkpt lat="43.6340417" lon="11.4975567"><ele>136.0</ele><time>2026-04-17T16:24:18.23Z</time></trkpt><trkpt lat="43.634115" lon="11.4976867"><ele>136.0</ele><time>2026-04-17T16:24:20.232Z</time></trkpt><trkpt lat="43.6341883" lon="11.49782"><ele>136.0</ele><time>2026-04-17T16:24:22.231Z</time></trkpt><trkpt lat="43.634265" lon="11.4979517"><ele>136.0</ele><time>2026-04-17T16:24:24.23Z</time></trkpt><trkpt lat="43.6343417" lon="11.498085"><ele>136.16666666666669</ele><time>2026-04-17T16:24:26.232Z</time></trkpt><trkpt lat="43.63442" lon="11.4982183"><ele>136.33333333333334</ele><time>2026-04-17T16:24:28.231Z</time></trkpt><trkpt lat="43.6344617" lon="11.49829"><ele>136.5</ele><time>2026-04-17T16:24:29.233Z</time></trkpt><trkpt lat="43.6345033" lon="11.4983633"><ele>136.66666666666666</ele><time>2026-04-17T16:24:30.233Z</time></trkpt><trkpt lat="43.6345433" lon="11.4984367"><ele>136.83333333333331</ele><time>2026-04-17T16:24:31.233Z</time></trkpt><trkpt lat="43.6345833" lon="11.4985117"><ele>137.0</ele><time>2026-04-17T16:24:32.233Z</time></trkpt><trkpt lat="43.6346217" lon="11.4985833"><ele>137.14285714285717</ele><time>2026-04-17T16:24:33.232Z</time></trkpt><trkpt lat="43.634665" lon="11.4986617"><ele>137.28571428571428</ele><time>2026-04-17T16:24:34.233Z</time></trkpt><trkpt lat="43.63471" lon="11.4987417"><ele>137.42857142857144</ele><time>2026-04-17T16:24:35.234Z</time></trkpt><trkpt lat="43.634755" lon="11.4988167"><ele>137.57142857142858</ele><time>2026-04-17T16:24:36.231Z</time></trkpt><trkpt lat="43.6348" lon="11.4988933"><ele>137.71428571428572</ele><time>2026-04-17T16:24:37.231Z</time></trkpt><trkpt lat="43.6348433" lon="11.49897"><ele>137.85714285714286</ele><time>2026-04-17T16:24:38.232Z</time></trkpt><trkpt lat="43.6348867" lon="11.4990433"><ele>138.0</ele><time>2026-04-17T16:24:39.232Z</time></trkpt><trkpt lat="43.63493" lon="11.4991167"><ele>138.0</ele><time>2026-04-17T16:24:40.23Z</time></trkpt><trkpt lat="43.6349733" lon="11.4991833"><ele>138.0</ele><time>2026-04-17T16:24:41.233Z</time></trkpt><trkpt lat="43.6350167" lon="11.4992483"><ele>138.0</ele><time>2026-04-17T16:24:42.231Z</time></trkpt><trkpt lat="43.6350633" lon="11.4993133"><ele>138.0</ele><time>2026-04-17T16:24:43.23Z</time></trkpt><trkpt lat="43.635115" lon="11.4993733"><ele>138.0</ele><time>2026-04-17T16:24:44.231Z</time></trkpt><trkpt lat="43.635165" lon="11.49943"><ele>138.0</ele><time>2026-04-17T16:24:45.232Z</time></trkpt><trkpt lat="43.6352167" lon="11.49948"><ele>138.0</ele><time>2026-04-17T16:24:46.231Z</time></trkpt><trkpt lat="43.635275" lon="11.4995233"><ele>138.28571428571428</ele><time>2026-04-17T16:24:47.232Z</time></trkpt><trkpt lat="43.635335" lon="11.499565"><ele>138.57142857142858</ele><time>2026-04-17T16:24:48.231Z</time></trkpt><trkpt lat="43.635395" lon="11.4996083"><ele>138.85714285714286</ele><time>2026-04-17T16:24:49.231Z</time></trkpt><trkpt lat="43.6354567" lon="11.4996467"><ele>139.14285714285714</ele><time>2026-04-17T16:24:50.232Z</time></trkpt><trkpt lat="43.6355183" lon="11.4996817"><ele>139.42857142857144</ele><time>2026-04-17T16:24:51.232Z</time></trkpt><trkpt lat="43.63558" lon="11.499715"><ele>139.71428571428572</ele><time>2026-04-17T16:24:52.229Z</time></trkpt><trkpt lat="43.63564" lon="11.4997467"><ele>140.0</ele><time>2026-04-17T16:24:53.231Z</time></trkpt><trkpt lat="43.6357017" lon="11.4997833"><ele>139.42857142857142</ele><time>2026-04-17T16:24:54.23Z</time></trkpt><trkpt lat="43.635765" lon="11.4998183"><ele>138.85714285714286</ele><time>2026-04-17T16:24:55.231Z</time></trkpt><trkpt lat="43.6358283" lon="11.4998533"><ele>138.28571428571428</ele><time>2026-04-17T16:24:56.234Z</time></trkpt><trkpt lat="43.6358883" lon="11.4998883"><ele>137.71428571428572</ele><time>2026-04-17T16:24:57.232Z</time></trkpt><trkpt lat="43.6359517" lon="11.4999267"><ele>137.14285714285714</ele><time>2026-04-17T16:24:58.233Z</time></trkpt><trkpt lat="43.6360117" lon="11.4999633"><ele>136.57142857142856</ele><time>2026-04-17T16:24:59.232Z</time></trkpt><trkpt lat="43.63607" lon="11.5000017"><ele>136.0</ele><time>2026-04-17T16:25:00.232Z</time></trkpt><trkpt lat="43.6361317" lon="11.5000383"><ele>136.42857142857142</ele><time>2026-04-17T16:25:01.23Z</time></trkpt><trkpt lat="43.636195" lon="11.500075"><ele>136.85714285714286</ele><time>2026-04-17T16:25:02.233Z</time></trkpt><trkpt lat="43.6362533" lon="11.5001183"><ele>137.28571428571428</ele><time>2026-04-17T16:25:03.232Z</time></trkpt><trkpt lat="43.6363117" lon="11.50016"><ele>137.71428571428572</ele><time>2026-04-17T16:25:04.232Z</time></trkpt><trkpt lat="43.63637" lon="11.500205"><ele>138.14285714285714</ele><time>2026-04-17T16:25:05.232Z</time></trkpt><trkpt lat="43.6364283" lon="11.5002567"><ele>138.57142857142856</ele><time>2026-04-17T16:25:06.234Z</time></trkpt><trkpt lat="43.6364833" lon="11.5003117"><ele>139.0</ele><time>2026-04-17T16:25:07.232Z</time></trkpt><trkpt lat="43.6365383" lon="11.500365"><ele>138.83333333333334</ele><time>2026-04-17T16:25:08.231Z</time></trkpt><trkpt lat="43.6365967" lon="11.5004233"><ele>138.66666666666669</ele><time>2026-04-17T16:25:09.232Z</time></trkpt><trkpt lat="43.63665" lon="11.5004867"><ele>138.5</ele><time>2026-04-17T16:25:10.232Z</time></trkpt><trkpt lat="43.6367017" lon="11.5005483"><ele>138.33333333333334</ele><time>2026-04-17T16:25:11.232Z</time></trkpt><trkpt lat="43.63675" lon="11.50061"><ele>138.16666666666666</ele><time>2026-04-17T16:25:12.231Z</time></trkpt><trkpt lat="43.636835" lon="11.500735"><ele>138.0</ele><time>2026-04-17T16:25:14.234Z</time></trkpt><trkpt lat="43.6368767" lon="11.5008067"><ele>138.0</ele><time>2026-04-17T16:25:15.232Z</time></trkpt><trkpt lat="43.6369167" lon="11.5008767"><ele>138.0</ele><time>2026-04-17T16:25:16.231Z</time></trkpt><trkpt lat="43.6369583" lon="11.5009533"><ele>138.0</ele><time>2026-04-17T16:25:17.232Z</time></trkpt><trkpt lat="43.6369967" lon="11.501025"><ele>138.0</ele><time>2026-04-17T16:25:18.233Z</time></trkpt><trkpt lat="43.637035" lon="11.5011017"><ele>138.0</ele><time>2026-04-17T16:25:19.231Z</time></trkpt><trkpt lat="43.6370783" lon="11.50118"><ele>138.0</ele><time>2026-04-17T16:25:20.231Z</time></trkpt><trkpt lat="43.63712" lon="11.5012567"><ele>138.0</ele><time>2026-04-17T16:25:21.231Z</time></trkpt><trkpt lat="43.63716" lon="11.50133"><ele>138.33333333333334</ele><time>2026-04-17T16:25:22.231Z</time></trkpt><trkpt lat="43.6372" lon="11.5014033"><ele>138.66666666666666</ele><time>2026-04-17T16:25:23.23Z</time></trkpt><trkpt lat="43.6372383" lon="11.5014767"><ele>139.0</ele><time>2026-04-17T16:25:24.232Z</time></trkpt><trkpt lat="43.6373133" lon="11.50161"><ele>139.33333333333331</ele><time>2026-04-17T16:25:26.232Z</time></trkpt><trkpt lat="43.6373967" lon="11.501725"><ele>139.66666666666666</ele><time>2026-04-17T16:25:28.231Z</time></trkpt><trkpt lat="43.637445" lon="11.5017833"><ele>140.0</ele><time>2026-04-17T16:25:29.231Z</time></trkpt><trkpt lat="43.6375317" lon="11.5018983"><ele>140.0</ele><time>2026-04-17T16:25:31.232Z</time></trkpt><trkpt lat="43.637595" lon="11.5020183"><ele>140.0</ele><time>2026-04-17T16:25:33.229Z</time></trkpt><trkpt lat="43.6376167" lon="11.5021667"><ele>140.0</ele><time>2026-04-17T16:25:35.231Z</time></trkpt><trkpt lat="43.637615" lon="11.502255"><ele>140.0</ele><time>2026-04-17T16:25:36.233Z</time></trkpt><trkpt lat="43.6376217" lon="11.5023517"><ele>140.0</ele><time>2026-04-17T16:25:37.233Z</time></trkpt><trkpt lat="43.6376483" lon="11.50245"><ele>140.0</ele><time>2026-04-17T16:25:38.233Z</time></trkpt><trkpt lat="43.637695" lon="11.5025433"><ele>140.16666666666666</ele><time>2026-04-17T16:25:39.234Z</time></trkpt><trkpt lat="43.63775" lon="11.50264"><ele>140.33333333333331</ele><time>2026-04-17T16:25:40.233Z</time></trkpt><trkpt lat="43.6377983" lon="11.5027383"><ele>140.5</ele><time>2026-04-17T16:25:41.231Z</time></trkpt><trkpt lat="43.6378383" lon="11.50284"><ele>140.66666666666666</ele><time>2026-04-17T16:25:42.233Z</time></trkpt><trkpt lat="43.637875" lon="11.5029367"><ele>140.83333333333334</ele><time>2026-04-17T16:25:43.233Z</time></trkpt><trkpt lat="43.6379133" lon="11.5030233"><ele>141.0</ele><time>2026-04-17T16:25:44.234Z</time></trkpt><trkpt lat="43.6379517" lon="11.5031067"><ele>141.71428571428572</ele><time>2026-04-17T16:25:45.232Z</time></trkpt><trkpt lat="43.6379933" lon="11.503195"><ele>142.42857142857142</ele><time>2026-04-17T16:25:46.232Z</time></trkpt><trkpt lat="43.6380317" lon="11.50328"><ele>143.14285714285714</ele><time>2026-04-17T16:25:47.233Z</time></trkpt><trkpt lat="43.6380733" lon="11.50336"><ele>143.85714285714286</ele><time>2026-04-17T16:25:48.232Z</time></trkpt><trkpt lat="43.6381133" lon="11.50344"><ele>144.57142857142858</ele><time>2026-04-17T16:25:49.233Z</time></trkpt><trkpt lat="43.6381533" lon="11.5035183"><ele>145.28571428571428</ele><time>2026-04-17T16:25:50.231Z</time></trkpt><trkpt lat="43.638195" lon="11.5036133"><ele>146.0</ele><time>2026-04-17T16:25:51.231Z</time></trkpt><trkpt lat="43.6382333" lon="11.503695"><ele>145.8</ele><time>2026-04-17T16:25:52.232Z</time></trkpt><trkpt lat="43.6382717" lon="11.503765"><ele>145.6</ele><time>2026-04-17T16:25:53.23Z</time></trkpt><trkpt lat="43.6383467" lon="11.503905"><ele>145.4</ele><time>2026-04-17T16:25:55.231Z</time></trkpt><trkpt lat="43.63842" lon="11.5040467"><ele>145.2</ele><time>2026-04-17T16:25:57.231Z</time></trkpt><trkpt lat="43.6384933" lon="11.504185"><ele>145.0</ele><time>2026-04-17T16:25:59.233Z</time></trkpt><trkpt lat="43.63857" lon="11.5043217"><ele>145.0</ele><time>2026-04-17T16:26:01.234Z</time></trkpt><trkpt lat="43.6386083" lon="11.5043917"><ele>145.0</ele><time>2026-04-17T16:26:02.233Z</time></trkpt><trkpt lat="43.6386483" lon="11.5044667"><ele>145.0</ele><time>2026-04-17T16:26:03.233Z</time></trkpt><trkpt lat="43.6386883" lon="11.50454"><ele>145.0</ele><time>2026-04-17T16:26:04.232Z</time></trkpt><trkpt lat="43.6387283" lon="11.5046117"><ele>145.0</ele><time>2026-04-17T16:26:05.232Z</time></trkpt><trkpt lat="43.63877" lon="11.504685"><ele>145.0</ele><time>2026-04-17T16:26:06.233Z</time></trkpt><trkpt lat="43.63881" lon="11.50476"><ele>145.0</ele><time>2026-04-17T16:26:07.231Z</time></trkpt><trkpt lat="43.6388483" lon="11.5048333"><ele>145.28571428571428</ele><time>2026-04-17T16:26:08.233Z</time></trkpt><trkpt lat="43.63889" lon="11.50491"><ele>145.57142857142858</ele><time>2026-04-17T16:26:09.231Z</time></trkpt><trkpt lat="43.63893" lon="11.504985"><ele>145.85714285714286</ele><time>2026-04-17T16:26:10.234Z</time></trkpt><trkpt lat="43.6389717" lon="11.5050617"><ele>146.14285714285714</ele><time>2026-04-17T16:26:11.233Z</time></trkpt><trkpt lat="43.639015" lon="11.5051367"><ele>146.42857142857144</ele><time>2026-04-17T16:26:12.231Z</time></trkpt><trkpt lat="43.639055" lon="11.5052083"><ele>146.71428571428572</ele><time>2026-04-17T16:26:13.232Z</time></trkpt><trkpt lat="43.6390967" lon="11.5052817"><ele>147.0</ele><time>2026-04-17T16:26:14.23Z</time></trkpt><trkpt lat="43.6391367" lon="11.505355"><ele>146.85714285714286</ele><time>2026-04-17T16:26:15.232Z</time></trkpt><trkpt lat="43.6391767" lon="11.505425"><ele>146.71428571428572</ele><time>2026-04-17T16:26:16.232Z</time></trkpt><trkpt lat="43.639215" lon="11.5054983"><ele>146.57142857142856</ele><time>2026-04-17T16:26:17.231Z</time></trkpt><trkpt lat="43.639255" lon="11.50557"><ele>146.42857142857144</ele><time>2026-04-17T16:26:18.233Z</time></trkpt><trkpt lat="43.6392983" lon="11.5056417"><ele>146.28571428571428</ele><time>2026-04-17T16:26:19.232Z</time></trkpt><trkpt lat="43.6393417" lon="11.5057083"><ele>146.14285714285714</ele><time>2026-04-17T16:26:20.232Z</time></trkpt><trkpt lat="43.63939" lon="11.5057783"><ele>146.0</ele><time>2026-04-17T16:26:21.231Z</time></trkpt><trkpt lat="43.6394383" lon="11.50584"><ele>146.28571428571428</ele><time>2026-04-17T16:26:22.232Z</time></trkpt><trkpt lat="43.6394883" lon="11.5059033"><ele>146.57142857142858</ele><time>2026-04-17T16:26:23.232Z</time></trkpt><trkpt lat="43.6395383" lon="11.5059667"><ele>146.85714285714286</ele><time>2026-04-17T16:26:24.231Z</time></trkpt><trkpt lat="43.63959" lon="11.5060333"><ele>147.14285714285714</ele><time>2026-04-17T16:26:25.231Z</time></trkpt><trkpt lat="43.6396383" lon="11.506095"><ele>147.42857142857142</ele><time>2026-04-17T16:26:26.233Z</time></trkpt><trkpt lat="43.639685" lon="11.5061567"><ele>147.71428571428572</ele><time>2026-04-17T16:26:27.231Z</time></trkpt><trkpt lat="43.6397317" lon="11.50622"><ele>148.0</ele><time>2026-04-17T16:26:28.232Z</time></trkpt><trkpt lat="43.63978" lon="11.5062817"><ele>148.0</ele><time>2026-04-17T16:26:29.233Z</time></trkpt><trkpt lat="43.6398283" lon="11.506345"><ele>148.0</ele><time>2026-04-17T16:26:30.232Z</time></trkpt><trkpt lat="43.6398783" lon="11.5064083"><ele>148.0</ele><time>2026-04-17T16:26:31.23Z</time></trkpt><trkpt lat="43.6399267" lon="11.5064717"><ele>148.0</ele><time>2026-04-17T16:26:32.233Z</time></trkpt><trkpt lat="43.6399767" lon="11.506535"><ele>148.0</ele><time>2026-04-17T16:26:33.231Z</time></trkpt><trkpt lat="43.640025" lon="11.5065983"><ele>148.0</ele><time>2026-04-17T16:26:34.233Z</time></trkpt><trkpt lat="43.6400717" lon="11.5066617"><ele>148.0</ele><time>2026-04-17T16:26:35.231Z</time></trkpt><trkpt lat="43.6401183" lon="11.5067267"><ele>148.0</ele><time>2026-04-17T16:26:36.231Z</time></trkpt><trkpt lat="43.640165" lon="11.5067917"><ele>148.0</ele><time>2026-04-17T16:26:37.232Z</time></trkpt><trkpt lat="43.6402567" lon="11.5069117"><ele>148.0</ele><time>2026-04-17T16:26:39.232Z</time></trkpt><trkpt lat="43.64035" lon="11.5070333"><ele>148.0</ele><time>2026-04-17T16:26:41.23Z</time></trkpt><trkpt lat="43.6403983" lon="11.5070917"><ele>148.0</ele><time>2026-04-17T16:26:42.233Z</time></trkpt><trkpt lat="43.6404867" lon="11.5072117"><ele>148.6</ele><time>2026-04-17T16:26:44.234Z</time></trkpt><trkpt lat="43.6405783" lon="11.5073267"><ele>149.20000000000002</ele><time>2026-04-17T16:26:46.232Z</time></trkpt><trkpt lat="43.6406767" lon="11.5074367"><ele>149.8</ele><time>2026-04-17T16:26:48.231Z</time></trkpt><trkpt lat="43.6407333" lon="11.507495"><ele>150.4</ele><time>2026-04-17T16:26:49.231Z</time></trkpt><trkpt lat="43.6407967" lon="11.5075567"><ele>151.0</ele><time>2026-04-17T16:26:50.23Z</time></trkpt><trkpt lat="43.640865" lon="11.5076217"><ele>151.0</ele><time>2026-04-17T16:26:51.231Z</time></trkpt><trkpt lat="43.6409383" lon="11.5076817"><ele>151.0</ele><time>2026-04-17T16:26:52.231Z</time></trkpt><trkpt lat="43.6410117" lon="11.507725"><ele>151.0</ele><time>2026-04-17T16:26:53.232Z</time></trkpt><trkpt lat="43.64109" lon="11.5077667"><ele>151.0</ele><time>2026-04-17T16:26:54.23Z</time></trkpt><trkpt lat="43.6411667" lon="11.5078017"><ele>151.0</ele><time>2026-04-17T16:26:55.231Z</time></trkpt><trkpt lat="43.64124" lon="11.50784"><ele>151.0</ele><time>2026-04-17T16:26:56.232Z</time></trkpt><trkpt lat="43.6413117" lon="11.507875"><ele>151.14285714285717</ele><time>2026-04-17T16:26:57.23Z</time></trkpt><trkpt lat="43.6413817" lon="11.507915"><ele>151.28571428571428</ele><time>2026-04-17T16:26:58.229Z</time></trkpt><trkpt lat="43.64145" lon="11.5079467"><ele>151.42857142857144</ele><time>2026-04-17T16:26:59.231Z</time></trkpt><trkpt lat="43.6415217" lon="11.50798"><ele>151.57142857142858</ele><time>2026-04-17T16:27:00.229Z</time></trkpt><trkpt lat="43.6415883" lon="11.5080117"><ele>151.71428571428572</ele><time>2026-04-17T16:27:01.23Z</time></trkpt><trkpt lat="43.6416517" lon="11.5080467"><ele>151.85714285714286</ele><time>2026-04-17T16:27:02.232Z</time></trkpt><trkpt lat="43.6417183" lon="11.5080783"><ele>152.0</ele><time>2026-04-17T16:27:03.231Z</time></trkpt><trkpt lat="43.641785" lon="11.5081083"><ele>152.0</ele><time>2026-04-17T16:27:04.23Z</time></trkpt><trkpt lat="43.6418517" lon="11.50814"><ele>152.0</ele><time>2026-04-17T16:27:05.23Z</time></trkpt><trkpt lat="43.6419183" lon="11.5081683"><ele>152.0</ele><time>2026-04-17T16:27:06.23Z</time></trkpt><trkpt lat="43.641985" lon="11.5082"><ele>152.0</ele><time>2026-04-17T16:27:07.229Z</time></trkpt><trkpt lat="43.6420467" lon="11.5082383"><ele>152.0</ele><time>2026-04-17T16:27:08.231Z</time></trkpt><trkpt lat="43.64211" lon="11.5082767"><ele>152.0</ele><time>2026-04-17T16:27:09.231Z</time></trkpt><trkpt lat="43.642165" lon="11.50832"><ele>152.0</ele><time>2026-04-17T16:27:10.23Z</time></trkpt><trkpt lat="43.6422567" lon="11.50843"><ele>152.79999999999998</ele><time>2026-04-17T16:27:12.232Z</time></trkpt><trkpt lat="43.6423183" lon="11.508565"><ele>153.6</ele><time>2026-04-17T16:27:14.233Z</time></trkpt><trkpt lat="43.6423533" lon="11.5087017"><ele>154.39999999999998</ele><time>2026-04-17T16:27:16.231Z</time></trkpt><trkpt lat="43.6423867" lon="11.508825"><ele>155.2</ele><time>2026-04-17T16:27:18.231Z</time></trkpt><trkpt lat="43.6424133" lon="11.5089417"><ele>156.0</ele><time>2026-04-17T16:27:20.233Z</time></trkpt><trkpt lat="43.6424433" lon="11.5090633"><ele>156.0</ele><time>2026-04-17T16:27:22.231Z</time></trkpt><trkpt lat="43.642485" lon="11.509195"><ele>156.0</ele><time>2026-04-17T16:27:24.232Z</time></trkpt><trkpt lat="43.6425233" lon="11.5093317"><ele>156.0</ele><time>2026-04-17T16:27:26.232Z</time></trkpt><trkpt lat="43.6425633" lon="11.50947"><ele>156.0</ele><time>2026-04-17T16:27:28.231Z</time></trkpt><trkpt lat="43.6426033" lon="11.5096117"><ele>156.0</ele><time>2026-04-17T16:27:30.234Z</time></trkpt><trkpt lat="43.64264" lon="11.50975"><ele>156.2</ele><time>2026-04-17T16:27:32.233Z</time></trkpt><trkpt lat="43.642675" lon="11.5098917"><ele>156.39999999999998</ele><time>2026-04-17T16:27:34.231Z</time></trkpt><trkpt lat="43.64272" lon="11.5100283"><ele>156.6</ele><time>2026-04-17T16:27:36.233Z</time></trkpt><trkpt lat="43.6427817" lon="11.5101567"><ele>156.79999999999998</ele><time>2026-04-17T16:27:38.231Z</time></trkpt><trkpt lat="43.642845" lon="11.510265"><ele>157.0</ele><time>2026-04-17T16:27:40.232Z</time></trkpt><trkpt lat="43.6429083" lon="11.5103867"><ele>157.6</ele><time>2026-04-17T16:27:42.231Z</time></trkpt><trkpt lat="43.6429667" lon="11.5105267"><ele>158.2</ele><time>2026-04-17T16:27:44.231Z</time></trkpt><trkpt lat="43.64304" lon="11.510645"><ele>158.8</ele><time>2026-04-17T16:27:46.233Z</time></trkpt><trkpt lat="43.6431067" lon="11.5107617"><ele>159.4</ele><time>2026-04-17T16:27:48.232Z</time></trkpt><trkpt lat="43.64317" lon="11.5108817"><ele>160.0</ele><time>2026-04-17T16:27:50.232Z</time></trkpt><trkpt lat="43.6432333" lon="11.5109867"><ele>160.0</ele><time>2026-04-17T16:27:52.23Z</time></trkpt><trkpt lat="43.6432983" lon="11.51109"><ele>160.0</ele><time>2026-04-17T16:27:54.231Z</time></trkpt><trkpt lat="43.6433617" lon="11.51119"><ele>160.0</ele><time>2026-04-17T16:27:56.232Z</time></trkpt><trkpt lat="43.6434583" lon="11.5112567"><ele>160.0</ele><time>2026-04-17T16:27:58.232Z</time></trkpt><trkpt lat="43.6435567" lon="11.511315"><ele>160.0</ele><time>2026-04-17T16:28:00.231Z</time></trkpt><trkpt lat="43.6436517" lon="11.511375"><ele>160.5</ele><time>2026-04-17T16:28:02.231Z</time></trkpt><trkpt lat="43.64376" lon="11.5114333"><ele>161.0</ele><time>2026-04-17T16:28:04.231Z</time></trkpt><trkpt lat="43.643865" lon="11.5115"><ele>161.5</ele><time>2026-04-17T16:28:06.23Z</time></trkpt><trkpt lat="43.6439717" lon="11.5115633"><ele>162.0</ele><time>2026-04-17T16:28:08.232Z</time></trkpt><trkpt lat="43.64407" lon="11.5116467"><ele>162.0</ele><time>2026-04-17T16:28:10.23Z</time></trkpt><trkpt lat="43.6441583" lon="11.5117517"><ele>162.0</ele><time>2026-04-17T16:28:12.232Z</time></trkpt><trkpt lat="43.64424" lon="11.5118633"><ele>162.0</ele><time>2026-04-17T16:28:14.231Z</time></trkpt><trkpt lat="43.6443233" lon="11.5119783"><ele>162.0</ele><time>2026-04-17T16:28:16.229Z</time></trkpt><trkpt lat="43.644395" lon="11.5120983"><ele>162.39999999999998</ele><time>2026-04-17T16:28:18.232Z</time></trkpt><trkpt lat="43.6444633" lon="11.5122217"><ele>162.79999999999998</ele><time>2026-04-17T16:28:20.231Z</time></trkpt><trkpt lat="43.6445317" lon="11.5123467"><ele>163.2</ele><time>2026-04-17T16:28:22.232Z</time></trkpt><trkpt lat="43.6446017" lon="11.512465"><ele>163.6</ele><time>2026-04-17T16:28:24.229Z</time></trkpt><trkpt lat="43.6446667" lon="11.5125767"><ele>164.0</ele><time>2026-04-17T16:28:26.233Z</time></trkpt><trkpt lat="43.6447317" lon="11.5126917"><ele>164.0</ele><time>2026-04-17T16:28:28.23Z</time></trkpt><trkpt lat="43.6448" lon="11.5128233"><ele>164.0</ele><time>2026-04-17T16:28:30.233Z</time></trkpt><trkpt lat="43.6448633" lon="11.5129667"><ele>164.0</ele><time>2026-04-17T16:28:32.231Z</time></trkpt><trkpt lat="43.6449217" lon="11.513095"><ele>164.0</ele><time>2026-04-17T16:28:34.231Z</time></trkpt><trkpt lat="43.644975" lon="11.5132167"><ele>163.79999999999998</ele><time>2026-04-17T16:28:36.231Z</time></trkpt><trkpt lat="43.6450233" lon="11.5133383"><ele>163.6</ele><time>2026-04-17T16:28:38.231Z</time></trkpt><trkpt lat="43.6450667" lon="11.5134583"><ele>163.4</ele><time>2026-04-17T16:28:40.231Z</time></trkpt><trkpt lat="43.6451133" lon="11.5135783"><ele>163.2</ele><time>2026-04-17T16:28:42.231Z</time></trkpt><trkpt lat="43.6451617" lon="11.5137"><ele>163.0</ele><time>2026-04-17T16:28:44.231Z</time></trkpt><trkpt lat="43.6452233" lon="11.513805"><ele>163.0</ele><time>2026-04-17T16:28:46.231Z</time></trkpt><trkpt lat="43.6452917" lon="11.513885"><ele>163.0</ele><time>2026-04-17T16:28:48.233Z</time></trkpt><trkpt lat="43.6453567" lon="11.5139583"><ele>163.0</ele><time>2026-04-17T16:28:50.23Z</time></trkpt><trkpt lat="43.6454267" lon="11.514"><ele>163.0</ele><time>2026-04-17T16:28:52.231Z</time></trkpt><trkpt lat="43.6454967" lon="11.51403"><ele>163.0</ele><time>2026-04-17T16:28:54.232Z</time></trkpt><trkpt lat="43.6455833" lon="11.5140383"><ele>163.0</ele><time>2026-04-17T16:28:57.232Z</time></trkpt><trkpt lat="43.6456633" lon="11.51404"><ele>164.0</ele><time>2026-04-17T16:29:00.231Z</time></trkpt><trkpt lat="43.64574" lon="11.5140467"><ele>165.0</ele><time>2026-04-17T16:29:03.23Z</time></trkpt><trkpt lat="43.6458167" lon="11.5140517"><ele>166.0</ele><time>2026-04-17T16:29:06.231Z</time></trkpt><trkpt lat="43.6458833" lon="11.5140433"><ele>167.0</ele><time>2026-04-17T16:29:09.233Z</time></trkpt><trkpt lat="43.6459483" lon="11.5140483"><ele>168.0</ele><time>2026-04-17T16:29:12.232Z</time></trkpt><trkpt lat="43.6460133" lon="11.5140717"><ele>169.0</ele><time>2026-04-17T16:29:15.232Z</time></trkpt><trkpt lat="43.6460917" lon="11.5140867"><ele>170.0</ele><time>2026-04-17T16:29:18.234Z</time></trkpt><trkpt lat="43.6461783" lon="11.51412"><ele>171.0</ele><time>2026-04-17T16:29:21.231Z</time></trkpt><trkpt lat="43.6462617" lon="11.51416"><ele>172.0</ele><time>2026-04-17T16:29:24.232Z</time></trkpt><trkpt lat="43.6463183" lon="11.5142"><ele>173.0</ele><time>2026-04-17T16:29:26.232Z</time></trkpt><trkpt lat="43.6463767" lon="11.5142533"><ele>174.0</ele><time>2026-04-17T16:29:28.23Z</time></trkpt><trkpt lat="43.64643" lon="11.5143083"><ele>175.0</ele><time>2026-04-17T16:29:30.231Z</time></trkpt><trkpt lat="43.6462995" lon="11.5141912"><ele>176.0</ele><time>2026-04-17T16:29:31.136Z</time></trkpt><trkpt lat="43.6463805" lon="11.5142657"><ele>176.0</ele><time>2026-04-17T16:29:35.324Z</time></trkpt><trkpt lat="43.6464311" lon="11.5143263"><ele>176.0</ele><time>2026-04-17T16:29:36.252Z</time></trkpt><trkpt lat="43.6464796" lon="11.5143842"><ele>176.0</ele><time>2026-04-17T16:29:38.335Z</time></trkpt><trkpt lat="43.6465395" lon="11.5144409"><ele>176.0</ele><time>2026-04-17T16:29:40.305Z</time></trkpt><trkpt lat="43.646725" lon="11.5146333"><ele>176.0</ele><time>2026-04-17T16:29:42.229Z</time></trkpt><trkpt lat="43.64682" lon="11.51473"><ele>176.66666666666666</ele><time>2026-04-17T16:29:46.228Z</time></trkpt><trkpt lat="43.6468917" lon="11.5148117"><ele>177.33333333333331</ele><time>2026-04-17T16:29:49.231Z</time></trkpt><trkpt lat="43.6469317" lon="11.51489"><ele>178.0</ele><time>2026-04-17T16:29:51.231Z</time></trkpt><trkpt lat="43.647" lon="11.514965"><ele>178.66666666666666</ele><time>2026-04-17T16:29:54.23Z</time></trkpt><trkpt lat="43.6470617" lon="11.51499"><ele>179.33333333333334</ele><time>2026-04-17T16:29:56.231Z</time></trkpt><trkpt lat="43.6471183" lon="11.5150383"><ele>180.0</ele><time>2026-04-17T16:29:58.23Z</time></trkpt><trkpt lat="43.6471733" lon="11.5150983"><ele>180.28571428571428</ele><time>2026-04-17T16:30:00.23Z</time></trkpt><trkpt lat="43.6472333" lon="11.515155"><ele>180.57142857142858</ele><time>2026-04-17T16:30:02.231Z</time></trkpt><trkpt lat="43.6472933" lon="11.515215"><ele>180.85714285714286</ele><time>2026-04-17T16:30:04.231Z</time></trkpt><trkpt lat="43.6473583" lon="11.515275"><ele>181.14285714285714</ele><time>2026-04-17T16:30:06.23Z</time></trkpt><trkpt lat="43.6474167" lon="11.5153233"><ele>181.42857142857144</ele><time>2026-04-17T16:30:08.229Z</time></trkpt><trkpt lat="43.6474733" lon="11.5153867"><ele>181.71428571428572</ele><time>2026-04-17T16:30:10.229Z</time></trkpt><trkpt lat="43.6475267" lon="11.515455"><ele>182.0</ele><time>2026-04-17T16:30:12.229Z</time></trkpt><trkpt lat="43.64759" lon="11.5155233"><ele>182.5</ele><time>2026-04-17T16:30:14.229Z</time></trkpt><trkpt lat="43.64765" lon="11.5155867"><ele>183.0</ele><time>2026-04-17T16:30:16.23Z</time></trkpt><trkpt lat="43.6477083" lon="11.5156533"><ele>183.5</ele><time>2026-04-17T16:30:18.23Z</time></trkpt><trkpt lat="43.6477667" lon="11.5157167"><ele>184.0</ele><time>2026-04-17T16:30:20.231Z</time></trkpt><trkpt lat="43.6478283" lon="11.5157817"><ele>184.5</ele><time>2026-04-17T16:30:22.231Z</time></trkpt><trkpt lat="43.64789" lon="11.5158367"><ele>185.0</ele><time>2026-04-17T16:30:24.234Z</time></trkpt><trkpt lat="43.647955" lon="11.515885"><ele>185.66666666666666</ele><time>2026-04-17T16:30:26.232Z</time></trkpt><trkpt lat="43.64802" lon="11.5159417"><ele>186.33333333333331</ele><time>2026-04-17T16:30:28.23Z</time></trkpt><trkpt lat="43.648085" lon="11.5159883"><ele>187.0</ele><time>2026-04-17T16:30:30.231Z</time></trkpt><trkpt lat="43.64818" lon="11.5160667"><ele>187.66666666666666</ele><time>2026-04-17T16:30:33.231Z</time></trkpt><trkpt lat="43.6482383" lon="11.51613"><ele>188.33333333333334</ele><time>2026-04-17T16:30:35.233Z</time></trkpt><trkpt lat="43.6483067" lon="11.5161933"><ele>189.0</ele><time>2026-04-17T16:30:37.232Z</time></trkpt><trkpt lat="43.6483833" lon="11.5162433"><ele>189.2</ele><time>2026-04-17T16:30:39.23Z</time></trkpt><trkpt lat="43.6484617" lon="11.5162683"><ele>189.39999999999998</ele><time>2026-04-17T16:30:41.229Z</time></trkpt><trkpt lat="43.6485817" lon="11.5163433"><ele>189.6</ele><time>2026-04-17T16:30:44.231Z</time></trkpt><trkpt lat="43.6486617" lon="11.51639"><ele>189.8</ele><time>2026-04-17T16:30:46.23Z</time></trkpt><trkpt lat="43.6487433" lon="11.51643"><ele>190.0</ele><time>2026-04-17T16:30:48.231Z</time></trkpt><trkpt lat="43.6488183" lon="11.5164617"><ele>190.33333333333334</ele><time>2026-04-17T16:30:50.231Z</time></trkpt><trkpt lat="43.6489033" lon="11.5164867"><ele>190.66666666666669</ele><time>2026-04-17T16:30:52.233Z</time></trkpt><trkpt lat="43.64899" lon="11.5165033"><ele>191.0</ele><time>2026-04-17T16:30:54.232Z</time></trkpt><trkpt lat="43.6490733" lon="11.516505"><ele>191.33333333333334</ele><time>2026-04-17T16:30:56.232Z</time></trkpt><trkpt lat="43.6491567" lon="11.5165233"><ele>191.66666666666666</ele><time>2026-04-17T16:30:58.231Z</time></trkpt><trkpt lat="43.64924" lon="11.5165417"><ele>192.0</ele><time>2026-04-17T16:31:00.232Z</time></trkpt><trkpt lat="43.6493233" lon="11.516555"><ele>192.0</ele><time>2026-04-17T16:31:02.231Z</time></trkpt><trkpt lat="43.6494083" lon="11.5165683"><ele>192.0</ele><time>2026-04-17T16:31:04.23Z</time></trkpt><trkpt lat="43.6494917" lon="11.51659"><ele>192.0</ele><time>2026-04-17T16:31:06.233Z</time></trkpt><trkpt lat="43.6495717" lon="11.5166183"><ele>192.0</ele><time>2026-04-17T16:31:08.231Z</time></trkpt><trkpt lat="43.6496583" lon="11.516645"><ele>192.0</ele><time>2026-04-17T16:31:10.229Z</time></trkpt><trkpt lat="43.6497483" lon="11.5166683"><ele>192.0</ele><time>2026-04-17T16:31:12.232Z</time></trkpt><trkpt lat="43.64984" lon="11.5166933"><ele>192.0</ele><time>2026-04-17T16:31:14.23Z</time></trkpt><trkpt lat="43.649935" lon="11.516715"><ele>192.0</ele><time>2026-04-17T16:31:16.232Z</time></trkpt><trkpt lat="43.65003" lon="11.5167333"><ele>192.0</ele><time>2026-04-17T16:31:18.232Z</time></trkpt><trkpt lat="43.6501233" lon="11.51675"><ele>192.0</ele><time>2026-04-17T16:31:20.231Z</time></trkpt><trkpt lat="43.6502167" lon="11.5167717"><ele>192.0</ele><time>2026-04-17T16:31:22.231Z</time></trkpt><trkpt lat="43.6503117" lon="11.5167883"><ele>192.0</ele><time>2026-04-17T16:31:24.233Z</time></trkpt><trkpt lat="43.65041" lon="11.5168083"><ele>192.0</ele><time>2026-04-17T16:31:26.232Z</time></trkpt><trkpt lat="43.6505083" lon="11.5168283"><ele>192.0</ele><time>2026-04-17T16:31:28.23Z</time></trkpt><trkpt lat="43.6506033" lon="11.5168483"><ele>192.0</ele><time>2026-04-17T16:31:30.23Z</time></trkpt><trkpt lat="43.6506967" lon="11.51687"><ele>192.0</ele><time>2026-04-17T16:31:32.231Z</time></trkpt><trkpt lat="43.6507783" lon="11.5168917"><ele>192.0</ele><time>2026-04-17T16:31:34.229Z</time></trkpt><trkpt lat="43.6508667" lon="11.516915"><ele>192.0</ele><time>2026-04-17T16:31:36.228Z</time></trkpt><trkpt lat="43.651005" lon="11.5169533"><ele>192.0</ele><time>2026-04-17T16:31:39.231Z</time></trkpt><trkpt lat="43.6510917" lon="11.516985"><ele>192.0</ele><time>2026-04-17T16:31:41.23Z</time></trkpt><trkpt lat="43.6511733" lon="11.5170333"><ele>192.0</ele><time>2026-04-17T16:31:43.231Z</time></trkpt><trkpt lat="43.6512467" lon="11.5170717"><ele>192.83333333333334</ele><time>2026-04-17T16:31:45.231Z</time></trkpt><trkpt lat="43.6513217" lon="11.517115"><ele>193.66666666666669</ele><time>2026-04-17T16:31:47.229Z</time></trkpt><trkpt lat="43.6513933" lon="11.51716"><ele>194.5</ele><time>2026-04-17T16:31:49.232Z</time></trkpt><trkpt lat="43.6514683" lon="11.5172067"><ele>195.33333333333334</ele><time>2026-04-17T16:31:51.234Z</time></trkpt><trkpt lat="43.6515483" lon="11.5172533"><ele>196.16666666666669</ele><time>2026-04-17T16:31:53.232Z</time></trkpt><trkpt lat="43.6516217" lon="11.5173133"><ele>197.0</ele><time>2026-04-17T16:31:55.231Z</time></trkpt><trkpt lat="43.6516917" lon="11.51737"><ele>197.00000000000003</ele><time>2026-04-17T16:31:57.232Z</time></trkpt><trkpt lat="43.6517633" lon="11.5174267"><ele>197.0</ele><time>2026-04-17T16:31:59.23Z</time></trkpt><trkpt lat="43.6518283" lon="11.5174833"><ele>197.0</ele><time>2026-04-17T16:32:01.233Z</time></trkpt><trkpt lat="43.651905" lon="11.5175417"><ele>197.0</ele><time>2026-04-17T16:32:03.231Z</time></trkpt><trkpt lat="43.6519783" lon="11.5175967"><ele>197.00000000000003</ele><time>2026-04-17T16:32:05.231Z</time></trkpt><trkpt lat="43.6520517" lon="11.5176567"><ele>197.0</ele><time>2026-04-17T16:32:07.232Z</time></trkpt><trkpt lat="43.6521267" lon="11.517715"><ele>196.66666666666669</ele><time>2026-04-17T16:32:09.231Z</time></trkpt><trkpt lat="43.6521967" lon="11.517775"><ele>196.33333333333334</ele><time>2026-04-17T16:32:11.232Z</time></trkpt><trkpt lat="43.652275" lon="11.517835"><ele>196.0</ele><time>2026-04-17T16:32:13.233Z</time></trkpt><trkpt lat="43.6523533" lon="11.51789"><ele>195.66666666666669</ele><time>2026-04-17T16:32:15.233Z</time></trkpt><trkpt lat="43.65243" lon="11.517945"><ele>195.33333333333334</ele><time>2026-04-17T16:32:17.232Z</time></trkpt><trkpt lat="43.652505" lon="11.5180033"><ele>195.0</ele><time>2026-04-17T16:32:19.231Z</time></trkpt><trkpt lat="43.6525783" lon="11.5180583"><ele>195.66666666666666</ele><time>2026-04-17T16:32:21.232Z</time></trkpt><trkpt lat="43.65265" lon="11.5181183"><ele>196.33333333333331</ele><time>2026-04-17T16:32:23.231Z</time></trkpt><trkpt lat="43.652715" lon="11.5181783"><ele>197.0</ele><time>2026-04-17T16:32:25.233Z</time></trkpt><trkpt lat="43.6527783" lon="11.5182417"><ele>197.66666666666666</ele><time>2026-04-17T16:32:27.232Z</time></trkpt><trkpt lat="43.6528467" lon="11.5183067"><ele>198.33333333333331</ele><time>2026-04-17T16:32:29.231Z</time></trkpt><trkpt lat="43.6529117" lon="11.51837"><ele>199.0</ele><time>2026-04-17T16:32:31.232Z</time></trkpt><trkpt lat="43.6529667" lon="11.51844"><ele>198.99999999999997</ele><time>2026-04-17T16:32:33.232Z</time></trkpt><trkpt lat="43.65302" lon="11.5185167"><ele>199.0</ele><time>2026-04-17T16:32:35.231Z</time></trkpt><trkpt lat="43.6530733" lon="11.518595"><ele>199.0</ele><time>2026-04-17T16:32:37.231Z</time></trkpt><trkpt lat="43.6531283" lon="11.518675"><ele>199.0</ele><time>2026-04-17T16:32:39.233Z</time></trkpt><trkpt lat="43.653185" lon="11.51875"><ele>198.99999999999997</ele><time>2026-04-17T16:32:41.232Z</time></trkpt><trkpt lat="43.6532383" lon="11.5188317"><ele>199.0</ele><time>2026-04-17T16:32:43.232Z</time></trkpt><trkpt lat="43.6532967" lon="11.518915"><ele>200.16666666666666</ele><time>2026-04-17T16:32:45.232Z</time></trkpt><trkpt lat="43.653355" lon="11.51899"><ele>201.33333333333331</ele><time>2026-04-17T16:32:47.232Z</time></trkpt><trkpt lat="43.6534167" lon="11.519065"><ele>202.5</ele><time>2026-04-17T16:32:49.233Z</time></trkpt><trkpt lat="43.653475" lon="11.5191367"><ele>203.66666666666669</ele><time>2026-04-17T16:32:51.232Z</time></trkpt><trkpt lat="43.6535333" lon="11.5192067"><ele>204.83333333333334</ele><time>2026-04-17T16:32:53.231Z</time></trkpt><trkpt lat="43.6535967" lon="11.5192867"><ele>206.0</ele><time>2026-04-17T16:32:55.232Z</time></trkpt><trkpt lat="43.653655" lon="11.5193633"><ele>206.00000000000003</ele><time>2026-04-17T16:32:57.232Z</time></trkpt><trkpt lat="43.65371" lon="11.5194417"><ele>206.0</ele><time>2026-04-17T16:32:59.233Z</time></trkpt><trkpt lat="43.6537633" lon="11.519515"><ele>206.0</ele><time>2026-04-17T16:33:01.233Z</time></trkpt><trkpt lat="43.6538183" lon="11.5195883"><ele>206.0</ele><time>2026-04-17T16:33:03.234Z</time></trkpt><trkpt lat="43.6538733" lon="11.5196667"><ele>206.00000000000003</ele><time>2026-04-17T16:33:05.231Z</time></trkpt><trkpt lat="43.6539333" lon="11.5197517"><ele>206.0</ele><time>2026-04-17T16:33:07.231Z</time></trkpt><trkpt lat="43.653995" lon="11.5198283"><ele>207.33333333333334</ele><time>2026-04-17T16:33:09.232Z</time></trkpt><trkpt lat="43.6540533" lon="11.5199033"><ele>208.66666666666669</ele><time>2026-04-17T16:33:11.232Z</time></trkpt><trkpt lat="43.65412" lon="11.51997"><ele>210.0</ele><time>2026-04-17T16:33:13.232Z</time></trkpt><trkpt lat="43.6541933" lon="11.5200317"><ele>211.33333333333331</ele><time>2026-04-17T16:33:15.233Z</time></trkpt><trkpt lat="43.6542617" lon="11.52009"><ele>212.66666666666666</ele><time>2026-04-17T16:33:17.231Z</time></trkpt><trkpt lat="43.65433" lon="11.5201517"><ele>214.0</ele><time>2026-04-17T16:33:19.23Z</time></trkpt><trkpt lat="43.6544017" lon="11.5202067"><ele>214.66666666666666</ele><time>2026-04-17T16:33:21.233Z</time></trkpt><trkpt lat="43.6544667" lon="11.5202617"><ele>215.33333333333331</ele><time>2026-04-17T16:33:23.232Z</time></trkpt><trkpt lat="43.6545317" lon="11.5203217"><ele>216.0</ele><time>2026-04-17T16:33:25.232Z</time></trkpt><trkpt lat="43.6545983" lon="11.5203833"><ele>216.66666666666669</ele><time>2026-04-17T16:33:27.232Z</time></trkpt><trkpt lat="43.6546633" lon="11.5204417"><ele>217.33333333333334</ele><time>2026-04-17T16:33:29.232Z</time></trkpt><trkpt lat="43.6547267" lon="11.5204983"><ele>218.0</ele><time>2026-04-17T16:33:31.232Z</time></trkpt><trkpt lat="43.6547933" lon="11.5205483"><ele>218.00000000000003</ele><time>2026-04-17T16:33:33.231Z</time></trkpt><trkpt lat="43.6548617" lon="11.5206067"><ele>218.0</ele><time>2026-04-17T16:33:35.231Z</time></trkpt><trkpt lat="43.6549217" lon="11.52065"><ele>218.0</ele><time>2026-04-17T16:33:37.233Z</time></trkpt><trkpt lat="43.6549867" lon="11.5207117"><ele>218.0</ele><time>2026-04-17T16:33:39.231Z</time></trkpt><trkpt lat="43.65504" lon="11.5207617"><ele>218.00000000000003</ele><time>2026-04-17T16:33:41.233Z</time></trkpt><trkpt lat="43.6551133" lon="11.5208267"><ele>218.0</ele><time>2026-04-17T16:33:43.232Z</time></trkpt><trkpt lat="43.6551783" lon="11.5209033"><ele>218.00000000000003</ele><time>2026-04-17T16:33:45.233Z</time></trkpt><trkpt lat="43.65524" lon="11.5209967"><ele>218.0</ele><time>2026-04-17T16:33:47.232Z</time></trkpt><trkpt lat="43.65528" lon="11.521095"><ele>218.0</ele><time>2026-04-17T16:33:49.232Z</time></trkpt><trkpt lat="43.6553117" lon="11.521195"><ele>218.0</ele><time>2026-04-17T16:33:51.233Z</time></trkpt><trkpt lat="43.6553467" lon="11.5213017"><ele>218.00000000000003</ele><time>2026-04-17T16:33:53.233Z</time></trkpt><trkpt lat="43.65538" lon="11.521415"><ele>218.0</ele><time>2026-04-17T16:33:55.232Z</time></trkpt><trkpt lat="43.655415" lon="11.5215217"><ele>219.50000000000003</ele><time>2026-04-17T16:33:57.232Z</time></trkpt><trkpt lat="43.6554567" lon="11.5216333"><ele>221.0</ele><time>2026-04-17T16:33:59.231Z</time></trkpt><trkpt lat="43.6554883" lon="11.5217433"><ele>222.5</ele><time>2026-04-17T16:34:01.232Z</time></trkpt><trkpt lat="43.6555267" lon="11.5218367"><ele>224.0</ele><time>2026-04-17T16:34:03.234Z</time></trkpt><trkpt lat="43.6555667" lon="11.5219283"><ele>225.50000000000003</ele><time>2026-04-17T16:34:05.232Z</time></trkpt><trkpt lat="43.6556" lon="11.5220283"><ele>227.0</ele><time>2026-04-17T16:34:07.231Z</time></trkpt><trkpt lat="43.655635" lon="11.5221233"><ele>227.00000000000003</ele><time>2026-04-17T16:34:09.233Z</time></trkpt><trkpt lat="43.65567" lon="11.522215"><ele>227.0</ele><time>2026-04-17T16:34:11.233Z</time></trkpt><trkpt lat="43.65571" lon="11.5223067"><ele>227.0</ele><time>2026-04-17T16:34:13.233Z</time></trkpt><trkpt lat="43.6557467" lon="11.52241"><ele>227.0</ele><time>2026-04-17T16:34:15.231Z</time></trkpt><trkpt lat="43.6557833" lon="11.522515"><ele>227.00000000000003</ele><time>2026-04-17T16:34:17.232Z</time></trkpt><trkpt lat="43.6558233" lon="11.5226267"><ele>227.0</ele><time>2026-04-17T16:34:19.232Z</time></trkpt><trkpt lat="43.65586" lon="11.5227467"><ele>227.00000000000003</ele><time>2026-04-17T16:34:21.231Z</time></trkpt><trkpt lat="43.6558967" lon="11.5228617"><ele>227.0</ele><time>2026-04-17T16:34:23.232Z</time></trkpt><trkpt lat="43.6559333" lon="11.5229733"><ele>227.0</ele><time>2026-04-17T16:34:25.233Z</time></trkpt><trkpt lat="43.6559683" lon="11.523075"><ele>227.0</ele><time>2026-04-17T16:34:27.233Z</time></trkpt><trkpt lat="43.6560067" lon="11.5231833"><ele>227.00000000000003</ele><time>2026-04-17T16:34:29.231Z</time></trkpt><trkpt lat="43.65604" lon="11.52329"><ele>227.0</ele><time>2026-04-17T16:34:31.232Z</time></trkpt><trkpt lat="43.6560767" lon="11.5234033"><ele>227.00000000000003</ele><time>2026-04-17T16:34:33.229Z</time></trkpt><trkpt lat="43.6561133" lon="11.523515"><ele>227.0</ele><time>2026-04-17T16:34:35.229Z</time></trkpt><trkpt lat="43.6561483" lon="11.52361"><ele>227.0</ele><time>2026-04-17T16:34:37.232Z</time></trkpt><trkpt lat="43.6561783" lon="11.5237083"><ele>227.0</ele><time>2026-04-17T16:34:39.232Z</time></trkpt><trkpt lat="43.656215" lon="11.523795"><ele>227.00000000000003</ele><time>2026-04-17T16:34:41.23Z</time></trkpt><trkpt lat="43.6562533" lon="11.5238983"><ele>227.0</ele><time>2026-04-17T16:34:43.23Z</time></trkpt><trkpt lat="43.6562883" lon="11.52401"><ele>227.83333333333334</ele><time>2026-04-17T16:34:45.231Z</time></trkpt><trkpt lat="43.6563217" lon="11.5241133"><ele>228.66666666666669</ele><time>2026-04-17T16:34:47.229Z</time></trkpt><trkpt lat="43.6563567" lon="11.52421"><ele>229.5</ele><time>2026-04-17T16:34:49.232Z</time></trkpt><trkpt lat="43.6563983" lon="11.5242933"><ele>230.33333333333331</ele><time>2026-04-17T16:34:51.232Z</time></trkpt><trkpt lat="43.656435" lon="11.52438"><ele>231.16666666666666</ele><time>2026-04-17T16:34:53.233Z</time></trkpt><trkpt lat="43.65647" lon="11.5244783"><ele>232.0</ele><time>2026-04-17T16:34:55.231Z</time></trkpt><trkpt lat="43.656515" lon="11.5245883"><ele>234.00000000000003</ele><time>2026-04-17T16:34:58.232Z</time></trkpt><trkpt lat="43.6565583" lon="11.524655"><ele>236.0</ele><time>2026-04-17T16:35:00.231Z</time></trkpt><trkpt lat="43.6566067" lon="11.5247233"><ele>238.00000000000003</ele><time>2026-04-17T16:35:02.232Z</time></trkpt><trkpt lat="43.6566617" lon="11.5247767"><ele>240.00000000000003</ele><time>2026-04-17T16:35:04.232Z</time></trkpt><trkpt lat="43.65672" lon="11.5248333"><ele>242.0</ele><time>2026-04-17T16:35:06.232Z</time></trkpt><trkpt lat="43.6567767" lon="11.5249017"><ele>244.00000000000003</ele><time>2026-04-17T16:35:08.232Z</time></trkpt><trkpt lat="43.6568333" lon="11.5249767"><ele>246.00000000000003</ele><time>2026-04-17T16:35:10.231Z</time></trkpt><trkpt lat="43.6568917" lon="11.525055"><ele>246.0</ele><time>2026-04-17T16:35:12.233Z</time></trkpt><trkpt lat="43.65694" lon="11.5251317"><ele>246.0</ele><time>2026-04-17T16:35:14.233Z</time></trkpt><trkpt lat="43.6569867" lon="11.525215"><ele>246.0</ele><time>2026-04-17T16:35:16.232Z</time></trkpt><trkpt lat="43.65704" lon="11.5252833"><ele>246.0</ele><time>2026-04-17T16:35:18.231Z</time></trkpt><trkpt lat="43.6571067" lon="11.52537"><ele>246.0</ele><time>2026-04-17T16:35:21.233Z</time></trkpt><trkpt lat="43.6571717" lon="11.5254683"><ele>246.0</ele><time>2026-04-17T16:35:24.232Z</time></trkpt><trkpt lat="43.657235" lon="11.5255583"><ele>246.16666666666666</ele><time>2026-04-17T16:35:27.232Z</time></trkpt><trkpt lat="43.6573117" lon="11.5256467"><ele>246.33333333333331</ele><time>2026-04-17T16:35:30.232Z</time></trkpt><trkpt lat="43.657365" lon="11.5257117"><ele>246.5</ele><time>2026-04-17T16:35:32.231Z</time></trkpt><trkpt lat="43.6574183" lon="11.5257733"><ele>246.66666666666666</ele><time>2026-04-17T16:35:34.233Z</time></trkpt><trkpt lat="43.6574733" lon="11.5258283"><ele>246.83333333333331</ele><time>2026-04-17T16:35:36.232Z</time></trkpt><trkpt lat="43.6575317" lon="11.5258983"><ele>247.0</ele><time>2026-04-17T16:35:38.232Z</time></trkpt><trkpt lat="43.6575917" lon="11.52596"><ele>246.99999999999997</ele><time>2026-04-17T16:35:40.233Z</time></trkpt><trkpt lat="43.657655" lon="11.5260117"><ele>247.0</ele><time>2026-04-17T16:35:42.231Z</time></trkpt><trkpt lat="43.6577217" lon="11.5260783"><ele>247.0</ele><time>2026-04-17T16:35:44.234Z</time></trkpt><trkpt lat="43.657785" lon="11.5261433"><ele>247.0</ele><time>2026-04-17T16:35:46.231Z</time></trkpt><trkpt lat="43.6578433" lon="11.5262083"><ele>246.99999999999997</ele><time>2026-04-17T16:35:48.231Z</time></trkpt><trkpt lat="43.6579133" lon="11.52628"><ele>247.0</ele><time>2026-04-17T16:35:51.233Z</time></trkpt><trkpt lat="43.657965" lon="11.5264017"><ele>246.99999999999997</ele><time>2026-04-17T16:35:53.232Z</time></trkpt><trkpt lat="43.6580117" lon="11.5265017"><ele>247.0</ele><time>2026-04-17T16:35:55.23Z</time></trkpt><trkpt lat="43.6580633" lon="11.5266167"><ele>247.0</ele><time>2026-04-17T16:35:57.23Z</time></trkpt><trkpt lat="43.6581083" lon="11.5267033"><ele>247.0</ele><time>2026-04-17T16:35:59.231Z</time></trkpt><trkpt lat="43.6581533" lon="11.526785"><ele>246.99999999999997</ele><time>2026-04-17T16:36:01.229Z</time></trkpt><trkpt lat="43.658205" lon="11.5268833"><ele>247.0</ele><time>2026-04-17T16:36:03.233Z</time></trkpt><trkpt lat="43.658255" lon="11.5269567"><ele>246.99999999999997</ele><time>2026-04-17T16:36:05.232Z</time></trkpt><trkpt lat="43.6583017" lon="11.5270467"><ele>247.0</ele><time>2026-04-17T16:36:07.232Z</time></trkpt><trkpt lat="43.6583467" lon="11.5271367"><ele>247.0</ele><time>2026-04-17T16:36:09.233Z</time></trkpt><trkpt lat="43.658385" lon="11.5272083"><ele>247.0</ele><time>2026-04-17T16:36:11.231Z</time></trkpt><trkpt lat="43.658445" lon="11.5273217"><ele>246.99999999999997</ele><time>2026-04-17T16:36:14.232Z</time></trkpt><trkpt lat="43.6584883" lon="11.5274317"><ele>247.0</ele><time>2026-04-17T16:36:16.23Z</time></trkpt><trkpt lat="43.6585233" lon="11.52752"><ele>247.16666666666666</ele><time>2026-04-17T16:36:18.233Z</time></trkpt><trkpt lat="43.6585783" lon="11.5276233"><ele>247.33333333333331</ele><time>2026-04-17T16:36:21.233Z</time></trkpt><trkpt lat="43.6586383" lon="11.5277"><ele>247.5</ele><time>2026-04-17T16:36:24.231Z</time></trkpt><trkpt lat="43.6586867" lon="11.5277583"><ele>247.66666666666669</ele><time>2026-04-17T16:36:26.232Z</time></trkpt><trkpt lat="43.65874" lon="11.52782"><ele>247.83333333333334</ele><time>2026-04-17T16:36:28.23Z</time></trkpt><trkpt lat="43.6587867" lon="11.527915"><ele>248.0</ele><time>2026-04-17T16:36:30.23Z</time></trkpt><trkpt lat="43.658835" lon="11.5280283"><ele>249.00000000000003</ele><time>2026-04-17T16:36:32.231Z</time></trkpt><trkpt lat="43.6588883" lon="11.5281267"><ele>250.0</ele><time>2026-04-17T16:36:34.23Z</time></trkpt><trkpt lat="43.6589433" lon="11.528225"><ele>251.0</ele><time>2026-04-17T16:36:36.23Z</time></trkpt><trkpt lat="43.6590017" lon="11.5283367"><ele>252.0</ele><time>2026-04-17T16:36:38.232Z</time></trkpt><trkpt lat="43.6590617" lon="11.5284283"><ele>253.00000000000003</ele><time>2026-04-17T16:36:40.23Z</time></trkpt><trkpt lat="43.6591183" lon="11.5285"><ele>254.0</ele><time>2026-04-17T16:36:42.231Z</time></trkpt><trkpt lat="43.659175" lon="11.5285633"><ele>254.00000000000003</ele><time>2026-04-17T16:36:44.231Z</time></trkpt><trkpt lat="43.6592333" lon="11.5286233"><ele>254.0</ele><time>2026-04-17T16:36:46.23Z</time></trkpt><trkpt lat="43.6592883" lon="11.5286933"><ele>254.0</ele><time>2026-04-17T16:36:48.231Z</time></trkpt><trkpt lat="43.659345" lon="11.5287667"><ele>254.0</ele><time>2026-04-17T16:36:50.231Z</time></trkpt><trkpt lat="43.659405" lon="11.5288333"><ele>254.00000000000003</ele><time>2026-04-17T16:36:52.231Z</time></trkpt><trkpt lat="43.659465" lon="11.5288983"><ele>254.0</ele><time>2026-04-17T16:36:54.232Z</time></trkpt><trkpt lat="43.659525" lon="11.5289517"><ele>254.28571428571428</ele><time>2026-04-17T16:36:56.229Z</time></trkpt><trkpt lat="43.6595817" lon="11.5290067"><ele>254.57142857142856</ele><time>2026-04-17T16:36:58.232Z</time></trkpt><trkpt lat="43.6596483" lon="11.5290733"><ele>254.85714285714283</ele><time>2026-04-17T16:37:00.232Z</time></trkpt><trkpt lat="43.6597117" lon="11.5291383"><ele>255.14285714285714</ele><time>2026-04-17T16:37:02.231Z</time></trkpt><trkpt lat="43.6597717" lon="11.5291983"><ele>255.4285714285714</ele><time>2026-04-17T16:37:04.231Z</time></trkpt><trkpt lat="43.6598317" lon="11.5292483"><ele>255.7142857142857</ele><time>2026-04-17T16:37:06.232Z</time></trkpt><trkpt lat="43.65989" lon="11.52931"><ele>256.0</ele><time>2026-04-17T16:37:08.231Z</time></trkpt><trkpt lat="43.65994" lon="11.52937"><ele>255.99999999999997</ele><time>2026-04-17T16:37:10.232Z</time></trkpt><trkpt lat="43.6600083" lon="11.529415"><ele>256.0</ele><time>2026-04-17T16:37:13.232Z</time></trkpt><trkpt lat="43.660065" lon="11.5294617"><ele>256.0</ele><time>2026-04-17T16:37:15.231Z</time></trkpt><trkpt lat="43.66015" lon="11.5295283"><ele>256.0</ele><time>2026-04-17T16:37:18.232Z</time></trkpt><trkpt lat="43.6602067" lon="11.52959"><ele>255.99999999999997</ele><time>2026-04-17T16:37:20.231Z</time></trkpt><trkpt lat="43.66028" lon="11.52966"><ele>256.0</ele><time>2026-04-17T16:37:22.23Z</time></trkpt><trkpt lat="43.660365" lon="11.5297367"><ele>256.0</ele><time>2026-04-17T16:37:24.23Z</time></trkpt><trkpt lat="43.6604433" lon="11.52981"><ele>256.0</ele><time>2026-04-17T16:37:26.232Z</time></trkpt><trkpt lat="43.66052" lon="11.52988"><ele>256.0</ele><time>2026-04-17T16:37:28.231Z</time></trkpt><trkpt lat="43.6606" lon="11.5299567"><ele>256.0</ele><time>2026-04-17T16:37:30.231Z</time></trkpt><trkpt lat="43.6606817" lon="11.53003"><ele>256.0</ele><time>2026-04-17T16:37:32.229Z</time></trkpt><trkpt lat="43.6607767" lon="11.5301183"><ele>256.0</ele><time>2026-04-17T16:37:34.233Z</time></trkpt><trkpt lat="43.6608667" lon="11.5302083"><ele>256.0</ele><time>2026-04-17T16:37:36.229Z</time></trkpt><trkpt lat="43.6609533" lon="11.5302933"><ele>256.0</ele><time>2026-04-17T16:37:38.23Z</time></trkpt><trkpt lat="43.6610333" lon="11.5303517"><ele>256.0</ele><time>2026-04-17T16:37:40.231Z</time></trkpt><trkpt lat="43.661115" lon="11.5304033"><ele>256.0</ele><time>2026-04-17T16:37:42.231Z</time></trkpt><trkpt lat="43.66119" lon="11.5304583"><ele>257.8333333333333</ele><time>2026-04-17T16:37:44.232Z</time></trkpt><trkpt lat="43.661255" lon="11.5305167"><ele>259.66666666666663</ele><time>2026-04-17T16:37:46.23Z</time></trkpt><trkpt lat="43.6613383" lon="11.5305783"><ele>261.5</ele><time>2026-04-17T16:37:49.231Z</time></trkpt><trkpt lat="43.6614167" lon="11.5306467"><ele>263.3333333333333</ele><time>2026-04-17T16:37:52.232Z</time></trkpt><trkpt lat="43.6614967" lon="11.5306983"><ele>265.1666666666667</ele><time>2026-04-17T16:37:55.231Z</time></trkpt><trkpt lat="43.661575" lon="11.5307633"><ele>267.0</ele><time>2026-04-17T16:37:58.231Z</time></trkpt><trkpt lat="43.66164" lon="11.5308367"><ele>267.0</ele><time>2026-04-17T16:38:01.232Z</time></trkpt><trkpt lat="43.661705" lon="11.5308933"><ele>267.0</ele><time>2026-04-17T16:38:04.231Z</time></trkpt><trkpt lat="43.66177" lon="11.5309383"><ele>267.0</ele><time>2026-04-17T16:38:07.232Z</time></trkpt><trkpt lat="43.66185" lon="11.5309833"><ele>267.0</ele><time>2026-04-17T16:38:10.231Z</time></trkpt><trkpt lat="43.6619167" lon="11.5310117"><ele>267.0</ele><time>2026-04-17T16:38:13.231Z</time></trkpt><trkpt lat="43.661985" lon="11.5310667"><ele>267.0</ele><time>2026-04-17T16:38:16.232Z</time></trkpt><trkpt lat="43.662055" lon="11.53113"><ele>266.8333333333333</ele><time>2026-04-17T16:38:19.231Z</time></trkpt><trkpt lat="43.6621167" lon="11.5311817"><ele>266.6666666666667</ele><time>2026-04-17T16:38:22.232Z</time></trkpt><trkpt lat="43.662185" lon="11.5312317"><ele>266.5</ele><time>2026-04-17T16:38:25.232Z</time></trkpt><trkpt lat="43.6622617" lon="11.5312967"><ele>266.33333333333337</ele><time>2026-04-17T16:38:28.23Z</time></trkpt><trkpt lat="43.662335" lon="11.5313567"><ele>266.1666666666667</ele><time>2026-04-17T16:38:31.231Z</time></trkpt><trkpt lat="43.6623967" lon="11.5314183"><ele>266.0</ele><time>2026-04-17T16:38:34.229Z</time></trkpt><trkpt lat="43.6624583" lon="11.53147"><ele>265.83333333333337</ele><time>2026-04-17T16:38:37.231Z</time></trkpt><trkpt lat="43.6625117" lon="11.53152"><ele>265.6666666666667</ele><time>2026-04-17T16:38:39.23Z</time></trkpt><trkpt lat="43.6625933" lon="11.5315917"><ele>265.5</ele><time>2026-04-17T16:38:42.233Z</time></trkpt><trkpt lat="43.6626733" lon="11.53165"><ele>265.3333333333333</ele><time>2026-04-17T16:38:45.228Z</time></trkpt><trkpt lat="43.6627317" lon="11.53169"><ele>265.16666666666663</ele><time>2026-04-17T16:38:47.229Z</time></trkpt><trkpt lat="43.6628" lon="11.5317433"><ele>265.0</ele><time>2026-04-17T16:38:50.23Z</time></trkpt><trkpt lat="43.6628783" lon="11.5317833"><ele>266.3333333333333</ele><time>2026-04-17T16:38:53.229Z</time></trkpt><trkpt lat="43.6629517" lon="11.5318333"><ele>267.66666666666663</ele><time>2026-04-17T16:38:56.23Z</time></trkpt><trkpt lat="43.6630233" lon="11.531875"><ele>269.0</ele><time>2026-04-17T16:38:59.228Z</time></trkpt><trkpt lat="43.6631017" lon="11.531915"><ele>270.3333333333333</ele><time>2026-04-17T16:39:02.229Z</time></trkpt><trkpt lat="43.6631833" lon="11.5319633"><ele>271.6666666666667</ele><time>2026-04-17T16:39:05.23Z</time></trkpt><trkpt lat="43.6632717" lon="11.5319933"><ele>273.0</ele><time>2026-04-17T16:39:08.231Z</time></trkpt><trkpt lat="43.6633583" lon="11.5320217"><ele>273.0</ele><time>2026-04-17T16:39:11.229Z</time></trkpt><trkpt lat="43.663435" lon="11.5320383"><ele>273.0</ele><time>2026-04-17T16:39:14.231Z</time></trkpt><trkpt lat="43.6635183" lon="11.5320517"><ele>273.0</ele><time>2026-04-17T16:39:17.229Z</time></trkpt><trkpt lat="43.663605" lon="11.5320767"><ele>273.0</ele><time>2026-04-17T16:39:20.23Z</time></trkpt><trkpt lat="43.6636833" lon="11.532095"><ele>273.0</ele><time>2026-04-17T16:39:23.231Z</time></trkpt><trkpt lat="43.663755" lon="11.5321217"><ele>273.0</ele><time>2026-04-17T16:39:26.23Z</time></trkpt><trkpt lat="43.6638317" lon="11.5321483"><ele>275.8</ele><time>2026-04-17T16:39:29.229Z</time></trkpt><trkpt lat="43.6639167" lon="11.53217"><ele>278.6</ele><time>2026-04-17T16:39:32.231Z</time></trkpt><trkpt lat="43.6640067" lon="11.5321967"><ele>281.4</ele><time>2026-04-17T16:39:35.23Z</time></trkpt><trkpt lat="43.66409" lon="11.532195"><ele>284.2</ele><time>2026-04-17T16:39:38.234Z</time></trkpt><trkpt lat="43.6641833" lon="11.5321967"><ele>287.0</ele><time>2026-04-17T16:39:41.231Z</time></trkpt><trkpt lat="43.664295" lon="11.5322133"><ele>287.0</ele><time>2026-04-17T16:39:45.233Z</time></trkpt><trkpt lat="43.66438" lon="11.5322567"><ele>287.0</ele><time>2026-04-17T16:39:48.231Z</time></trkpt><trkpt lat="43.66446" lon="11.532295"><ele>287.0</ele><time>2026-04-17T16:39:51.23Z</time></trkpt><trkpt lat="43.6645383" lon="11.532335"><ele>287.0</ele><time>2026-04-17T16:39:54.23Z</time></trkpt><trkpt lat="43.6646233" lon="11.53237"><ele>287.0</ele><time>2026-04-17T16:39:57.231Z</time></trkpt><trkpt lat="43.6647083" lon="11.5323883"><ele>287.0</ele><time>2026-04-17T16:40:00.231Z</time></trkpt><trkpt lat="43.6647767" lon="11.5324183"><ele>287.6666666666667</ele><time>2026-04-17T16:40:02.231Z</time></trkpt><trkpt lat="43.6648517" lon="11.53246"><ele>288.33333333333337</ele><time>2026-04-17T16:40:04.232Z</time></trkpt><trkpt lat="43.6649233" lon="11.5324967"><ele>289.0</ele><time>2026-04-17T16:40:06.231Z</time></trkpt><trkpt lat="43.6649933" lon="11.5325333"><ele>289.6666666666667</ele><time>2026-04-17T16:40:08.232Z</time></trkpt><trkpt lat="43.665055" lon="11.5325617"><ele>290.3333333333333</ele><time>2026-04-17T16:40:10.23Z</time></trkpt><trkpt lat="43.6651383" lon="11.5325917"><ele>291.0</ele><time>2026-04-17T16:40:13.23Z</time></trkpt><trkpt lat="43.6651983" lon="11.5326317"><ele>291.0</ele><time>2026-04-17T16:40:15.231Z</time></trkpt><trkpt lat="43.66526" lon="11.53266"><ele>291.0</ele><time>2026-04-17T16:40:17.232Z</time></trkpt><trkpt lat="43.66535" lon="11.5327"><ele>291.0</ele><time>2026-04-17T16:40:20.231Z</time></trkpt><trkpt lat="43.66544" lon="11.5327317"><ele>291.0</ele><time>2026-04-17T16:40:23.23Z</time></trkpt><trkpt lat="43.6655283" lon="11.532755"><ele>291.0</ele><time>2026-04-17T16:40:26.232Z</time></trkpt><trkpt lat="43.6656033" lon="11.5327817"><ele>291.0</ele><time>2026-04-17T16:40:29.233Z</time></trkpt><trkpt lat="43.66569" lon="11.5328"><ele>291.3333333333333</ele><time>2026-04-17T16:40:32.232Z</time></trkpt><trkpt lat="43.665775" lon="11.5328283"><ele>291.6666666666667</ele><time>2026-04-17T16:40:35.232Z</time></trkpt><trkpt lat="43.665865" lon="11.5328533"><ele>292.0</ele><time>2026-04-17T16:40:38.23Z</time></trkpt><trkpt lat="43.6659283" lon="11.5328817"><ele>292.33333333333337</ele><time>2026-04-17T16:40:40.233Z</time></trkpt><trkpt lat="43.666" lon="11.5329333"><ele>292.6666666666667</ele><time>2026-04-17T16:40:43.23Z</time></trkpt><trkpt lat="43.6660817" lon="11.5329567"><ele>293.0</ele><time>2026-04-17T16:40:46.231Z</time></trkpt><trkpt lat="43.66616" lon="11.5329867"><ele>294.6666666666667</ele><time>2026-04-17T16:40:49.23Z</time></trkpt><trkpt lat="43.6662483" lon="11.5330267"><ele>296.33333333333337</ele><time>2026-04-17T16:40:52.231Z</time></trkpt><trkpt lat="43.66633" lon="11.5330233"><ele>298.0</ele><time>2026-04-17T16:40:55.231Z</time></trkpt><trkpt lat="43.66642" lon="11.5330567"><ele>299.6666666666667</ele><time>2026-04-17T16:40:58.232Z</time></trkpt><trkpt lat="43.66649" lon="11.5330967"><ele>301.3333333333333</ele><time>2026-04-17T16:41:00.233Z</time></trkpt><trkpt lat="43.6665633" lon="11.5331133"><ele>303.0</ele><time>2026-04-17T16:41:02.232Z</time></trkpt><trkpt lat="43.6666367" lon="11.53313"><ele>303.0</ele><time>2026-04-17T16:41:04.231Z</time></trkpt><trkpt lat="43.666715" lon="11.5331517"><ele>303.0</ele><time>2026-04-17T16:41:06.231Z</time></trkpt><trkpt lat="43.6667933" lon="11.5331833"><ele>303.0</ele><time>2026-04-17T16:41:08.231Z</time></trkpt><trkpt lat="43.6668667" lon="11.533205"><ele>303.0</ele><time>2026-04-17T16:41:10.232Z</time></trkpt><trkpt lat="43.6669417" lon="11.5332367"><ele>303.0</ele><time>2026-04-17T16:41:12.23Z</time></trkpt><trkpt lat="43.6670117" lon="11.5332733"><ele>303.0</ele><time>2026-04-17T16:41:14.23Z</time></trkpt><trkpt lat="43.6670817" lon="11.53331"><ele>303.5</ele><time>2026-04-17T16:41:16.229Z</time></trkpt><trkpt lat="43.6671533" lon="11.5333483"><ele>304.0</ele><time>2026-04-17T16:41:18.231Z</time></trkpt><trkpt lat="43.66722" lon="11.5333817"><ele>304.5</ele><time>2026-04-17T16:41:20.231Z</time></trkpt><trkpt lat="43.6673117" lon="11.5334283"><ele>305.0</ele><time>2026-04-17T16:41:23.23Z</time></trkpt><trkpt lat="43.6674017" lon="11.5334633"><ele>305.5</ele><time>2026-04-17T16:41:26.232Z</time></trkpt><trkpt lat="43.6674867" lon="11.5335017"><ele>306.0</ele><time>2026-04-17T16:41:29.232Z</time></trkpt><trkpt lat="43.6675567" lon="11.533535"><ele>306.0</ele><time>2026-04-17T16:41:31.23Z</time></trkpt><trkpt lat="43.6676217" lon="11.5335683"><ele>306.0</ele><time>2026-04-17T16:41:33.232Z</time></trkpt><trkpt lat="43.6677067" lon="11.53362"><ele>306.0</ele><time>2026-04-17T16:41:36.229Z</time></trkpt><trkpt lat="43.6678017" lon="11.5336583"><ele>306.0</ele><time>2026-04-17T16:41:39.231Z</time></trkpt><trkpt lat="43.66787" lon="11.53368"><ele>306.0</ele><time>2026-04-17T16:41:41.23Z</time></trkpt><trkpt lat="43.6679467" lon="11.5336917"><ele>306.0</ele><time>2026-04-17T16:41:43.229Z</time></trkpt><trkpt lat="43.6680283" lon="11.5337067"><ele>306.1666666666667</ele><time>2026-04-17T16:41:45.232Z</time></trkpt><trkpt lat="43.6681067" lon="11.5337217"><ele>306.3333333333333</ele><time>2026-04-17T16:41:47.232Z</time></trkpt><trkpt lat="43.66818" lon="11.5337283"><ele>306.5</ele><time>2026-04-17T16:41:49.231Z</time></trkpt><trkpt lat="43.6682833" lon="11.5337317"><ele>306.66666666666663</ele><time>2026-04-17T16:41:52.231Z</time></trkpt><trkpt lat="43.66836" lon="11.5337467"><ele>306.8333333333333</ele><time>2026-04-17T16:41:54.232Z</time></trkpt><trkpt lat="43.668435" lon="11.53376"><ele>307.0</ele><time>2026-04-17T16:41:56.233Z</time></trkpt><trkpt lat="43.6685017" lon="11.533775"><ele>307.0</ele><time>2026-04-17T16:41:58.23Z</time></trkpt><trkpt lat="43.6685683" lon="11.53379"><ele>307.0</ele><time>2026-04-17T16:42:00.231Z</time></trkpt><trkpt lat="43.6686317" lon="11.5337917"><ele>307.0</ele><time>2026-04-17T16:42:02.233Z</time></trkpt><trkpt lat="43.6687267" lon="11.5338033"><ele>307.0</ele><time>2026-04-17T16:42:05.231Z</time></trkpt><trkpt lat="43.6687933" lon="11.5338117"><ele>307.0</ele><time>2026-04-17T16:42:07.228Z</time></trkpt><trkpt lat="43.6688867" lon="11.5338317"><ele>307.0</ele><time>2026-04-17T16:42:10.229Z</time></trkpt><trkpt lat="43.66895" lon="11.5338417"><ele>308.8</ele><time>2026-04-17T16:42:12.23Z</time></trkpt><trkpt lat="43.6690267" lon="11.5338533"><ele>310.6</ele><time>2026-04-17T16:42:15.23Z</time></trkpt><trkpt lat="43.6691167" lon="11.5338783"><ele>312.40000000000003</ele><time>2026-04-17T16:42:18.229Z</time></trkpt><trkpt lat="43.669255" lon="11.53389"><ele>314.2</ele><time>2026-04-17T16:42:23.231Z</time></trkpt><trkpt lat="43.669335" lon="11.5339"><ele>316.0</ele><time>2026-04-17T16:42:26.23Z</time></trkpt><trkpt lat="43.66941" lon="11.533915"><ele>317.66666666666663</ele><time>2026-04-17T16:42:29.232Z</time></trkpt><trkpt lat="43.66948" lon="11.5339317"><ele>319.3333333333333</ele><time>2026-04-17T16:42:32.231Z</time></trkpt><trkpt lat="43.6695433" lon="11.533935"><ele>321.0</ele><time>2026-04-17T16:42:35.228Z</time></trkpt><trkpt lat="43.6696317" lon="11.533945"><ele>322.6666666666667</ele><time>2026-04-17T16:42:38.23Z</time></trkpt><trkpt lat="43.6697133" lon="11.533955"><ele>324.33333333333337</ele><time>2026-04-17T16:42:41.232Z</time></trkpt><trkpt lat="43.6697917" lon="11.5339667"><ele>326.0</ele><time>2026-04-17T16:42:44.232Z</time></trkpt><trkpt lat="43.66987" lon="11.5339783"><ele>326.0</ele><time>2026-04-17T16:42:47.23Z</time></trkpt><trkpt lat="43.670075" lon="11.5339717"><ele>326.0</ele><time>2026-04-17T16:42:54.23Z</time></trkpt><trkpt lat="43.6702667" lon="11.533965"><ele>326.0</ele><time>2026-04-17T16:43:00.231Z</time></trkpt><trkpt lat="43.670355" lon="11.5339517"><ele>327.1666666666667</ele><time>2026-04-17T16:43:03.231Z</time></trkpt><trkpt lat="43.67042" lon="11.5339467"><ele>328.33333333333337</ele><time>2026-04-17T16:43:05.231Z</time></trkpt><trkpt lat="43.67054" lon="11.5339367"><ele>329.5</ele><time>2026-04-17T16:43:09.23Z</time></trkpt><trkpt lat="43.67061" lon="11.5339467"><ele>330.6666666666667</ele><time>2026-04-17T16:43:11.23Z</time></trkpt><trkpt lat="43.6707017" lon="11.5339517"><ele>331.8333333333333</ele><time>2026-04-17T16:43:14.231Z</time></trkpt><trkpt lat="43.6707833" lon="11.5339633"><ele>333.0</ele><time>2026-04-17T16:43:17.231Z</time></trkpt><trkpt lat="43.67085" lon="11.5339767"><ele>333.0</ele><time>2026-04-17T16:43:19.233Z</time></trkpt><trkpt lat="43.6709217" lon="11.534"><ele>333.0</ele><time>2026-04-17T16:43:21.23Z</time></trkpt><trkpt lat="43.6709917" lon="11.5340167"><ele>333.0</ele><time>2026-04-17T16:43:23.23Z</time></trkpt><trkpt lat="43.671075" lon="11.534"><ele>333.0</ele><time>2026-04-17T16:43:26.232Z</time></trkpt><trkpt lat="43.6711617" lon="11.5339567"><ele>333.0</ele><time>2026-04-17T16:43:29.231Z</time></trkpt><trkpt lat="43.6712217" lon="11.53392"><ele>333.0</ele><time>2026-04-17T16:43:31.231Z</time></trkpt><trkpt lat="43.6712983" lon="11.5339"><ele>334.8333333333333</ele><time>2026-04-17T16:43:34.229Z</time></trkpt><trkpt lat="43.67137" lon="11.5339667"><ele>336.6666666666667</ele><time>2026-04-17T16:43:37.231Z</time></trkpt><trkpt lat="43.6713667" lon="11.5340833"><ele>338.5</ele><time>2026-04-17T16:43:40.232Z</time></trkpt><trkpt lat="43.67134" lon="11.5341767"><ele>340.33333333333337</ele><time>2026-04-17T16:43:42.23Z</time></trkpt><trkpt lat="43.6713167" lon="11.53429"><ele>342.1666666666667</ele><time>2026-04-17T16:43:44.231Z</time></trkpt><trkpt lat="43.6713" lon="11.534415"><ele>344.0</ele><time>2026-04-17T16:43:46.233Z</time></trkpt><trkpt lat="43.6712783" lon="11.5345533"><ele>343.83333333333337</ele><time>2026-04-17T16:43:48.23Z</time></trkpt><trkpt lat="43.671255" lon="11.5347033"><ele>343.6666666666667</ele><time>2026-04-17T16:43:50.231Z</time></trkpt><trkpt lat="43.6712367" lon="11.5347867"><ele>343.5</ele><time>2026-04-17T16:43:51.231Z</time></trkpt><trkpt lat="43.6711867" lon="11.5349417"><ele>343.3333333333333</ele><time>2026-04-17T16:43:53.23Z</time></trkpt><trkpt lat="43.67115" lon="11.5350183"><ele>343.16666666666663</ele><time>2026-04-17T16:43:54.231Z</time></trkpt><trkpt lat="43.67111" lon="11.5350883"><ele>343.0</ele><time>2026-04-17T16:43:55.23Z</time></trkpt><trkpt lat="43.67107" lon="11.535165"><ele>341.2857142857143</ele><time>2026-04-17T16:43:56.232Z</time></trkpt><trkpt lat="43.6710317" lon="11.5352467"><ele>339.57142857142856</ele><time>2026-04-17T16:43:57.233Z</time></trkpt><trkpt lat="43.6709933" lon="11.5353283"><ele>337.8571428571429</ele><time>2026-04-17T16:43:58.229Z</time></trkpt><trkpt lat="43.6709617" lon="11.5354117"><ele>336.1428571428571</ele><time>2026-04-17T16:43:59.233Z</time></trkpt><trkpt lat="43.6709367" lon="11.5354983"><ele>334.42857142857144</ele><time>2026-04-17T16:44:00.236Z</time></trkpt><trkpt lat="43.6709167" lon="11.5355933"><ele>332.7142857142857</ele><time>2026-04-17T16:44:01.231Z</time></trkpt><trkpt lat="43.6709083" lon="11.53569"><ele>331.0</ele><time>2026-04-17T16:44:02.233Z</time></trkpt><trkpt lat="43.6709083" lon="11.5357867"><ele>331.0</ele><time>2026-04-17T16:44:03.231Z</time></trkpt><trkpt lat="43.670915" lon="11.535885"><ele>331.0</ele><time>2026-04-17T16:44:04.231Z</time></trkpt><trkpt lat="43.6709333" lon="11.5359917"><ele>331.0</ele><time>2026-04-17T16:44:05.232Z</time></trkpt><trkpt lat="43.670955" lon="11.5360967"><ele>331.0</ele><time>2026-04-17T16:44:06.23Z</time></trkpt><trkpt lat="43.6709783" lon="11.5361983"><ele>331.0</ele><time>2026-04-17T16:44:07.23Z</time></trkpt><trkpt lat="43.671005" lon="11.5362967"><ele>331.0</ele><time>2026-04-17T16:44:08.23Z</time></trkpt><trkpt lat="43.6710333" lon="11.5363917"><ele>330.2857142857143</ele><time>2026-04-17T16:44:09.232Z</time></trkpt><trkpt lat="43.6710667" lon="11.5364817"><ele>329.57142857142856</ele><time>2026-04-17T16:44:10.233Z</time></trkpt><trkpt lat="43.6711017" lon="11.5365667"><ele>328.8571428571429</ele><time>2026-04-17T16:44:11.232Z</time></trkpt><trkpt lat="43.6711467" lon="11.5366433"><ele>328.1428571428571</ele><time>2026-04-17T16:44:12.228Z</time></trkpt><trkpt lat="43.6712" lon="11.536705"><ele>327.4285714285714</ele><time>2026-04-17T16:44:13.23Z</time></trkpt><trkpt lat="43.6712617" lon="11.536755"><ele>326.7142857142857</ele><time>2026-04-17T16:44:14.229Z</time></trkpt><trkpt lat="43.6713317" lon="11.5367933"><ele>326.0</ele><time>2026-04-17T16:44:15.229Z</time></trkpt><trkpt lat="43.6714067" lon="11.53683"><ele>328.1666666666667</ele><time>2026-04-17T16:44:16.228Z</time></trkpt><trkpt lat="43.6714617" lon="11.53688"><ele>330.33333333333337</ele><time>2026-04-17T16:44:17.229Z</time></trkpt><trkpt lat="43.6714983" lon="11.5369533"><ele>332.5</ele><time>2026-04-17T16:44:18.232Z</time></trkpt><trkpt lat="43.67152" lon="11.5370517"><ele>334.6666666666667</ele><time>2026-04-17T16:44:19.23Z</time></trkpt><trkpt lat="43.6715" lon="11.5371583"><ele>336.8333333333333</ele><time>2026-04-17T16:44:20.231Z</time></trkpt><trkpt lat="43.671455" lon="11.5372633"><ele>339.0</ele><time>2026-04-17T16:44:21.231Z</time></trkpt><trkpt lat="43.6714" lon="11.53735"><ele>339.0</ele><time>2026-04-17T16:44:22.231Z</time></trkpt><trkpt lat="43.6713483" lon="11.53745"><ele>339.0</ele><time>2026-04-17T16:44:23.23Z</time></trkpt><trkpt lat="43.6713183" lon="11.537565"><ele>339.0</ele><time>2026-04-17T16:44:24.231Z</time></trkpt><trkpt lat="43.6713017" lon="11.5376867"><ele>339.0</ele><time>2026-04-17T16:44:25.231Z</time></trkpt><trkpt lat="43.671295" lon="11.537815"><ele>339.0</ele><time>2026-04-17T16:44:26.231Z</time></trkpt><trkpt lat="43.6712883" lon="11.5379467"><ele>339.5</ele><time>2026-04-17T16:44:27.231Z</time></trkpt><trkpt lat="43.671285" lon="11.5380783"><ele>340.0</ele><time>2026-04-17T16:44:28.23Z</time></trkpt><trkpt lat="43.6712867" lon="11.5381983"><ele>340.5</ele><time>2026-04-17T16:44:29.231Z</time></trkpt><trkpt lat="43.6712933" lon="11.53832"><ele>341.0</ele><time>2026-04-17T16:44:30.232Z</time></trkpt><trkpt lat="43.6713017" lon="11.53844"><ele>341.5</ele><time>2026-04-17T16:44:31.232Z</time></trkpt><trkpt lat="43.6712967" lon="11.5385633"><ele>342.0</ele><time>2026-04-17T16:44:32.231Z</time></trkpt><trkpt lat="43.6712717" lon="11.53868"><ele>341.8333333333333</ele><time>2026-04-17T16:44:33.23Z</time></trkpt><trkpt lat="43.6712317" lon="11.5387817"><ele>341.6666666666667</ele><time>2026-04-17T16:44:34.231Z</time></trkpt><trkpt lat="43.6711733" lon="11.53885"><ele>341.5</ele><time>2026-04-17T16:44:35.232Z</time></trkpt><trkpt lat="43.671095" lon="11.5388767"><ele>341.33333333333337</ele><time>2026-04-17T16:44:36.231Z</time></trkpt><trkpt lat="43.67102" lon="11.5388617"><ele>341.1666666666667</ele><time>2026-04-17T16:44:37.231Z</time></trkpt><trkpt lat="43.67095" lon="11.5388083"><ele>341.0</ele><time>2026-04-17T16:44:38.232Z</time></trkpt><trkpt lat="43.6708833" lon="11.538735"><ele>339.33333333333337</ele><time>2026-04-17T16:44:39.231Z</time></trkpt><trkpt lat="43.6708133" lon="11.5386567"><ele>337.6666666666667</ele><time>2026-04-17T16:44:40.232Z</time></trkpt><trkpt lat="43.670745" lon="11.5385767"><ele>336.0</ele><time>2026-04-17T16:44:41.232Z</time></trkpt><trkpt lat="43.6706817" lon="11.5385017"><ele>334.3333333333333</ele><time>2026-04-17T16:44:42.231Z</time></trkpt><trkpt lat="43.6706133" lon="11.5384283"><ele>332.66666666666663</ele><time>2026-04-17T16:44:43.231Z</time></trkpt><trkpt lat="43.6705383" lon="11.5383517"><ele>331.0</ele><time>2026-04-17T16:44:44.232Z</time></trkpt><trkpt lat="43.6704667" lon="11.538275"><ele>331.0</ele><time>2026-04-17T16:44:45.231Z</time></trkpt><trkpt lat="43.6704017" lon="11.5381933"><ele>331.0</ele><time>2026-04-17T16:44:46.231Z</time></trkpt><trkpt lat="43.67034" lon="11.5381067"><ele>331.0</ele><time>2026-04-17T16:44:47.233Z</time></trkpt><trkpt lat="43.6702783" lon="11.53802"><ele>331.0</ele><time>2026-04-17T16:44:48.233Z</time></trkpt><trkpt lat="43.670225" lon="11.5379333"><ele>331.0</ele><time>2026-04-17T16:44:49.231Z</time></trkpt><trkpt lat="43.6701667" lon="11.5378417"><ele>331.0</ele><time>2026-04-17T16:44:50.232Z</time></trkpt><trkpt lat="43.6701083" lon="11.5377517"><ele>331.0</ele><time>2026-04-17T16:44:51.233Z</time></trkpt><trkpt lat="43.6700483" lon="11.537665"><ele>331.0</ele><time>2026-04-17T16:44:52.231Z</time></trkpt><trkpt lat="43.6699883" lon="11.5375733"><ele>331.0</ele><time>2026-04-17T16:44:53.232Z</time></trkpt><trkpt lat="43.6699467" lon="11.5374783"><ele>331.0</ele><time>2026-04-17T16:44:54.231Z</time></trkpt><trkpt lat="43.6699217" lon="11.5373733"><ele>331.0</ele><time>2026-04-17T16:44:55.23Z</time></trkpt><trkpt lat="43.6699033" lon="11.5372683"><ele>331.0</ele><time>2026-04-17T16:44:56.232Z</time></trkpt><trkpt lat="43.6698883" lon="11.5371583"><ele>331.0</ele><time>2026-04-17T16:44:57.232Z</time></trkpt><trkpt lat="43.6698767" lon="11.53706"><ele>331.0</ele><time>2026-04-17T16:44:58.231Z</time></trkpt><trkpt lat="43.6698583" lon="11.536965"><ele>331.0</ele><time>2026-04-17T16:44:59.23Z</time></trkpt><trkpt lat="43.6698183" lon="11.5368733"><ele>331.0</ele><time>2026-04-17T16:45:00.23Z</time></trkpt><trkpt lat="43.66977" lon="11.5368"><ele>331.0</ele><time>2026-04-17T16:45:01.231Z</time></trkpt><trkpt lat="43.6697167" lon="11.536735"><ele>331.0</ele><time>2026-04-17T16:45:02.234Z</time></trkpt><trkpt lat="43.669655" lon="11.5366767"><ele>331.0</ele><time>2026-04-17T16:45:03.232Z</time></trkpt><trkpt lat="43.6695883" lon="11.536625"><ele>331.8333333333333</ele><time>2026-04-17T16:45:04.233Z</time></trkpt><trkpt lat="43.6695233" lon="11.536565"><ele>332.66666666666663</ele><time>2026-04-17T16:45:05.233Z</time></trkpt><trkpt lat="43.669455" lon="11.536505"><ele>333.5</ele><time>2026-04-17T16:45:06.233Z</time></trkpt><trkpt lat="43.6693883" lon="11.5364483"><ele>334.3333333333333</ele><time>2026-04-17T16:45:07.233Z</time></trkpt><trkpt lat="43.66932" lon="11.536395"><ele>335.1666666666667</ele><time>2026-04-17T16:45:08.232Z</time></trkpt><trkpt lat="43.6692517" lon="11.5363567"><ele>336.0</ele><time>2026-04-17T16:45:09.232Z</time></trkpt><trkpt lat="43.6691783" lon="11.5363317"><ele>336.0</ele><time>2026-04-17T16:45:10.231Z</time></trkpt><trkpt lat="43.6690983" lon="11.5363233"><ele>336.0</ele><time>2026-04-17T16:45:11.233Z</time></trkpt><trkpt lat="43.6690233" lon="11.5363317"><ele>336.0</ele><time>2026-04-17T16:45:12.233Z</time></trkpt><trkpt lat="43.6689467" lon="11.5363467"><ele>336.0</ele><time>2026-04-17T16:45:13.234Z</time></trkpt><trkpt lat="43.668865" lon="11.5363583"><ele>336.0</ele><time>2026-04-17T16:45:14.233Z</time></trkpt><trkpt lat="43.6687867" lon="11.5363583"><ele>336.0</ele><time>2026-04-17T16:45:15.231Z</time></trkpt><trkpt lat="43.668715" lon="11.5363367"><ele>336.0</ele><time>2026-04-17T16:45:16.232Z</time></trkpt><trkpt lat="43.6686533" lon="11.53629"><ele>336.0</ele><time>2026-04-17T16:45:17.232Z</time></trkpt><trkpt lat="43.6685983" lon="11.5362333"><ele>336.0</ele><time>2026-04-17T16:45:18.232Z</time></trkpt><trkpt lat="43.6685267" lon="11.5361733"><ele>336.0</ele><time>2026-04-17T16:45:19.231Z</time></trkpt><trkpt lat="43.6684817" lon="11.536105"><ele>336.0</ele><time>2026-04-17T16:45:20.231Z</time></trkpt><trkpt lat="43.6684417" lon="11.5360283"><ele>336.0</ele><time>2026-04-17T16:45:21.231Z</time></trkpt><trkpt lat="43.6683583" lon="11.5359067"><ele>334.0</ele><time>2026-04-17T16:45:23.231Z</time></trkpt><trkpt lat="43.6682483" lon="11.5358333"><ele>332.0</ele><time>2026-04-17T16:45:25.231Z</time></trkpt><trkpt lat="43.6681267" lon="11.535795"><ele>330.0</ele><time>2026-04-17T16:45:27.232Z</time></trkpt><trkpt lat="43.6680033" lon="11.53577"><ele>328.0</ele><time>2026-04-17T16:45:29.232Z</time></trkpt><trkpt lat="43.6679383" lon="11.5357567"><ele>326.0</ele><time>2026-04-17T16:45:30.232Z</time></trkpt><trkpt lat="43.6678167" lon="11.5357233"><ele>327.1666666666667</ele><time>2026-04-17T16:45:32.233Z</time></trkpt><trkpt lat="43.66775" lon="11.5357017"><ele>328.33333333333337</ele><time>2026-04-17T16:45:33.232Z</time></trkpt><trkpt lat="43.667685" lon="11.5356817"><ele>329.5</ele><time>2026-04-17T16:45:34.232Z</time></trkpt><trkpt lat="43.667565" lon="11.5356583"><ele>330.6666666666667</ele><time>2026-04-17T16:45:36.233Z</time></trkpt><trkpt lat="43.6675017" lon="11.535655"><ele>331.8333333333333</ele><time>2026-04-17T16:45:37.234Z</time></trkpt><trkpt lat="43.6674383" lon="11.5356583"><ele>333.0</ele><time>2026-04-17T16:45:38.232Z</time></trkpt><trkpt lat="43.6673317" lon="11.53568"><ele>333.0</ele><time>2026-04-17T16:45:40.233Z</time></trkpt><trkpt lat="43.6672217" lon="11.5357067"><ele>333.0</ele><time>2026-04-17T16:45:42.232Z</time></trkpt><trkpt lat="43.6671583" lon="11.5357267"><ele>333.0</ele><time>2026-04-17T16:45:43.232Z</time></trkpt><trkpt lat="43.6670967" lon="11.5357583"><ele>333.0</ele><time>2026-04-17T16:45:44.233Z</time></trkpt><trkpt lat="43.6670217" lon="11.5358"><ele>333.0</ele><time>2026-04-17T16:45:45.233Z</time></trkpt><trkpt lat="43.666955" lon="11.53584"><ele>333.0</ele><time>2026-04-17T16:45:46.232Z</time></trkpt><trkpt lat="43.6669" lon="11.5358933"><ele>332.42857142857144</ele><time>2026-04-17T16:45:47.232Z</time></trkpt><trkpt lat="43.6668533" lon="11.5359533"><ele>331.85714285714283</ele><time>2026-04-17T16:45:48.233Z</time></trkpt><trkpt lat="43.66681" lon="11.53602"><ele>331.2857142857143</ele><time>2026-04-17T16:45:49.232Z</time></trkpt><trkpt lat="43.6667717" lon="11.5360933"><ele>330.7142857142857</ele><time>2026-04-17T16:45:50.233Z</time></trkpt><trkpt lat="43.6667217" lon="11.5361617"><ele>330.1428571428571</ele><time>2026-04-17T16:45:51.233Z</time></trkpt><trkpt lat="43.666665" lon="11.5362167"><ele>329.57142857142856</ele><time>2026-04-17T16:45:52.233Z</time></trkpt><trkpt lat="43.6666067" lon="11.5362583"><ele>329.0</ele><time>2026-04-17T16:45:53.233Z</time></trkpt><trkpt lat="43.666545" lon="11.5362833"><ele>329.5</ele><time>2026-04-17T16:45:54.232Z</time></trkpt><trkpt lat="43.6664717" lon="11.5362883"><ele>330.0</ele><time>2026-04-17T16:45:55.234Z</time></trkpt><trkpt lat="43.6663983" lon="11.5362817"><ele>330.5</ele><time>2026-04-17T16:45:56.232Z</time></trkpt><trkpt lat="43.666325" lon="11.5362683"><ele>331.0</ele><time>2026-04-17T16:45:57.232Z</time></trkpt><trkpt lat="43.66625" lon="11.5362667"><ele>331.5</ele><time>2026-04-17T16:45:58.234Z</time></trkpt><trkpt lat="43.6661717" lon="11.5362833"><ele>332.0</ele><time>2026-04-17T16:45:59.234Z</time></trkpt><trkpt lat="43.6661" lon="11.5363117"><ele>332.0</ele><time>2026-04-17T16:46:00.232Z</time></trkpt><trkpt lat="43.6660333" lon="11.5363567"><ele>332.0</ele><time>2026-04-17T16:46:01.233Z</time></trkpt><trkpt lat="43.6659767" lon="11.5364117"><ele>332.0</ele><time>2026-04-17T16:46:02.232Z</time></trkpt><trkpt lat="43.6659267" lon="11.536475"><ele>332.0</ele><time>2026-04-17T16:46:03.232Z</time></trkpt><trkpt lat="43.66588" lon="11.53654"><ele>332.0</ele><time>2026-04-17T16:46:04.232Z</time></trkpt><trkpt lat="43.6658317" lon="11.5366067"><ele>332.0</ele><time>2026-04-17T16:46:05.232Z</time></trkpt><trkpt lat="43.665775" lon="11.5366683"><ele>332.0</ele><time>2026-04-17T16:46:06.233Z</time></trkpt><trkpt lat="43.6657117" lon="11.536725"><ele>332.0</ele><time>2026-04-17T16:46:07.232Z</time></trkpt><trkpt lat="43.665645" lon="11.53677"><ele>332.0</ele><time>2026-04-17T16:46:08.235Z</time></trkpt><trkpt lat="43.6655783" lon="11.5368083"><ele>332.0</ele><time>2026-04-17T16:46:09.232Z</time></trkpt><trkpt lat="43.6655117" lon="11.5368483"><ele>332.0</ele><time>2026-04-17T16:46:10.233Z</time></trkpt><trkpt lat="43.6654483" lon="11.5368867"><ele>332.0</ele><time>2026-04-17T16:46:11.233Z</time></trkpt><trkpt lat="43.6653867" lon="11.5369283"><ele>332.0</ele><time>2026-04-17T16:46:12.234Z</time></trkpt><trkpt lat="43.6653267" lon="11.53697"><ele>332.0</ele><time>2026-04-17T16:46:13.233Z</time></trkpt><trkpt lat="43.6652683" lon="11.53702"><ele>331.57142857142856</ele><time>2026-04-17T16:46:14.234Z</time></trkpt><trkpt lat="43.66522" lon="11.5370817"><ele>331.14285714285717</ele><time>2026-04-17T16:46:15.233Z</time></trkpt><trkpt lat="43.6651817" lon="11.5371567"><ele>330.7142857142857</ele><time>2026-04-17T16:46:16.233Z</time></trkpt><trkpt lat="43.6651533" lon="11.5372417"><ele>330.2857142857143</ele><time>2026-04-17T16:46:17.232Z</time></trkpt><trkpt lat="43.6651367" lon="11.53733"><ele>329.8571428571429</ele><time>2026-04-17T16:46:18.233Z</time></trkpt><trkpt lat="43.665125" lon="11.5374267"><ele>329.42857142857144</ele><time>2026-04-17T16:46:19.231Z</time></trkpt><trkpt lat="43.6651133" lon="11.5375217"><ele>329.0</ele><time>2026-04-17T16:46:20.232Z</time></trkpt><trkpt lat="43.6650983" lon="11.5376117"><ele>329.0</ele><time>2026-04-17T16:46:21.231Z</time></trkpt><trkpt lat="43.66508" lon="11.5377083"><ele>329.0</ele><time>2026-04-17T16:46:22.232Z</time></trkpt><trkpt lat="43.665055" lon="11.5377983"><ele>329.0</ele><time>2026-04-17T16:46:23.233Z</time></trkpt><trkpt lat="43.6650133" lon="11.5378733"><ele>329.0</ele><time>2026-04-17T16:46:24.231Z</time></trkpt><trkpt lat="43.6649633" lon="11.537935"><ele>329.0</ele><time>2026-04-17T16:46:25.233Z</time></trkpt><trkpt lat="43.6649033" lon="11.53799"><ele>329.0</ele><time>2026-04-17T16:46:26.235Z</time></trkpt><trkpt lat="43.66484" lon="11.53804"><ele>329.0</ele><time>2026-04-17T16:46:27.235Z</time></trkpt><trkpt lat="43.66478" lon="11.5380883"><ele>330.33333333333337</ele><time>2026-04-17T16:46:28.231Z</time></trkpt><trkpt lat="43.6646983" lon="11.5382183"><ele>331.6666666666667</ele><time>2026-04-17T16:46:30.231Z</time></trkpt><trkpt lat="43.6646767" lon="11.5383033"><ele>333.0</ele><time>2026-04-17T16:46:31.233Z</time></trkpt><trkpt lat="43.664665" lon="11.5383933"><ele>334.3333333333333</ele><time>2026-04-17T16:46:32.231Z</time></trkpt><trkpt lat="43.6646533" lon="11.5384867"><ele>335.66666666666663</ele><time>2026-04-17T16:46:33.232Z</time></trkpt><trkpt lat="43.6646417" lon="11.538575"><ele>337.0</ele><time>2026-04-17T16:46:34.232Z</time></trkpt><trkpt lat="43.664635" lon="11.5386683"><ele>338.0</ele><time>2026-04-17T16:46:35.231Z</time></trkpt><trkpt lat="43.6646283" lon="11.5387617"><ele>339.0</ele><time>2026-04-17T16:46:36.232Z</time></trkpt><trkpt lat="43.6646183" lon="11.538855"><ele>340.0</ele><time>2026-04-17T16:46:37.231Z</time></trkpt><trkpt lat="43.6646033" lon="11.5389467"><ele>341.0</ele><time>2026-04-17T16:46:38.233Z</time></trkpt><trkpt lat="43.664585" lon="11.5390333"><ele>342.0</ele><time>2026-04-17T16:46:39.232Z</time></trkpt><trkpt lat="43.6645617" lon="11.5391167"><ele>343.0</ele><time>2026-04-17T16:46:40.232Z</time></trkpt><trkpt lat="43.6645033" lon="11.53926"><ele>340.5</ele><time>2026-04-17T16:46:42.232Z</time></trkpt><trkpt lat="43.66443" lon="11.5393833"><ele>338.0</ele><time>2026-04-17T16:46:44.232Z</time></trkpt><trkpt lat="43.664335" lon="11.5394617"><ele>335.5</ele><time>2026-04-17T16:46:46.232Z</time></trkpt><trkpt lat="43.6642217" lon="11.5394917"><ele>333.0</ele><time>2026-04-17T16:46:48.23Z</time></trkpt><trkpt lat="43.6641067" lon="11.5394683"><ele>333.0</ele><time>2026-04-17T16:46:50.231Z</time></trkpt><trkpt lat="43.6640467" lon="11.5394383"><ele>333.0</ele><time>2026-04-17T16:46:51.23Z</time></trkpt><trkpt lat="43.6639283" lon="11.5393717"><ele>333.0</ele><time>2026-04-17T16:46:53.23Z</time></trkpt><trkpt lat="43.66382" lon="11.5392983"><ele>333.0</ele><time>2026-04-17T16:46:55.23Z</time></trkpt><trkpt lat="43.663715" lon="11.5392233"><ele>333.0</ele><time>2026-04-17T16:46:57.23Z</time></trkpt><trkpt lat="43.663615" lon="11.5391517"><ele>334.0</ele><time>2026-04-17T16:46:59.23Z</time></trkpt><trkpt lat="43.6635017" lon="11.5390917"><ele>335.0</ele><time>2026-04-17T16:47:01.23Z</time></trkpt><trkpt lat="43.6633783" lon="11.5390367"><ele>336.0</ele><time>2026-04-17T16:47:03.231Z</time></trkpt><trkpt lat="43.66326" lon="11.5390217"><ele>337.0</ele><time>2026-04-17T16:47:05.23Z</time></trkpt><trkpt lat="43.6631967" lon="11.5390317"><ele>338.0</ele><time>2026-04-17T16:47:06.232Z</time></trkpt><trkpt lat="43.663085" lon="11.539075"><ele>338.0</ele><time>2026-04-17T16:47:08.231Z</time></trkpt><trkpt lat="43.6629817" lon="11.539145"><ele>338.0</ele><time>2026-04-17T16:47:10.233Z</time></trkpt><trkpt lat="43.6628783" lon="11.53924"><ele>338.0</ele><time>2026-04-17T16:47:12.232Z</time></trkpt><trkpt lat="43.6628283" lon="11.5392967"><ele>338.0</ele><time>2026-04-17T16:47:13.23Z</time></trkpt><trkpt lat="43.6627383" lon="11.5394133"><ele>338.0</ele><time>2026-04-17T16:47:15.232Z</time></trkpt><trkpt lat="43.6626917" lon="11.539475"><ele>338.0</ele><time>2026-04-17T16:47:16.231Z</time></trkpt><trkpt lat="43.6626483" lon="11.5395383"><ele>338.0</ele><time>2026-04-17T16:47:17.23Z</time></trkpt><trkpt lat="43.662565" lon="11.5396717"><ele>338.0</ele><time>2026-04-17T16:47:19.231Z</time></trkpt><trkpt lat="43.6625233" lon="11.5397433"><ele>338.0</ele><time>2026-04-17T16:47:20.232Z</time></trkpt><trkpt lat="43.6624883" lon="11.5398167"><ele>338.0</ele><time>2026-04-17T16:47:21.234Z</time></trkpt><trkpt lat="43.6624317" lon="11.5399683"><ele>338.0</ele><time>2026-04-17T16:47:23.23Z</time></trkpt><trkpt lat="43.6623983" lon="11.540135"><ele>338.0</ele><time>2026-04-17T16:47:25.231Z</time></trkpt><trkpt lat="43.66239" lon="11.5403067"><ele>338.0</ele><time>2026-04-17T16:47:27.231Z</time></trkpt><trkpt lat="43.6624067" lon="11.540475"><ele>338.0</ele><time>2026-04-17T16:47:29.232Z</time></trkpt><trkpt lat="43.6624367" lon="11.5406383"><ele>338.0</ele><time>2026-04-17T16:47:31.232Z</time></trkpt><trkpt lat="43.6624867" lon="11.5407833"><ele>338.79999999999995</ele><time>2026-04-17T16:47:33.231Z</time></trkpt><trkpt lat="43.6625483" lon="11.54093"><ele>339.6</ele><time>2026-04-17T16:47:35.231Z</time></trkpt><trkpt lat="43.6625733" lon="11.541015"><ele>340.4</ele><time>2026-04-17T16:47:36.228Z</time></trkpt><trkpt lat="43.662585" lon="11.541105"><ele>341.20000000000005</ele><time>2026-04-17T16:47:37.231Z</time></trkpt><trkpt lat="43.6625483" lon="11.5412567"><ele>342.0</ele><time>2026-04-17T16:47:39.231Z</time></trkpt><trkpt lat="43.6624483" lon="11.5413417"><ele>342.0</ele><time>2026-04-17T16:47:41.233Z</time></trkpt><trkpt lat="43.6623283" lon="11.54131"><ele>342.0</ele><time>2026-04-17T16:47:43.233Z</time></trkpt><trkpt lat="43.6622683" lon="11.5412633"><ele>342.0</ele><time>2026-04-17T16:47:44.231Z</time></trkpt><trkpt lat="43.6622183" lon="11.54121"><ele>342.0</ele><time>2026-04-17T16:47:45.23Z</time></trkpt><trkpt lat="43.662115" lon="11.541115"><ele>342.0</ele><time>2026-04-17T16:47:47.231Z</time></trkpt><trkpt lat="43.662015" lon="11.5410217"><ele>342.1666666666667</ele><time>2026-04-17T16:47:49.23Z</time></trkpt><trkpt lat="43.661925" lon="11.5409033"><ele>342.3333333333333</ele><time>2026-04-17T16:47:51.231Z</time></trkpt><trkpt lat="43.661875" lon="11.5408383"><ele>342.5</ele><time>2026-04-17T16:47:52.23Z</time></trkpt><trkpt lat="43.6618167" lon="11.5407817"><ele>342.66666666666663</ele><time>2026-04-17T16:47:53.233Z</time></trkpt><trkpt lat="43.6617567" lon="11.540735"><ele>342.8333333333333</ele><time>2026-04-17T16:47:54.232Z</time></trkpt><trkpt lat="43.6616967" lon="11.5406967"><ele>343.0</ele><time>2026-04-17T16:47:55.231Z</time></trkpt><trkpt lat="43.6616317" lon="11.5406667"><ele>343.0</ele><time>2026-04-17T16:47:56.232Z</time></trkpt><trkpt lat="43.66157" lon="11.5406417"><ele>343.0</ele><time>2026-04-17T16:47:57.232Z</time></trkpt><trkpt lat="43.6615083" lon="11.5406233"><ele>343.0</ele><time>2026-04-17T16:47:58.23Z</time></trkpt><trkpt lat="43.6613867" lon="11.5405867"><ele>343.0</ele><time>2026-04-17T16:48:00.233Z</time></trkpt><trkpt lat="43.66127" lon="11.5405467"><ele>343.0</ele><time>2026-04-17T16:48:02.233Z</time></trkpt><trkpt lat="43.6611567" lon="11.5405117"><ele>343.5</ele><time>2026-04-17T16:48:04.233Z</time></trkpt><trkpt lat="43.6610433" lon="11.5404733"><ele>344.0</ele><time>2026-04-17T16:48:06.234Z</time></trkpt><trkpt lat="43.66094" lon="11.54043"><ele>344.5</ele><time>2026-04-17T16:48:08.232Z</time></trkpt><trkpt lat="43.660825" lon="11.5404067"><ele>345.0</ele><time>2026-04-17T16:48:10.23Z</time></trkpt><trkpt lat="43.6607167" lon="11.5404283"><ele>345.0</ele><time>2026-04-17T16:48:12.233Z</time></trkpt><trkpt lat="43.66062" lon="11.5405033"><ele>345.0</ele><time>2026-04-17T16:48:14.234Z</time></trkpt><trkpt lat="43.6605217" lon="11.5405983"><ele>345.0</ele><time>2026-04-17T16:48:16.232Z</time></trkpt><trkpt lat="43.66042" lon="11.5406883"><ele>345.0</ele><time>2026-04-17T16:48:18.235Z</time></trkpt><trkpt lat="43.6603167" lon="11.5407667"><ele>343.25</ele><time>2026-04-17T16:48:20.231Z</time></trkpt><trkpt lat="43.66022" lon="11.5408583"><ele>341.5</ele><time>2026-04-17T16:48:22.233Z</time></trkpt><trkpt lat="43.6601283" lon="11.54095"><ele>339.75</ele><time>2026-04-17T16:48:24.23Z</time></trkpt><trkpt lat="43.660035" lon="11.5410417"><ele>338.0</ele><time>2026-04-17T16:48:26.231Z</time></trkpt><trkpt lat="43.6599633" lon="11.5411683"><ele>339.59999999999997</ele><time>2026-04-17T16:48:28.232Z</time></trkpt><trkpt lat="43.6599267" lon="11.5413067"><ele>341.2</ele><time>2026-04-17T16:48:30.232Z</time></trkpt><trkpt lat="43.6599083" lon="11.5414517"><ele>342.8</ele><time>2026-04-17T16:48:32.231Z</time></trkpt><trkpt lat="43.6599" lon="11.541595"><ele>344.4</ele><time>2026-04-17T16:48:34.232Z</time></trkpt><trkpt lat="43.6598867" lon="11.54173"><ele>346.0</ele><time>2026-04-17T16:48:36.232Z</time></trkpt><trkpt lat="43.65987" lon="11.5418817"><ele>346.0</ele><time>2026-04-17T16:48:38.229Z</time></trkpt><trkpt lat="43.6598683" lon="11.5420367"><ele>346.0</ele><time>2026-04-17T16:48:40.23Z</time></trkpt><trkpt lat="43.65987" lon="11.542185"><ele>346.0</ele><time>2026-04-17T16:48:42.233Z</time></trkpt><trkpt lat="43.65989" lon="11.5423433"><ele>346.0</ele><time>2026-04-17T16:48:44.23Z</time></trkpt><trkpt lat="43.6599" lon="11.542435"><ele>346.0</ele><time>2026-04-17T16:48:45.23Z</time></trkpt><trkpt lat="43.65991" lon="11.5425233"><ele>347.0</ele><time>2026-04-17T16:48:46.231Z</time></trkpt><trkpt lat="43.6599167" lon="11.5426117"><ele>348.0</ele><time>2026-04-17T16:48:47.229Z</time></trkpt><trkpt lat="43.6599217" lon="11.5427717"><ele>349.0</ele><time>2026-04-17T16:48:49.229Z</time></trkpt><trkpt lat="43.6599183" lon="11.54286"><ele>350.0</ele><time>2026-04-17T16:48:50.229Z</time></trkpt><trkpt lat="43.6598667" lon="11.5429867"><ele>351.0</ele><time>2026-04-17T16:48:52.23Z</time></trkpt><trkpt lat="43.6597567" lon="11.5430333"><ele>351.0</ele><time>2026-04-17T16:48:54.23Z</time></trkpt><trkpt lat="43.659655" lon="11.54298"><ele>351.0</ele><time>2026-04-17T16:48:56.23Z</time></trkpt><trkpt lat="43.6595717" lon="11.542865"><ele>351.0</ele><time>2026-04-17T16:48:58.23Z</time></trkpt><trkpt lat="43.659495" lon="11.5427617"><ele>351.0</ele><time>2026-04-17T16:49:00.231Z</time></trkpt><trkpt lat="43.6593933" lon="11.5426667"><ele>351.5</ele><time>2026-04-17T16:49:02.232Z</time></trkpt><trkpt lat="43.65929" lon="11.542575"><ele>352.0</ele><time>2026-04-17T16:49:04.23Z</time></trkpt><trkpt lat="43.6592017" lon="11.5424717"><ele>352.5</ele><time>2026-04-17T16:49:06.231Z</time></trkpt><trkpt lat="43.659105" lon="11.542365"><ele>353.0</ele><time>2026-04-17T16:49:08.23Z</time></trkpt><trkpt lat="43.6590217" lon="11.542245"><ele>353.0</ele><time>2026-04-17T16:49:10.231Z</time></trkpt><trkpt lat="43.6589383" lon="11.5421167"><ele>353.0</ele><time>2026-04-17T16:49:12.232Z</time></trkpt><trkpt lat="43.6588583" lon="11.5419967"><ele>353.0</ele><time>2026-04-17T16:49:14.231Z</time></trkpt><trkpt lat="43.6588067" lon="11.541945"><ele>353.0</ele><time>2026-04-17T16:49:15.23Z</time></trkpt><trkpt lat="43.658685" lon="11.5419033"><ele>353.0</ele><time>2026-04-17T16:49:17.23Z</time></trkpt><trkpt lat="43.65862" lon="11.5418983"><ele>351.4285714285714</ele><time>2026-04-17T16:49:18.229Z</time></trkpt><trkpt lat="43.658555" lon="11.5419017"><ele>349.8571428571429</ele><time>2026-04-17T16:49:19.229Z</time></trkpt><trkpt lat="43.6584883" lon="11.5419083"><ele>348.2857142857143</ele><time>2026-04-17T16:49:20.231Z</time></trkpt><trkpt lat="43.65842" lon="11.5419133"><ele>346.71428571428567</ele><time>2026-04-17T16:49:21.232Z</time></trkpt><trkpt lat="43.6583533" lon="11.5419183"><ele>345.1428571428571</ele><time>2026-04-17T16:49:22.232Z</time></trkpt><trkpt lat="43.6582883" lon="11.541925"><ele>343.57142857142856</ele><time>2026-04-17T16:49:23.233Z</time></trkpt><trkpt lat="43.65822" lon="11.54193"><ele>342.0</ele><time>2026-04-17T16:49:24.233Z</time></trkpt><trkpt lat="43.658155" lon="11.5419383"><ele>341.99999999999994</ele><time>2026-04-17T16:49:25.233Z</time></trkpt><trkpt lat="43.658085" lon="11.541945"><ele>342.0</ele><time>2026-04-17T16:49:26.233Z</time></trkpt><trkpt lat="43.6580183" lon="11.54195"><ele>342.0</ele><time>2026-04-17T16:49:27.232Z</time></trkpt><trkpt lat="43.657955" lon="11.5419533"><ele>342.0</ele><time>2026-04-17T16:49:28.232Z</time></trkpt><trkpt lat="43.65789" lon="11.54196"><ele>342.0</ele><time>2026-04-17T16:49:29.234Z</time></trkpt><trkpt lat="43.6578267" lon="11.5419683"><ele>341.99999999999994</ele><time>2026-04-17T16:49:30.231Z</time></trkpt><trkpt lat="43.6577633" lon="11.5419817"><ele>342.0</ele><time>2026-04-17T16:49:31.234Z</time></trkpt><trkpt lat="43.657645" lon="11.5420417"><ele>342.8333333333333</ele><time>2026-04-17T16:49:33.232Z</time></trkpt><trkpt lat="43.657585" lon="11.542085"><ele>343.6666666666667</ele><time>2026-04-17T16:49:34.231Z</time></trkpt><trkpt lat="43.6575033" lon="11.5422267"><ele>344.5</ele><time>2026-04-17T16:49:36.232Z</time></trkpt><trkpt lat="43.6574633" lon="11.5423117"><ele>345.33333333333337</ele><time>2026-04-17T16:49:37.232Z</time></trkpt><trkpt lat="43.6574367" lon="11.5423983"><ele>346.1666666666667</ele><time>2026-04-17T16:49:38.234Z</time></trkpt><trkpt lat="43.65742" lon="11.5424883"><ele>347.0</ele><time>2026-04-17T16:49:39.234Z</time></trkpt><trkpt lat="43.6574067" lon="11.5425817"><ele>347.0</ele><time>2026-04-17T16:49:40.231Z</time></trkpt><trkpt lat="43.6573967" lon="11.5426783"><ele>347.0</ele><time>2026-04-17T16:49:41.232Z</time></trkpt><trkpt lat="43.6573883" lon="11.5427683"><ele>347.0</ele><time>2026-04-17T16:49:42.233Z</time></trkpt><trkpt lat="43.6573833" lon="11.542935"><ele>347.0</ele><time>2026-04-17T16:49:44.233Z</time></trkpt><trkpt lat="43.6573817" lon="11.5431083"><ele>347.0</ele><time>2026-04-17T16:49:46.233Z</time></trkpt><trkpt lat="43.6573883" lon="11.5432783"><ele>348.20000000000005</ele><time>2026-04-17T16:49:48.233Z</time></trkpt><trkpt lat="43.6574" lon="11.5434333"><ele>349.4</ele><time>2026-04-17T16:49:50.234Z</time></trkpt><trkpt lat="43.6574067" lon="11.54352"><ele>350.6</ele><time>2026-04-17T16:49:51.232Z</time></trkpt><trkpt lat="43.6574117" lon="11.5436967"><ele>351.79999999999995</ele><time>2026-04-17T16:49:53.23Z</time></trkpt><trkpt lat="43.6573883" lon="11.5438633"><ele>353.0</ele><time>2026-04-17T16:49:55.232Z</time></trkpt><trkpt lat="43.65736" lon="11.5440267"><ele>355.25</ele><time>2026-04-17T16:49:57.233Z</time></trkpt><trkpt lat="43.657325" lon="11.5441817"><ele>357.5</ele><time>2026-04-17T16:49:59.232Z</time></trkpt><trkpt lat="43.6572867" lon="11.5443383"><ele>359.75</ele><time>2026-04-17T16:50:01.233Z</time></trkpt><trkpt lat="43.657235" lon="11.54447"><ele>362.0</ele><time>2026-04-17T16:50:03.231Z</time></trkpt><trkpt lat="43.657135" lon="11.5445467"><ele>362.0</ele><time>2026-04-17T16:50:05.232Z</time></trkpt><trkpt lat="43.657025" lon="11.5445117"><ele>362.0</ele><time>2026-04-17T16:50:07.232Z</time></trkpt><trkpt lat="43.6569167" lon="11.5444417"><ele>362.0</ele><time>2026-04-17T16:50:09.232Z</time></trkpt><trkpt lat="43.6568033" lon="11.544365"><ele>362.0</ele><time>2026-04-17T16:50:11.234Z</time></trkpt><trkpt lat="43.656745" lon="11.5443217"><ele>362.0</ele><time>2026-04-17T16:50:12.235Z</time></trkpt><trkpt lat="43.6566917" lon="11.54427"><ele>360.40000000000003</ele><time>2026-04-17T16:50:13.233Z</time></trkpt><trkpt lat="43.656605" lon="11.5441467"><ele>358.8</ele><time>2026-04-17T16:50:15.232Z</time></trkpt><trkpt lat="43.6565583" lon="11.544085"><ele>357.2</ele><time>2026-04-17T16:50:16.233Z</time></trkpt><trkpt lat="43.6565117" lon="11.544025"><ele>355.6</ele><time>2026-04-17T16:50:17.232Z</time></trkpt><trkpt lat="43.656415" lon="11.5439"><ele>354.0</ele><time>2026-04-17T16:50:19.232Z</time></trkpt><trkpt lat="43.6563633" lon="11.5438267"><ele>354.0</ele><time>2026-04-17T16:50:20.231Z</time></trkpt><trkpt lat="43.6563117" lon="11.5437467"><ele>354.0</ele><time>2026-04-17T16:50:21.232Z</time></trkpt><trkpt lat="43.6562667" lon="11.5436617"><ele>354.0</ele><time>2026-04-17T16:50:22.233Z</time></trkpt><trkpt lat="43.6562417" lon="11.54357"><ele>354.0</ele><time>2026-04-17T16:50:23.232Z</time></trkpt><trkpt lat="43.6562283" lon="11.5434733"><ele>354.0</ele><time>2026-04-17T16:50:24.233Z</time></trkpt><trkpt lat="43.656235" lon="11.54338"><ele>354.0</ele><time>2026-04-17T16:50:25.23Z</time></trkpt><trkpt lat="43.6562483" lon="11.5432867"><ele>354.0</ele><time>2026-04-17T16:50:26.234Z</time></trkpt><trkpt lat="43.65626" lon="11.54319"><ele>352.5714285714286</ele><time>2026-04-17T16:50:27.232Z</time></trkpt><trkpt lat="43.6562683" lon="11.543095"><ele>351.1428571428571</ele><time>2026-04-17T16:50:28.229Z</time></trkpt><trkpt lat="43.6562733" lon="11.5429983"><ele>349.7142857142857</ele><time>2026-04-17T16:50:29.231Z</time></trkpt><trkpt lat="43.6562733" lon="11.5429017"><ele>348.28571428571433</ele><time>2026-04-17T16:50:30.231Z</time></trkpt><trkpt lat="43.656265" lon="11.542805"><ele>346.8571428571429</ele><time>2026-04-17T16:50:31.232Z</time></trkpt><trkpt lat="43.65625" lon="11.54271"><ele>345.42857142857144</ele><time>2026-04-17T16:50:32.232Z</time></trkpt><trkpt lat="43.6562317" lon="11.5426217"><ele>344.0</ele><time>2026-04-17T16:50:33.232Z</time></trkpt><trkpt lat="43.6562117" lon="11.5425317"><ele>343.5</ele><time>2026-04-17T16:50:34.233Z</time></trkpt><trkpt lat="43.65619" lon="11.5424383"><ele>343.0</ele><time>2026-04-17T16:50:35.231Z</time></trkpt><trkpt lat="43.6561633" lon="11.54235"><ele>342.5</ele><time>2026-04-17T16:50:36.232Z</time></trkpt><trkpt lat="43.6561283" lon="11.5422733"><ele>342.0</ele><time>2026-04-17T16:50:37.231Z</time></trkpt><trkpt lat="43.65602" lon="11.5421717"><ele>341.5</ele><time>2026-04-17T16:50:39.231Z</time></trkpt><trkpt lat="43.6559517" lon="11.54215"><ele>341.0</ele><time>2026-04-17T16:50:40.231Z</time></trkpt><trkpt lat="43.6558767" lon="11.5421517"><ele>342.57142857142856</ele><time>2026-04-17T16:50:41.23Z</time></trkpt><trkpt lat="43.6558033" lon="11.54218"><ele>344.14285714285717</ele><time>2026-04-17T16:50:42.232Z</time></trkpt><trkpt lat="43.655735" lon="11.542225"><ele>345.7142857142857</ele><time>2026-04-17T16:50:43.235Z</time></trkpt><trkpt lat="43.6556783" lon="11.5422867"><ele>347.2857142857143</ele><time>2026-04-17T16:50:44.233Z</time></trkpt><trkpt lat="43.6556333" lon="11.5423617"><ele>348.85714285714283</ele><time>2026-04-17T16:50:45.231Z</time></trkpt><trkpt lat="43.655585" lon="11.5424417"><ele>350.42857142857144</ele><time>2026-04-17T16:50:46.231Z</time></trkpt><trkpt lat="43.65554" lon="11.5425217"><ele>352.0</ele><time>2026-04-17T16:50:47.231Z</time></trkpt><trkpt lat="43.655495" lon="11.542605"><ele>352.0</ele><time>2026-04-17T16:50:48.231Z</time></trkpt><trkpt lat="43.6554533" lon="11.542685"><ele>352.0</ele><time>2026-04-17T16:50:49.231Z</time></trkpt><trkpt lat="43.6554033" lon="11.54276"><ele>352.0</ele><time>2026-04-17T16:50:50.232Z</time></trkpt><trkpt lat="43.6553467" lon="11.5428217"><ele>352.0</ele><time>2026-04-17T16:50:51.232Z</time></trkpt><trkpt lat="43.6552817" lon="11.5428567"><ele>352.0</ele><time>2026-04-17T16:50:52.231Z</time></trkpt><trkpt lat="43.6552133" lon="11.5428783"><ele>352.0</ele><time>2026-04-17T16:50:53.231Z</time></trkpt><trkpt lat="43.65514" lon="11.5428783"><ele>352.0</ele><time>2026-04-17T16:50:54.231Z</time></trkpt><trkpt lat="43.65507" lon="11.5428717"><ele>351.0</ele><time>2026-04-17T16:50:55.232Z</time></trkpt><trkpt lat="43.655" lon="11.5428717"><ele>350.0</ele><time>2026-04-17T16:50:56.232Z</time></trkpt><trkpt lat="43.6549317" lon="11.542885"><ele>349.0</ele><time>2026-04-17T16:50:57.231Z</time></trkpt><trkpt lat="43.654865" lon="11.5429117"><ele>348.0</ele><time>2026-04-17T16:50:58.232Z</time></trkpt><trkpt lat="43.654805" lon="11.54295"><ele>347.0</ele><time>2026-04-17T16:50:59.23Z</time></trkpt><trkpt lat="43.6547483" lon="11.5429967"><ele>346.0</ele><time>2026-04-17T16:51:00.234Z</time></trkpt><trkpt lat="43.6546933" lon="11.5430467"><ele>345.0</ele><time>2026-04-17T16:51:01.231Z</time></trkpt><trkpt lat="43.6546383" lon="11.5431033"><ele>345.0</ele><time>2026-04-17T16:51:02.232Z</time></trkpt><trkpt lat="43.6545867" lon="11.5431633"><ele>345.0</ele><time>2026-04-17T16:51:03.231Z</time></trkpt><trkpt lat="43.654535" lon="11.5432283"><ele>345.0</ele><time>2026-04-17T16:51:04.233Z</time></trkpt><trkpt lat="43.6544867" lon="11.5433017"><ele>345.0</ele><time>2026-04-17T16:51:05.231Z</time></trkpt><trkpt lat="43.6544433" lon="11.543375"><ele>345.0</ele><time>2026-04-17T16:51:06.232Z</time></trkpt><trkpt lat="43.6544067" lon="11.54345"><ele>345.0</ele><time>2026-04-17T16:51:07.23Z</time></trkpt><trkpt lat="43.6543367" lon="11.543595"><ele>345.0</ele><time>2026-04-17T16:51:09.234Z</time></trkpt><trkpt lat="43.6543067" lon="11.5436733"><ele>345.0</ele><time>2026-04-17T16:51:10.233Z</time></trkpt><trkpt lat="43.6542783" lon="11.5437567"><ele>345.0</ele><time>2026-04-17T16:51:11.232Z</time></trkpt><trkpt lat="43.654255" lon="11.5438433"><ele>345.0</ele><time>2026-04-17T16:51:12.231Z</time></trkpt><trkpt lat="43.654235" lon="11.5439333"><ele>345.0</ele><time>2026-04-17T16:51:13.232Z</time></trkpt><trkpt lat="43.654225" lon="11.54403"><ele>345.0</ele><time>2026-04-17T16:51:14.233Z</time></trkpt><trkpt lat="43.654225" lon="11.544125"><ele>345.0</ele><time>2026-04-17T16:51:15.233Z</time></trkpt><trkpt lat="43.6542283" lon="11.5442233"><ele>346.14285714285717</ele><time>2026-04-17T16:51:16.231Z</time></trkpt><trkpt lat="43.6542317" lon="11.5443183"><ele>347.2857142857143</ele><time>2026-04-17T16:51:17.233Z</time></trkpt><trkpt lat="43.6542233" lon="11.54441"><ele>348.42857142857144</ele><time>2026-04-17T16:51:18.232Z</time></trkpt><trkpt lat="43.6542" lon="11.5444983"><ele>349.57142857142856</ele><time>2026-04-17T16:51:19.231Z</time></trkpt><trkpt lat="43.654155" lon="11.5445667"><ele>350.7142857142857</ele><time>2026-04-17T16:51:20.232Z</time></trkpt><trkpt lat="43.6541" lon="11.5446183"><ele>351.85714285714283</ele><time>2026-04-17T16:51:21.232Z</time></trkpt><trkpt lat="43.6540383" lon="11.5446517"><ele>353.0</ele><time>2026-04-17T16:51:22.232Z</time></trkpt><trkpt lat="43.653975" lon="11.5446733"><ele>354.83333333333337</ele><time>2026-04-17T16:51:23.233Z</time></trkpt><trkpt lat="43.6539117" lon="11.54469"><ele>356.6666666666667</ele><time>2026-04-17T16:51:24.231Z</time></trkpt><trkpt lat="43.65385" lon="11.5447183"><ele>358.5</ele><time>2026-04-17T16:51:25.23Z</time></trkpt><trkpt lat="43.6537617" lon="11.5448267"><ele>360.3333333333333</ele><time>2026-04-17T16:51:27.231Z</time></trkpt><trkpt lat="43.65373" lon="11.5449083"><ele>362.16666666666663</ele><time>2026-04-17T16:51:28.229Z</time></trkpt><trkpt lat="43.6537133" lon="11.545"><ele>364.0</ele><time>2026-04-17T16:51:29.231Z</time></trkpt><trkpt lat="43.6537033" lon="11.5450917"><ele>364.0</ele><time>2026-04-17T16:51:30.231Z</time></trkpt><trkpt lat="43.6536983" lon="11.5451883"><ele>364.0</ele><time>2026-04-17T16:51:31.23Z</time></trkpt><trkpt lat="43.6536967" lon="11.5452817"><ele>364.0</ele><time>2026-04-17T16:51:32.231Z</time></trkpt><trkpt lat="43.6536733" lon="11.545445"><ele>364.0</ele><time>2026-04-17T16:51:34.231Z</time></trkpt><trkpt lat="43.6535733" lon="11.5455317"><ele>364.0</ele><time>2026-04-17T16:51:36.232Z</time></trkpt><trkpt lat="43.65351" lon="11.54555"><ele>364.0</ele><time>2026-04-17T16:51:37.231Z</time></trkpt><trkpt lat="43.6534467" lon="11.5455633"><ele>363.79999999999995</ele><time>2026-04-17T16:51:38.231Z</time></trkpt><trkpt lat="43.6533267" lon="11.5455917"><ele>363.59999999999997</ele><time>2026-04-17T16:51:40.231Z</time></trkpt><trkpt lat="43.653265" lon="11.5456133"><ele>363.4</ele><time>2026-04-17T16:51:41.231Z</time></trkpt><trkpt lat="43.6531467" lon="11.5456567"><ele>363.2</ele><time>2026-04-17T16:51:43.23Z</time></trkpt><trkpt lat="43.653025" lon="11.5456683"><ele>363.0</ele><time>2026-04-17T16:51:45.232Z</time></trkpt><trkpt lat="43.652905" lon="11.5456133"><ele>363.0</ele><time>2026-04-17T16:51:47.231Z</time></trkpt><trkpt lat="43.6528433" lon="11.5455783"><ele>363.0</ele><time>2026-04-17T16:51:48.231Z</time></trkpt><trkpt lat="43.65278" lon="11.5455433"><ele>363.0</ele><time>2026-04-17T16:51:49.229Z</time></trkpt><trkpt lat="43.6526633" lon="11.5454967"><ele>363.0</ele><time>2026-04-17T16:51:51.229Z</time></trkpt><trkpt lat="43.65254" lon="11.54551"><ele>363.0</ele><time>2026-04-17T16:51:53.232Z</time></trkpt><trkpt lat="43.652475" lon="11.5455333"><ele>363.0</ele><time>2026-04-17T16:51:54.233Z</time></trkpt><trkpt lat="43.65241" lon="11.545565"><ele>362.4285714285714</ele><time>2026-04-17T16:51:55.232Z</time></trkpt><trkpt lat="43.652345" lon="11.5456117"><ele>361.85714285714283</ele><time>2026-04-17T16:51:56.235Z</time></trkpt><trkpt lat="43.652285" lon="11.5456683"><ele>361.2857142857143</ele><time>2026-04-17T16:51:57.234Z</time></trkpt><trkpt lat="43.65223" lon="11.5457317"><ele>360.71428571428567</ele><time>2026-04-17T16:51:58.233Z</time></trkpt><trkpt lat="43.6521867" lon="11.545805"><ele>360.14285714285717</ele><time>2026-04-17T16:51:59.235Z</time></trkpt><trkpt lat="43.65215" lon="11.545885"><ele>359.57142857142856</ele><time>2026-04-17T16:52:00.23Z</time></trkpt><trkpt lat="43.6521233" lon="11.5459683"><ele>359.0</ele><time>2026-04-17T16:52:01.23Z</time></trkpt><trkpt lat="43.6520983" lon="11.5460583"><ele>359.0</ele><time>2026-04-17T16:52:02.231Z</time></trkpt><trkpt lat="43.65208" lon="11.5461467"><ele>359.0</ele><time>2026-04-17T16:52:03.231Z</time></trkpt><trkpt lat="43.65207" lon="11.546235"><ele>359.0</ele><time>2026-04-17T16:52:04.23Z</time></trkpt><trkpt lat="43.6520617" lon="11.5463267"><ele>359.0</ele><time>2026-04-17T16:52:05.23Z</time></trkpt><trkpt lat="43.6520567" lon="11.5464167"><ele>359.0</ele><time>2026-04-17T16:52:06.23Z</time></trkpt><trkpt lat="43.6520483" lon="11.5465867"><ele>359.0</ele><time>2026-04-17T16:52:08.231Z</time></trkpt><trkpt lat="43.652035" lon="11.54676"><ele>358.33333333333337</ele><time>2026-04-17T16:52:10.23Z</time></trkpt><trkpt lat="43.6520133" lon="11.5468467"><ele>357.6666666666667</ele><time>2026-04-17T16:52:11.231Z</time></trkpt><trkpt lat="43.651985" lon="11.54693"><ele>357.0</ele><time>2026-04-17T16:52:12.231Z</time></trkpt><trkpt lat="43.651955" lon="11.5470167"><ele>356.3333333333333</ele><time>2026-04-17T16:52:13.231Z</time></trkpt><trkpt lat="43.6519217" lon="11.5471017"><ele>355.66666666666663</ele><time>2026-04-17T16:52:14.23Z</time></trkpt><trkpt lat="43.6518917" lon="11.5471867"><ele>355.0</ele><time>2026-04-17T16:52:15.23Z</time></trkpt><trkpt lat="43.6518517" lon="11.547345"><ele>356.42857142857144</ele><time>2026-04-17T16:52:17.232Z</time></trkpt><trkpt lat="43.651835" lon="11.5474333"><ele>357.8571428571429</ele><time>2026-04-17T16:52:18.23Z</time></trkpt><trkpt lat="43.6518183" lon="11.54752"><ele>359.28571428571433</ele><time>2026-04-17T16:52:19.229Z</time></trkpt><trkpt lat="43.6518033" lon="11.54761"><ele>360.7142857142857</ele><time>2026-04-17T16:52:20.231Z</time></trkpt><trkpt lat="43.65179" lon="11.5477017"><ele>362.14285714285717</ele><time>2026-04-17T16:52:21.229Z</time></trkpt><trkpt lat="43.65177" lon="11.5477917"><ele>363.5714285714286</ele><time>2026-04-17T16:52:22.231Z</time></trkpt><trkpt lat="43.6517433" lon="11.5478783"><ele>365.0</ele><time>2026-04-17T16:52:23.228Z</time></trkpt><trkpt lat="43.6516767" lon="11.5480217"><ele>365.5714285714286</ele><time>2026-04-17T16:52:25.23Z</time></trkpt><trkpt lat="43.651625" lon="11.54809"><ele>366.14285714285717</ele><time>2026-04-17T16:52:26.234Z</time></trkpt><trkpt lat="43.651565" lon="11.5481483"><ele>366.7142857142857</ele><time>2026-04-17T16:52:27.232Z</time></trkpt><trkpt lat="43.6515017" lon="11.548195"><ele>367.28571428571433</ele><time>2026-04-17T16:52:28.235Z</time></trkpt><trkpt lat="43.651435" lon="11.5482483"><ele>367.85714285714283</ele><time>2026-04-17T16:52:29.231Z</time></trkpt><trkpt lat="43.6513867" lon="11.5483217"><ele>368.42857142857144</ele><time>2026-04-17T16:52:30.232Z</time></trkpt><trkpt lat="43.651355" lon="11.5484083"><ele>369.0</ele><time>2026-04-17T16:52:31.229Z</time></trkpt><trkpt lat="43.6513517" lon="11.548505"><ele>369.0</ele><time>2026-04-17T16:52:32.233Z</time></trkpt><trkpt lat="43.6513567" lon="11.5485967"><ele>369.0</ele><time>2026-04-17T16:52:33.229Z</time></trkpt><trkpt lat="43.6513683" lon="11.5486883"><ele>369.0</ele><time>2026-04-17T16:52:34.23Z</time></trkpt><trkpt lat="43.6513883" lon="11.5487717"><ele>369.0</ele><time>2026-04-17T16:52:35.232Z</time></trkpt><trkpt lat="43.6514117" lon="11.5488617"><ele>369.0</ele><time>2026-04-17T16:52:36.231Z</time></trkpt><trkpt lat="43.6514383" lon="11.5489483"><ele>369.0</ele><time>2026-04-17T16:52:37.231Z</time></trkpt><trkpt lat="43.65146" lon="11.5490317"><ele>369.0</ele><time>2026-04-17T16:52:38.231Z</time></trkpt><trkpt lat="43.651485" lon="11.5491167"><ele>369.5</ele><time>2026-04-17T16:52:39.231Z</time></trkpt><trkpt lat="43.6515133" lon="11.5492017"><ele>370.0</ele><time>2026-04-17T16:52:40.232Z</time></trkpt><trkpt lat="43.6515417" lon="11.5492867"><ele>370.5</ele><time>2026-04-17T16:52:41.23Z</time></trkpt><trkpt lat="43.6515633" lon="11.5493717"><ele>371.0</ele><time>2026-04-17T16:52:42.23Z</time></trkpt><trkpt lat="43.6515733" lon="11.549545"><ele>371.5</ele><time>2026-04-17T16:52:44.231Z</time></trkpt><trkpt lat="43.6515083" lon="11.5496733"><ele>372.0</ele><time>2026-04-17T16:52:46.23Z</time></trkpt><trkpt lat="43.6514" lon="11.5496817"><ele>372.6666666666667</ele><time>2026-04-17T16:52:48.234Z</time></trkpt><trkpt lat="43.6513133" lon="11.5496267"><ele>373.3333333333333</ele><time>2026-04-17T16:52:50.232Z</time></trkpt><trkpt lat="43.6512333" lon="11.54959"><ele>374.0</ele><time>2026-04-17T16:52:52.231Z</time></trkpt><trkpt lat="43.6511267" lon="11.5495917"><ele>374.66666666666663</ele><time>2026-04-17T16:52:54.234Z</time></trkpt><trkpt lat="43.6510617" lon="11.549605"><ele>375.3333333333333</ele><time>2026-04-17T16:52:55.232Z</time></trkpt><trkpt lat="43.6509983" lon="11.5496233"><ele>376.0</ele><time>2026-04-17T16:52:56.231Z</time></trkpt><trkpt lat="43.6509333" lon="11.5496367"><ele>376.0</ele><time>2026-04-17T16:52:57.231Z</time></trkpt><trkpt lat="43.650865" lon="11.5496383"><ele>376.0</ele><time>2026-04-17T16:52:58.23Z</time></trkpt><trkpt lat="43.6508033" lon="11.54962"><ele>376.0</ele><time>2026-04-17T16:52:59.232Z</time></trkpt><trkpt lat="43.650735" lon="11.54959"><ele>376.0</ele><time>2026-04-17T16:53:00.23Z</time></trkpt><trkpt lat="43.65067" lon="11.5495533"><ele>376.0</ele><time>2026-04-17T16:53:01.232Z</time></trkpt><trkpt lat="43.6506067" lon="11.54951"><ele>376.0</ele><time>2026-04-17T16:53:02.232Z</time></trkpt><trkpt lat="43.6505483" lon="11.5494617"><ele>376.0</ele><time>2026-04-17T16:53:03.231Z</time></trkpt><trkpt lat="43.6504883" lon="11.54941"><ele>374.5</ele><time>2026-04-17T16:53:04.229Z</time></trkpt><trkpt lat="43.6504333" lon="11.5493583"><ele>373.0</ele><time>2026-04-17T16:53:05.231Z</time></trkpt><trkpt lat="43.650375" lon="11.5493117"><ele>371.5</ele><time>2026-04-17T16:53:06.232Z</time></trkpt><trkpt lat="43.6502617" lon="11.5492317"><ele>370.0</ele><time>2026-04-17T16:53:08.231Z</time></trkpt><trkpt lat="43.6502033" lon="11.5491933"><ele>368.5</ele><time>2026-04-17T16:53:09.232Z</time></trkpt><trkpt lat="43.6500967" lon="11.5491133"><ele>367.0</ele><time>2026-04-17T16:53:11.23Z</time></trkpt><trkpt lat="43.64999" lon="11.5490383"><ele>367.0</ele><time>2026-04-17T16:53:13.232Z</time></trkpt><trkpt lat="43.649885" lon="11.5489683"><ele>367.0</ele><time>2026-04-17T16:53:15.232Z</time></trkpt><trkpt lat="43.6497717" lon="11.548895"><ele>367.0</ele><time>2026-04-17T16:53:17.231Z</time></trkpt><trkpt lat="43.6497083" lon="11.5488567"><ele>367.0</ele><time>2026-04-17T16:53:18.231Z</time></trkpt><trkpt lat="43.6495967" lon="11.5487967"><ele>367.0</ele><time>2026-04-17T16:53:20.232Z</time></trkpt><trkpt lat="43.6494917" lon="11.5487533"><ele>366.6</ele><time>2026-04-17T16:53:22.232Z</time></trkpt><trkpt lat="43.6493867" lon="11.5487133"><ele>366.20000000000005</ele><time>2026-04-17T16:53:24.231Z</time></trkpt><trkpt lat="43.6492867" lon="11.5486733"><ele>365.8</ele><time>2026-04-17T16:53:26.231Z</time></trkpt><trkpt lat="43.6491867" lon="11.5486483"><ele>365.4</ele><time>2026-04-17T16:53:28.231Z</time></trkpt><trkpt lat="43.6490683" lon="11.54865"><ele>365.0</ele><time>2026-04-17T16:53:30.232Z</time></trkpt><trkpt lat="43.6489517" lon="11.54871"><ele>365.8571428571429</ele><time>2026-04-17T16:53:32.231Z</time></trkpt><trkpt lat="43.6489" lon="11.5487617"><ele>366.7142857142857</ele><time>2026-04-17T16:53:33.23Z</time></trkpt><trkpt lat="43.6488567" lon="11.5488283"><ele>367.57142857142856</ele><time>2026-04-17T16:53:34.233Z</time></trkpt><trkpt lat="43.648815" lon="11.5489017"><ele>368.42857142857144</ele><time>2026-04-17T16:53:35.229Z</time></trkpt><trkpt lat="43.6487833" lon="11.5489833"><ele>369.2857142857143</ele><time>2026-04-17T16:53:36.233Z</time></trkpt><trkpt lat="43.648755" lon="11.549065"><ele>370.14285714285717</ele><time>2026-04-17T16:53:37.23Z</time></trkpt><trkpt lat="43.64873" lon="11.5491533"><ele>371.0</ele><time>2026-04-17T16:53:38.232Z</time></trkpt><trkpt lat="43.6487083" lon="11.54925"><ele>371.0</ele><time>2026-04-17T16:53:39.23Z</time></trkpt><trkpt lat="43.648695" lon="11.5493467"><ele>371.0</ele><time>2026-04-17T16:53:40.231Z</time></trkpt><trkpt lat="43.6486833" lon="11.5494517"><ele>371.0</ele><time>2026-04-17T16:53:41.23Z</time></trkpt><trkpt lat="43.6486783" lon="11.54956"><ele>371.0</ele><time>2026-04-17T16:53:42.231Z</time></trkpt><trkpt lat="43.6486733" lon="11.5496683"><ele>371.0</ele><time>2026-04-17T16:53:43.231Z</time></trkpt><trkpt lat="43.6486683" lon="11.5497767"><ele>371.0</ele><time>2026-04-17T16:53:44.231Z</time></trkpt><trkpt lat="43.6486667" lon="11.549885"><ele>371.1666666666667</ele><time>2026-04-17T16:53:45.23Z</time></trkpt><trkpt lat="43.64867" lon="11.5499967"><ele>371.33333333333337</ele><time>2026-04-17T16:53:46.232Z</time></trkpt><trkpt lat="43.6486783" lon="11.5501117"><ele>371.5</ele><time>2026-04-17T16:53:47.234Z</time></trkpt><trkpt lat="43.6486933" lon="11.55022"><ele>371.6666666666667</ele><time>2026-04-17T16:53:48.233Z</time></trkpt><trkpt lat="43.6487117" lon="11.5503233"><ele>371.8333333333333</ele><time>2026-04-17T16:53:49.23Z</time></trkpt><trkpt lat="43.6487317" lon="11.5504267"><ele>372.0</ele><time>2026-04-17T16:53:50.232Z</time></trkpt><trkpt lat="43.64875" lon="11.550535"><ele>372.0</ele><time>2026-04-17T16:53:51.233Z</time></trkpt><trkpt lat="43.64877" lon="11.5506367"><ele>372.0</ele><time>2026-04-17T16:53:52.231Z</time></trkpt><trkpt lat="43.6487867" lon="11.550745"><ele>372.0</ele><time>2026-04-17T16:53:53.232Z</time></trkpt><trkpt lat="43.6488033" lon="11.5508533"><ele>372.0</ele><time>2026-04-17T16:53:54.234Z</time></trkpt><trkpt lat="43.6488233" lon="11.5509617"><ele>372.0</ele><time>2026-04-17T16:53:55.23Z</time></trkpt><trkpt lat="43.6488433" lon="11.5510833"><ele>372.0</ele><time>2026-04-17T16:53:56.232Z</time></trkpt><trkpt lat="43.6488567" lon="11.5511933"><ele>371.3333333333333</ele><time>2026-04-17T16:53:57.232Z</time></trkpt><trkpt lat="43.6488667" lon="11.5513083"><ele>370.6666666666667</ele><time>2026-04-17T16:53:58.233Z</time></trkpt><trkpt lat="43.648875" lon="11.5514167"><ele>370.0</ele><time>2026-04-17T16:53:59.23Z</time></trkpt><trkpt lat="43.6488917" lon="11.55153"><ele>369.33333333333337</ele><time>2026-04-17T16:54:00.231Z</time></trkpt><trkpt lat="43.6489167" lon="11.551635"><ele>368.6666666666667</ele><time>2026-04-17T16:54:01.231Z</time></trkpt><trkpt lat="43.64895" lon="11.5517317"><ele>368.0</ele><time>2026-04-17T16:54:02.232Z</time></trkpt><trkpt lat="43.6489917" lon="11.5518233"><ele>368.0</ele><time>2026-04-17T16:54:03.23Z</time></trkpt><trkpt lat="43.64904" lon="11.5519117"><ele>368.0</ele><time>2026-04-17T16:54:04.232Z</time></trkpt><trkpt lat="43.6490883" lon="11.5519933"><ele>368.0</ele><time>2026-04-17T16:54:05.23Z</time></trkpt><trkpt lat="43.649135" lon="11.5520733"><ele>368.0</ele><time>2026-04-17T16:54:06.229Z</time></trkpt><trkpt lat="43.649185" lon="11.5521617"><ele>368.0</ele><time>2026-04-17T16:54:07.232Z</time></trkpt><trkpt lat="43.6492317" lon="11.55225"><ele>368.0</ele><time>2026-04-17T16:54:08.232Z</time></trkpt><trkpt lat="43.6492767" lon="11.5523433"><ele>367.33333333333337</ele><time>2026-04-17T16:54:09.231Z</time></trkpt><trkpt lat="43.64932" lon="11.55244"><ele>366.6666666666667</ele><time>2026-04-17T16:54:10.233Z</time></trkpt><trkpt lat="43.649365" lon="11.552535"><ele>366.0</ele><time>2026-04-17T16:54:11.231Z</time></trkpt><trkpt lat="43.6494033" lon="11.5526367"><ele>365.3333333333333</ele><time>2026-04-17T16:54:12.232Z</time></trkpt><trkpt lat="43.6494383" lon="11.5527417"><ele>364.66666666666663</ele><time>2026-04-17T16:54:13.233Z</time></trkpt><trkpt lat="43.6494617" lon="11.5528517"><ele>364.0</ele><time>2026-04-17T16:54:14.231Z</time></trkpt><trkpt lat="43.6494617" lon="11.552965"><ele>364.8333333333333</ele><time>2026-04-17T16:54:15.231Z</time></trkpt><trkpt lat="43.6494383" lon="11.5530767"><ele>365.66666666666663</ele><time>2026-04-17T16:54:16.232Z</time></trkpt><trkpt lat="43.6493983" lon="11.5531767"><ele>366.5</ele><time>2026-04-17T16:54:17.231Z</time></trkpt><trkpt lat="43.649355" lon="11.5532767"><ele>367.3333333333333</ele><time>2026-04-17T16:54:18.234Z</time></trkpt><trkpt lat="43.6493117" lon="11.5533783"><ele>368.1666666666667</ele><time>2026-04-17T16:54:19.232Z</time></trkpt><trkpt lat="43.6492633" lon="11.5534667"><ele>369.0</ele><time>2026-04-17T16:54:20.232Z</time></trkpt><trkpt lat="43.6492083" lon="11.5535383"><ele>369.0</ele><time>2026-04-17T16:54:21.232Z</time></trkpt><trkpt lat="43.649145" lon="11.5535683"><ele>369.0</ele><time>2026-04-17T16:54:22.231Z</time></trkpt><trkpt lat="43.6490817" lon="11.5535417"><ele>369.0</ele><time>2026-04-17T16:54:23.231Z</time></trkpt><trkpt lat="43.64902" lon="11.55348"><ele>369.0</ele><time>2026-04-17T16:54:24.234Z</time></trkpt><trkpt lat="43.6489567" lon="11.5534133"><ele>369.0</ele><time>2026-04-17T16:54:25.232Z</time></trkpt><trkpt lat="43.648895" lon="11.55335"><ele>369.0</ele><time>2026-04-17T16:54:26.233Z</time></trkpt><trkpt lat="43.64883" lon="11.5532917"><ele>369.0</ele><time>2026-04-17T16:54:27.232Z</time></trkpt><trkpt lat="43.648775" lon="11.553235"><ele>369.0</ele><time>2026-04-17T16:54:28.231Z</time></trkpt><trkpt lat="43.6487167" lon="11.553175"><ele>369.0</ele><time>2026-04-17T16:54:29.234Z</time></trkpt><trkpt lat="43.648655" lon="11.5531183"><ele>369.0</ele><time>2026-04-17T16:54:30.233Z</time></trkpt><trkpt lat="43.6485933" lon="11.5530633"><ele>369.0</ele><time>2026-04-17T16:54:31.233Z</time></trkpt><trkpt lat="43.6485417" lon="11.553005"><ele>369.0</ele><time>2026-04-17T16:54:32.232Z</time></trkpt><trkpt lat="43.6484833" lon="11.55295"><ele>369.0</ele><time>2026-04-17T16:54:33.231Z</time></trkpt><trkpt lat="43.6484283" lon="11.5528967"><ele>369.0</ele><time>2026-04-17T16:54:34.232Z</time></trkpt><trkpt lat="43.6483667" lon="11.5528433"><ele>367.6666666666667</ele><time>2026-04-17T16:54:35.233Z</time></trkpt><trkpt lat="43.6483017" lon="11.55279"><ele>366.3333333333333</ele><time>2026-04-17T16:54:36.232Z</time></trkpt><trkpt lat="43.6482383" lon="11.5527367"><ele>365.0</ele><time>2026-04-17T16:54:37.231Z</time></trkpt><trkpt lat="43.6481783" lon="11.5526833"><ele>363.66666666666663</ele><time>2026-04-17T16:54:38.233Z</time></trkpt><trkpt lat="43.648115" lon="11.552625"><ele>362.3333333333333</ele><time>2026-04-17T16:54:39.233Z</time></trkpt><trkpt lat="43.6480483" lon="11.5525633"><ele>361.0</ele><time>2026-04-17T16:54:40.232Z</time></trkpt><trkpt lat="43.64798" lon="11.552505"><ele>361.0</ele><time>2026-04-17T16:54:41.232Z</time></trkpt><trkpt lat="43.647915" lon="11.5524467"><ele>361.0</ele><time>2026-04-17T16:54:42.231Z</time></trkpt><trkpt lat="43.64785" lon="11.5523933"><ele>361.0</ele><time>2026-04-17T16:54:43.232Z</time></trkpt><trkpt lat="43.64779" lon="11.55234"><ele>361.0</ele><time>2026-04-17T16:54:44.232Z</time></trkpt><trkpt lat="43.6477283" lon="11.5522867"><ele>361.0</ele><time>2026-04-17T16:54:45.234Z</time></trkpt><trkpt lat="43.6476633" lon="11.5522317"><ele>361.0</ele><time>2026-04-17T16:54:46.231Z</time></trkpt><trkpt lat="43.647595" lon="11.5521833"><ele>360.2857142857143</ele><time>2026-04-17T16:54:47.231Z</time></trkpt><trkpt lat="43.64753" lon="11.5521433"><ele>359.57142857142856</ele><time>2026-04-17T16:54:48.232Z</time></trkpt><trkpt lat="43.6474667" lon="11.5521017"><ele>358.85714285714283</ele><time>2026-04-17T16:54:49.231Z</time></trkpt><trkpt lat="43.6474083" lon="11.5520567"><ele>358.1428571428571</ele><time>2026-04-17T16:54:50.232Z</time></trkpt><trkpt lat="43.6473483" lon="11.5520083"><ele>357.42857142857144</ele><time>2026-04-17T16:54:51.231Z</time></trkpt><trkpt lat="43.6472917" lon="11.5519483"><ele>356.71428571428567</ele><time>2026-04-17T16:54:52.232Z</time></trkpt><trkpt lat="43.6472383" lon="11.5518833"><ele>356.0</ele><time>2026-04-17T16:54:53.23Z</time></trkpt><trkpt lat="43.6471783" lon="11.5518167"><ele>356.0</ele><time>2026-04-17T16:54:54.232Z</time></trkpt><trkpt lat="43.6471267" lon="11.5517417"><ele>356.0</ele><time>2026-04-17T16:54:55.232Z</time></trkpt><trkpt lat="43.6470483" lon="11.5515867"><ele>356.0</ele><time>2026-04-17T16:54:57.232Z</time></trkpt><trkpt lat="43.647005" lon="11.5515067"><ele>356.0</ele><time>2026-04-17T16:54:58.232Z</time></trkpt><trkpt lat="43.6469567" lon="11.551425"><ele>356.0</ele><time>2026-04-17T16:54:59.232Z</time></trkpt><trkpt lat="43.64692" lon="11.5513367"><ele>356.0</ele><time>2026-04-17T16:55:00.233Z</time></trkpt><trkpt lat="43.6468783" lon="11.5512467"><ele>356.6666666666667</ele><time>2026-04-17T16:55:01.233Z</time></trkpt><trkpt lat="43.6468333" lon="11.5511533"><ele>357.33333333333337</ele><time>2026-04-17T16:55:02.231Z</time></trkpt><trkpt lat="43.64678" lon="11.551055"><ele>358.0</ele><time>2026-04-17T16:55:03.231Z</time></trkpt><trkpt lat="43.646725" lon="11.550955"><ele>358.6666666666667</ele><time>2026-04-17T16:55:04.231Z</time></trkpt><trkpt lat="43.6466667" lon="11.5508583"><ele>359.3333333333333</ele><time>2026-04-17T16:55:05.233Z</time></trkpt><trkpt lat="43.6466083" lon="11.55076"><ele>360.0</ele><time>2026-04-17T16:55:06.232Z</time></trkpt><trkpt lat="43.6465483" lon="11.5506567"><ele>360.0</ele><time>2026-04-17T16:55:07.232Z</time></trkpt><trkpt lat="43.6464867" lon="11.55055"><ele>360.0</ele><time>2026-04-17T16:55:08.231Z</time></trkpt><trkpt lat="43.646425" lon="11.55044"><ele>360.0</ele><time>2026-04-17T16:55:09.232Z</time></trkpt><trkpt lat="43.6463683" lon="11.5503283"><ele>360.0</ele><time>2026-04-17T16:55:10.23Z</time></trkpt><trkpt lat="43.6463117" lon="11.5502167"><ele>360.0</ele><time>2026-04-17T16:55:11.232Z</time></trkpt><trkpt lat="43.6462533" lon="11.550095"><ele>360.0</ele><time>2026-04-17T16:55:12.231Z</time></trkpt><trkpt lat="43.646205" lon="11.5499667"><ele>360.0</ele><time>2026-04-17T16:55:13.233Z</time></trkpt><trkpt lat="43.646165" lon="11.54983"><ele>360.0</ele><time>2026-04-17T16:55:14.232Z</time></trkpt><trkpt lat="43.646135" lon="11.5496883"><ele>360.0</ele><time>2026-04-17T16:55:15.232Z</time></trkpt><trkpt lat="43.64612" lon="11.5495433"><ele>360.0</ele><time>2026-04-17T16:55:16.231Z</time></trkpt><trkpt lat="43.646105" lon="11.5493933"><ele>358.6</ele><time>2026-04-17T16:55:17.231Z</time></trkpt><trkpt lat="43.646075" lon="11.5492417"><ele>357.2</ele><time>2026-04-17T16:55:18.232Z</time></trkpt><trkpt lat="43.6460283" lon="11.549105"><ele>355.79999999999995</ele><time>2026-04-17T16:55:19.232Z</time></trkpt><trkpt lat="43.64596" lon="11.5489833"><ele>354.4</ele><time>2026-04-17T16:55:20.231Z</time></trkpt><trkpt lat="43.6458733" lon="11.5488817"><ele>353.0</ele><time>2026-04-17T16:55:21.233Z</time></trkpt><trkpt lat="43.6457817" lon="11.5487867"><ele>351.5</ele><time>2026-04-17T16:55:22.232Z</time></trkpt><trkpt lat="43.6456883" lon="11.5486883"><ele>350.0</ele><time>2026-04-17T16:55:23.231Z</time></trkpt><trkpt lat="43.645595" lon="11.5485917"><ele>348.5</ele><time>2026-04-17T16:55:24.231Z</time></trkpt><trkpt lat="43.6454983" lon="11.5484933"><ele>347.0</ele><time>2026-04-17T16:55:25.231Z</time></trkpt><trkpt lat="43.6453967" lon="11.5483967"><ele>347.5</ele><time>2026-04-17T16:55:26.233Z</time></trkpt><trkpt lat="43.6452933" lon="11.5482967"><ele>348.0</ele><time>2026-04-17T16:55:27.233Z</time></trkpt><trkpt lat="43.6451917" lon="11.5482017"><ele>348.5</ele><time>2026-04-17T16:55:28.229Z</time></trkpt><trkpt lat="43.645095" lon="11.5481133"><ele>349.0</ele><time>2026-04-17T16:55:29.23Z</time></trkpt><trkpt lat="43.645005" lon="11.5480333"><ele>349.0</ele><time>2026-04-17T16:55:30.231Z</time></trkpt><trkpt lat="43.644925" lon="11.5479583"><ele>349.0</ele><time>2026-04-17T16:55:31.231Z</time></trkpt><trkpt lat="43.6448517" lon="11.5478883"><ele>349.0</ele><time>2026-04-17T16:55:32.233Z</time></trkpt><trkpt lat="43.644785" lon="11.5478217"><ele>349.0</ele><time>2026-04-17T16:55:33.23Z</time></trkpt><trkpt lat="43.6447333" lon="11.5477667"><ele>349.0</ele><time>2026-04-17T16:55:34.232Z</time></trkpt><trkpt lat="43.6446483" lon="11.5476917"><ele>349.0</ele><time>2026-04-17T16:55:36.231Z</time></trkpt><trkpt lat="43.6445783" lon="11.5476267"><ele>348.8333333333333</ele><time>2026-04-17T16:55:38.231Z</time></trkpt><trkpt lat="43.6445133" lon="11.547585"><ele>348.66666666666663</ele><time>2026-04-17T16:55:40.23Z</time></trkpt><trkpt lat="43.64443" lon="11.5476117"><ele>348.5</ele><time>2026-04-17T16:55:43.231Z</time></trkpt><trkpt lat="43.644375" lon="11.54768"><ele>348.3333333333333</ele><time>2026-04-17T16:55:46.23Z</time></trkpt><trkpt lat="43.6443317" lon="11.54775"><ele>348.1666666666667</ele><time>2026-04-17T16:56:15.232Z</time></trkpt><trkpt lat="43.6442533" lon="11.5478167"><ele>348.0</ele><time>2026-04-17T16:56:19.231Z</time></trkpt><trkpt lat="43.64421" lon="11.5479033"><ele>348.0</ele><time>2026-04-17T16:56:21.23Z</time></trkpt><trkpt lat="43.644145" lon="11.5480133"><ele>348.0</ele><time>2026-04-17T16:56:23.231Z</time></trkpt><trkpt lat="43.64408" lon="11.5481383"><ele>348.0</ele><time>2026-04-17T16:56:25.233Z</time></trkpt><trkpt lat="43.64401" lon="11.5482717"><ele>348.0</ele><time>2026-04-17T16:56:27.231Z</time></trkpt><trkpt lat="43.6439367" lon="11.548405"><ele>348.0</ele><time>2026-04-17T16:56:29.231Z</time></trkpt><trkpt lat="43.6438717" lon="11.5485433"><ele>348.0</ele><time>2026-04-17T16:56:31.232Z</time></trkpt><trkpt lat="43.6438017" lon="11.54868"><ele>348.0</ele><time>2026-04-17T16:56:33.23Z</time></trkpt><trkpt lat="43.6437233" lon="11.548815"><ele>348.0</ele><time>2026-04-17T16:56:35.231Z</time></trkpt><trkpt lat="43.6436833" lon="11.5488867"><ele>348.0</ele><time>2026-04-17T16:56:36.231Z</time></trkpt><trkpt lat="43.64363" lon="11.549025"><ele>347.1666666666667</ele><time>2026-04-17T16:56:38.231Z</time></trkpt><trkpt lat="43.643585" lon="11.5491767"><ele>346.3333333333333</ele><time>2026-04-17T16:56:40.23Z</time></trkpt><trkpt lat="43.6435617" lon="11.5492583"><ele>345.5</ele><time>2026-04-17T16:56:41.231Z</time></trkpt><trkpt lat="43.6435383" lon="11.54934"><ele>344.66666666666663</ele><time>2026-04-17T16:56:42.23Z</time></trkpt><trkpt lat="43.6435133" lon="11.5494233"><ele>343.8333333333333</ele><time>2026-04-17T16:56:43.232Z</time></trkpt><trkpt lat="43.6434867" lon="11.5495083"><ele>343.0</ele><time>2026-04-17T16:56:44.231Z</time></trkpt><trkpt lat="43.64344" lon="11.5496767"><ele>342.8333333333333</ele><time>2026-04-17T16:56:46.232Z</time></trkpt><trkpt lat="43.6434167" lon="11.5497683"><ele>342.66666666666663</ele><time>2026-04-17T16:56:47.232Z</time></trkpt><trkpt lat="43.643395" lon="11.5498583"><ele>342.5</ele><time>2026-04-17T16:56:48.232Z</time></trkpt><trkpt lat="43.6433733" lon="11.5499567"><ele>342.3333333333333</ele><time>2026-04-17T16:56:49.23Z</time></trkpt><trkpt lat="43.6433433" lon="11.550055"><ele>342.1666666666667</ele><time>2026-04-17T16:56:50.231Z</time></trkpt><trkpt lat="43.6433117" lon="11.55016"><ele>342.0</ele><time>2026-04-17T16:56:51.232Z</time></trkpt><trkpt lat="43.64328" lon="11.5502683"><ele>342.0</ele><time>2026-04-17T16:56:52.232Z</time></trkpt><trkpt lat="43.643245" lon="11.55038"><ele>342.0</ele><time>2026-04-17T16:56:53.231Z</time></trkpt><trkpt lat="43.6432067" lon="11.55049"><ele>342.0</ele><time>2026-04-17T16:56:54.232Z</time></trkpt><trkpt lat="43.6431617" lon="11.5505983"><ele>342.0</ele><time>2026-04-17T16:56:55.232Z</time></trkpt><trkpt lat="43.6431067" lon="11.5507017"><ele>342.0</ele><time>2026-04-17T16:56:56.232Z</time></trkpt><trkpt lat="43.64305" lon="11.5508033"><ele>342.0</ele><time>2026-04-17T16:56:57.23Z</time></trkpt><trkpt lat="43.6429883" lon="11.5508983"><ele>342.0</ele><time>2026-04-17T16:56:58.231Z</time></trkpt><trkpt lat="43.642925" lon="11.5509933"><ele>342.0</ele><time>2026-04-17T16:56:59.231Z</time></trkpt><trkpt lat="43.6428617" lon="11.5510883"><ele>342.0</ele><time>2026-04-17T16:57:00.231Z</time></trkpt><trkpt lat="43.6428017" lon="11.551185"><ele>342.0</ele><time>2026-04-17T16:57:01.231Z</time></trkpt><trkpt lat="43.6427417" lon="11.55128"><ele>341.8333333333333</ele><time>2026-04-17T16:57:02.23Z</time></trkpt><trkpt lat="43.6426817" lon="11.5513767"><ele>341.6666666666667</ele><time>2026-04-17T16:57:03.231Z</time></trkpt><trkpt lat="43.6426217" lon="11.5514667"><ele>341.5</ele><time>2026-04-17T16:57:04.23Z</time></trkpt><trkpt lat="43.6425583" lon="11.55156"><ele>341.33333333333337</ele><time>2026-04-17T16:57:05.231Z</time></trkpt><trkpt lat="43.6425017" lon="11.5516467"><ele>341.1666666666667</ele><time>2026-04-17T16:57:06.231Z</time></trkpt><trkpt lat="43.6424533" lon="11.5517383"><ele>341.0</ele><time>2026-04-17T16:57:07.23Z</time></trkpt><trkpt lat="43.6424167" lon="11.55184"><ele>341.0</ele><time>2026-04-17T16:57:08.233Z</time></trkpt><trkpt lat="43.6423867" lon="11.5519433"><ele>341.0</ele><time>2026-04-17T16:57:09.232Z</time></trkpt><trkpt lat="43.64237" lon="11.5520633"><ele>341.0</ele><time>2026-04-17T16:57:10.231Z</time></trkpt><trkpt lat="43.6423667" lon="11.5521867"><ele>341.0</ele><time>2026-04-17T16:57:11.231Z</time></trkpt><trkpt lat="43.6423617" lon="11.5523167"><ele>341.0</ele><time>2026-04-17T16:57:12.231Z</time></trkpt><trkpt lat="43.6423567" lon="11.5524483"><ele>341.0</ele><time>2026-04-17T16:57:13.233Z</time></trkpt><trkpt lat="43.6423483" lon="11.5525817"><ele>340.6666666666667</ele><time>2026-04-17T16:57:14.233Z</time></trkpt><trkpt lat="43.6423333" lon="11.55271"><ele>340.33333333333337</ele><time>2026-04-17T16:57:15.232Z</time></trkpt><trkpt lat="43.6423117" lon="11.5528267"><ele>340.0</ele><time>2026-04-17T16:57:16.23Z</time></trkpt><trkpt lat="43.64227" lon="11.552915"><ele>339.6666666666667</ele><time>2026-04-17T16:57:17.231Z</time></trkpt><trkpt lat="43.6422083" lon="11.55297"><ele>339.3333333333333</ele><time>2026-04-17T16:57:18.234Z</time></trkpt><trkpt lat="43.6421417" lon="11.5529867"><ele>339.0</ele><time>2026-04-17T16:57:19.23Z</time></trkpt><trkpt lat="43.6420633" lon="11.552955"><ele>338.2</ele><time>2026-04-17T16:57:20.232Z</time></trkpt><trkpt lat="43.6419733" lon="11.552915"><ele>337.4</ele><time>2026-04-17T16:57:21.232Z</time></trkpt><trkpt lat="43.6418883" lon="11.5528917"><ele>336.6</ele><time>2026-04-17T16:57:22.23Z</time></trkpt><trkpt lat="43.6417967" lon="11.5528883"><ele>335.8</ele><time>2026-04-17T16:57:23.231Z</time></trkpt><trkpt lat="43.641705" lon="11.5529133"><ele>335.0</ele><time>2026-04-17T16:57:24.231Z</time></trkpt><trkpt lat="43.6416117" lon="11.5529633"><ele>335.0</ele><time>2026-04-17T16:57:25.231Z</time></trkpt><trkpt lat="43.6415167" lon="11.553025"><ele>335.0</ele><time>2026-04-17T16:57:26.23Z</time></trkpt><trkpt lat="43.6414267" lon="11.5530917"><ele>335.0</ele><time>2026-04-17T16:57:27.23Z</time></trkpt><trkpt lat="43.6413467" lon="11.5531583"><ele>335.0</ele><time>2026-04-17T16:57:28.232Z</time></trkpt><trkpt lat="43.6412717" lon="11.5532333"><ele>335.0</ele><time>2026-04-17T16:57:29.232Z</time></trkpt><trkpt lat="43.641215" lon="11.5533283"><ele>335.0</ele><time>2026-04-17T16:57:30.235Z</time></trkpt><trkpt lat="43.6411767" lon="11.553445"><ele>335.0</ele><time>2026-04-17T16:57:31.23Z</time></trkpt><trkpt lat="43.641165" lon="11.5535683"><ele>335.0</ele><time>2026-04-17T16:57:32.23Z</time></trkpt><trkpt lat="43.6411717" lon="11.553695"><ele>335.0</ele><time>2026-04-17T16:57:33.229Z</time></trkpt><trkpt lat="43.6411917" lon="11.55382"><ele>335.0</ele><time>2026-04-17T16:57:34.23Z</time></trkpt><trkpt lat="43.64122" lon="11.5539433"><ele>335.2</ele><time>2026-04-17T16:57:35.23Z</time></trkpt><trkpt lat="43.6412483" lon="11.5540733"><ele>335.4</ele><time>2026-04-17T16:57:36.229Z</time></trkpt><trkpt lat="43.6412583" lon="11.554205"><ele>335.6</ele><time>2026-04-17T16:57:37.23Z</time></trkpt><trkpt lat="43.641235" lon="11.55433"><ele>335.8</ele><time>2026-04-17T16:57:38.231Z</time></trkpt><trkpt lat="43.64118" lon="11.5544283"><ele>336.0</ele><time>2026-04-17T16:57:39.233Z</time></trkpt><trkpt lat="43.6411017" lon="11.554485"><ele>334.8</ele><time>2026-04-17T16:57:40.231Z</time></trkpt><trkpt lat="43.64101" lon="11.55451"><ele>333.6</ele><time>2026-04-17T16:57:41.23Z</time></trkpt><trkpt lat="43.640915" lon="11.5545267"><ele>332.4</ele><time>2026-04-17T16:57:42.233Z</time></trkpt><trkpt lat="43.640825" lon="11.554565"><ele>331.2</ele><time>2026-04-17T16:57:43.23Z</time></trkpt><trkpt lat="43.6407483" lon="11.5546367"><ele>330.0</ele><time>2026-04-17T16:57:44.231Z</time></trkpt><trkpt lat="43.6406883" lon="11.5547317"><ele>330.0</ele><time>2026-04-17T16:57:45.23Z</time></trkpt><trkpt lat="43.6406483" lon="11.554845"><ele>330.0</ele><time>2026-04-17T16:57:46.231Z</time></trkpt><trkpt lat="43.6406333" lon="11.5549717"><ele>330.0</ele><time>2026-04-17T16:57:47.23Z</time></trkpt><trkpt lat="43.6406283" lon="11.5551017"><ele>330.0</ele><time>2026-04-17T16:57:48.231Z</time></trkpt><trkpt lat="43.6406367" lon="11.555235"><ele>330.0</ele><time>2026-04-17T16:57:49.229Z</time></trkpt><trkpt lat="43.64065" lon="11.555375"><ele>329.6</ele><time>2026-04-17T16:57:50.231Z</time></trkpt><trkpt lat="43.64066" lon="11.555515"><ele>329.2</ele><time>2026-04-17T16:57:51.231Z</time></trkpt><trkpt lat="43.6406617" lon="11.555655"><ele>328.79999999999995</ele><time>2026-04-17T16:57:52.232Z</time></trkpt><trkpt lat="43.64065" lon="11.5557817"><ele>328.4</ele><time>2026-04-17T16:57:53.232Z</time></trkpt><trkpt lat="43.64062" lon="11.55589"><ele>328.0</ele><time>2026-04-17T16:57:54.232Z</time></trkpt><trkpt lat="43.6405617" lon="11.5559767"><ele>328.0</ele><time>2026-04-17T16:57:55.23Z</time></trkpt><trkpt lat="43.6404833" lon="11.5560133"><ele>328.0</ele><time>2026-04-17T16:57:56.231Z</time></trkpt><trkpt lat="43.6403917" lon="11.5560067"><ele>328.0</ele><time>2026-04-17T16:57:57.231Z</time></trkpt><trkpt lat="43.64029" lon="11.5559683"><ele>328.0</ele><time>2026-04-17T16:57:58.231Z</time></trkpt><trkpt lat="43.640185" lon="11.5559233"><ele>328.0</ele><time>2026-04-17T16:57:59.232Z</time></trkpt><trkpt lat="43.6400767" lon="11.5558817"><ele>327.0</ele><time>2026-04-17T16:58:00.23Z</time></trkpt><trkpt lat="43.639965" lon="11.5558467"><ele>326.0</ele><time>2026-04-17T16:58:01.231Z</time></trkpt><trkpt lat="43.6398517" lon="11.5558133"><ele>325.0</ele><time>2026-04-17T16:58:02.23Z</time></trkpt><trkpt lat="43.6397333" lon="11.5557783"><ele>324.0</ele><time>2026-04-17T16:58:03.23Z</time></trkpt><trkpt lat="43.63962" lon="11.5557417"><ele>324.0</ele><time>2026-04-17T16:58:04.232Z</time></trkpt><trkpt lat="43.6395033" lon="11.5557067"><ele>324.0</ele><time>2026-04-17T16:58:05.231Z</time></trkpt><trkpt lat="43.639385" lon="11.5556817"><ele>324.0</ele><time>2026-04-17T16:58:06.231Z</time></trkpt><trkpt lat="43.6392667" lon="11.5556667"><ele>324.0</ele><time>2026-04-17T16:58:07.23Z</time></trkpt><trkpt lat="43.639145" lon="11.5556717"><ele>322.75</ele><time>2026-04-17T16:58:08.232Z</time></trkpt><trkpt lat="43.6390267" lon="11.5556967"><ele>321.5</ele><time>2026-04-17T16:58:09.23Z</time></trkpt><trkpt lat="43.6389083" lon="11.5557367"><ele>320.25</ele><time>2026-04-17T16:58:10.231Z</time></trkpt><trkpt lat="43.6387883" lon="11.5557933"><ele>319.0</ele><time>2026-04-17T16:58:11.23Z</time></trkpt><trkpt lat="43.6386733" lon="11.55585"><ele>318.2</ele><time>2026-04-17T16:58:12.23Z</time></trkpt><trkpt lat="43.6385667" lon="11.5559017"><ele>317.4</ele><time>2026-04-17T16:58:13.232Z</time></trkpt><trkpt lat="43.6384733" lon="11.5559517"><ele>316.6</ele><time>2026-04-17T16:58:14.233Z</time></trkpt><trkpt lat="43.63839" lon="11.5560067"><ele>315.8</ele><time>2026-04-17T16:58:15.234Z</time></trkpt><trkpt lat="43.6383183" lon="11.5560783"><ele>315.0</ele><time>2026-04-17T16:58:16.233Z</time></trkpt><trkpt lat="43.6382633" lon="11.5561783"><ele>314.8</ele><time>2026-04-17T16:58:17.232Z</time></trkpt><trkpt lat="43.63823" lon="11.5563033"><ele>314.6</ele><time>2026-04-17T16:58:18.233Z</time></trkpt><trkpt lat="43.638225" lon="11.5564417"><ele>314.4</ele><time>2026-04-17T16:58:19.233Z</time></trkpt><trkpt lat="43.6382333" lon="11.5565833"><ele>314.2</ele><time>2026-04-17T16:58:20.234Z</time></trkpt><trkpt lat="43.6382333" lon="11.55672"><ele>314.0</ele><time>2026-04-17T16:58:21.231Z</time></trkpt><trkpt lat="43.6382233" lon="11.5568483"><ele>314.0</ele><time>2026-04-17T16:58:22.233Z</time></trkpt><trkpt lat="43.638195" lon="11.5569617"><ele>314.0</ele><time>2026-04-17T16:58:23.232Z</time></trkpt><trkpt lat="43.6381467" lon="11.5570567"><ele>314.0</ele><time>2026-04-17T16:58:24.231Z</time></trkpt><trkpt lat="43.6380783" lon="11.5571133"><ele>314.0</ele><time>2026-04-17T16:58:25.23Z</time></trkpt><trkpt lat="43.638" lon="11.5571333"><ele>314.0</ele><time>2026-04-17T16:58:26.232Z</time></trkpt><trkpt lat="43.63791" lon="11.557105"><ele>314.0</ele><time>2026-04-17T16:58:27.232Z</time></trkpt><trkpt lat="43.63782" lon="11.55703"><ele>313.59999999999997</ele><time>2026-04-17T16:58:28.232Z</time></trkpt><trkpt lat="43.63774" lon="11.5569317"><ele>313.2</ele><time>2026-04-17T16:58:29.232Z</time></trkpt><trkpt lat="43.6376517" lon="11.5568417"><ele>312.79999999999995</ele><time>2026-04-17T16:58:30.231Z</time></trkpt><trkpt lat="43.6375567" lon="11.55676"><ele>312.4</ele><time>2026-04-17T16:58:31.233Z</time></trkpt><trkpt lat="43.6374567" lon="11.5566883"><ele>312.0</ele><time>2026-04-17T16:58:32.234Z</time></trkpt><trkpt lat="43.6373533" lon="11.55662"><ele>312.0</ele><time>2026-04-17T16:58:33.231Z</time></trkpt><trkpt lat="43.637245" lon="11.5565533"><ele>312.0</ele><time>2026-04-17T16:58:34.233Z</time></trkpt><trkpt lat="43.6371333" lon="11.55651"><ele>312.0</ele><time>2026-04-17T16:58:35.232Z</time></trkpt><trkpt lat="43.637015" lon="11.556495"><ele>312.0</ele><time>2026-04-17T16:58:36.23Z</time></trkpt><trkpt lat="43.6369017" lon="11.5565067"><ele>311.25</ele><time>2026-04-17T16:58:37.233Z</time></trkpt><trkpt lat="43.6367983" lon="11.5565517"><ele>310.5</ele><time>2026-04-17T16:58:38.231Z</time></trkpt><trkpt lat="43.6367067" lon="11.556635"><ele>309.75</ele><time>2026-04-17T16:58:39.231Z</time></trkpt><trkpt lat="43.6366167" lon="11.556735"><ele>309.0</ele><time>2026-04-17T16:58:40.23Z</time></trkpt><trkpt lat="43.63653" lon="11.5568417"><ele>309.0</ele><time>2026-04-17T16:58:41.231Z</time></trkpt><trkpt lat="43.6364433" lon="11.556955"><ele>309.0</ele><time>2026-04-17T16:58:42.231Z</time></trkpt><trkpt lat="43.6363583" lon="11.5570717"><ele>309.0</ele><time>2026-04-17T16:58:43.232Z</time></trkpt><trkpt lat="43.63627" lon="11.5571883"><ele>309.0</ele><time>2026-04-17T16:58:44.233Z</time></trkpt><trkpt lat="43.6361767" lon="11.5572967"><ele>309.4</ele><time>2026-04-17T16:58:45.232Z</time></trkpt><trkpt lat="43.636085" lon="11.5573983"><ele>309.79999999999995</ele><time>2026-04-17T16:58:46.23Z</time></trkpt><trkpt lat="43.636" lon="11.5574983"><ele>310.20000000000005</ele><time>2026-04-17T16:58:47.23Z</time></trkpt><trkpt lat="43.6359233" lon="11.5576033"><ele>310.6</ele><time>2026-04-17T16:58:48.23Z</time></trkpt><trkpt lat="43.635875" lon="11.5577283"><ele>311.0</ele><time>2026-04-17T16:58:49.231Z</time></trkpt><trkpt lat="43.6358567" lon="11.557865"><ele>311.6</ele><time>2026-04-17T16:58:50.231Z</time></trkpt><trkpt lat="43.6358533" lon="11.5580117"><ele>312.20000000000005</ele><time>2026-04-17T16:58:51.231Z</time></trkpt><trkpt lat="43.6358617" lon="11.5581517"><ele>312.79999999999995</ele><time>2026-04-17T16:58:52.23Z</time></trkpt><trkpt lat="43.635865" lon="11.5582817"><ele>313.4</ele><time>2026-04-17T16:58:53.23Z</time></trkpt><trkpt lat="43.6358583" lon="11.5584"><ele>314.0</ele><time>2026-04-17T16:58:54.232Z</time></trkpt><trkpt lat="43.63583" lon="11.5585"><ele>314.0</ele><time>2026-04-17T16:58:55.232Z</time></trkpt><trkpt lat="43.63578" lon="11.5585717"><ele>314.0</ele><time>2026-04-17T16:58:56.232Z</time></trkpt><trkpt lat="43.6356567" lon="11.5585883"><ele>314.0</ele><time>2026-04-17T16:58:58.23Z</time></trkpt><trkpt lat="43.6355867" lon="11.5585383"><ele>314.0</ele><time>2026-04-17T16:58:59.232Z</time></trkpt><trkpt lat="43.6355217" lon="11.5584683"><ele>314.0</ele><time>2026-04-17T16:59:00.231Z</time></trkpt><trkpt lat="43.6354467" lon="11.5583917"><ele>314.0</ele><time>2026-04-17T16:59:01.232Z</time></trkpt><trkpt lat="43.6353667" lon="11.5583233"><ele>314.0</ele><time>2026-04-17T16:59:02.232Z</time></trkpt><trkpt lat="43.6352833" lon="11.5582783"><ele>314.0</ele><time>2026-04-17T16:59:03.232Z</time></trkpt><trkpt lat="43.6351933" lon="11.5582633"><ele>314.0</ele><time>2026-04-17T16:59:04.23Z</time></trkpt><trkpt lat="43.635105" lon="11.55829"><ele>314.0</ele><time>2026-04-17T16:59:05.231Z</time></trkpt><trkpt lat="43.63502" lon="11.5583533"><ele>313.59999999999997</ele><time>2026-04-17T16:59:06.232Z</time></trkpt><trkpt lat="43.634945" lon="11.5584467"><ele>313.2</ele><time>2026-04-17T16:59:07.231Z</time></trkpt><trkpt lat="43.63488" lon="11.5585567"><ele>312.79999999999995</ele><time>2026-04-17T16:59:08.233Z</time></trkpt><trkpt lat="43.63482" lon="11.5586717"><ele>312.4</ele><time>2026-04-17T16:59:09.229Z</time></trkpt><trkpt lat="43.6347633" lon="11.55879"><ele>312.0</ele><time>2026-04-17T16:59:10.231Z</time></trkpt><trkpt lat="43.6347083" lon="11.5589083"><ele>311.2</ele><time>2026-04-17T16:59:11.232Z</time></trkpt><trkpt lat="43.6346533" lon="11.55903"><ele>310.4</ele><time>2026-04-17T16:59:12.231Z</time></trkpt><trkpt lat="43.6346" lon="11.55915"><ele>309.6</ele><time>2026-04-17T16:59:13.232Z</time></trkpt><trkpt lat="43.634545" lon="11.55927"><ele>308.8</ele><time>2026-04-17T16:59:14.233Z</time></trkpt><trkpt lat="43.6344883" lon="11.5593817"><ele>308.0</ele><time>2026-04-17T16:59:15.232Z</time></trkpt><trkpt lat="43.6344333" lon="11.559495"><ele>308.8</ele><time>2026-04-17T16:59:16.232Z</time></trkpt><trkpt lat="43.63438" lon="11.55961"><ele>309.6</ele><time>2026-04-17T16:59:17.231Z</time></trkpt><trkpt lat="43.6343267" lon="11.5597267"><ele>310.4</ele><time>2026-04-17T16:59:18.23Z</time></trkpt><trkpt lat="43.63427" lon="11.5598417"><ele>311.2</ele><time>2026-04-17T16:59:19.232Z</time></trkpt><trkpt lat="43.6342167" lon="11.559955"><ele>312.0</ele><time>2026-04-17T16:59:20.232Z</time></trkpt><trkpt lat="43.634165" lon="11.5600683"><ele>312.0</ele><time>2026-04-17T16:59:21.229Z</time></trkpt><trkpt lat="43.6341117" lon="11.5601667"><ele>312.0</ele><time>2026-04-17T16:59:22.231Z</time></trkpt><trkpt lat="43.6340433" lon="11.5602467"><ele>312.0</ele><time>2026-04-17T16:59:23.231Z</time></trkpt><trkpt lat="43.6339617" lon="11.5602983"><ele>312.0</ele><time>2026-04-17T16:59:24.23Z</time></trkpt><trkpt lat="43.6338717" lon="11.5603017"><ele>312.0</ele><time>2026-04-17T16:59:25.231Z</time></trkpt><trkpt lat="43.6337867" lon="11.5602583"><ele>312.0</ele><time>2026-04-17T16:59:26.232Z</time></trkpt><trkpt lat="43.63373" lon="11.5601733"><ele>312.0</ele><time>2026-04-17T16:59:27.23Z</time></trkpt><trkpt lat="43.63368" lon="11.5600783"><ele>312.0</ele><time>2026-04-17T16:59:28.23Z</time></trkpt><trkpt lat="43.6336267" lon="11.55998"><ele>312.0</ele><time>2026-04-17T16:59:29.232Z</time></trkpt><trkpt lat="43.6335717" lon="11.5598783"><ele>312.0</ele><time>2026-04-17T16:59:30.232Z</time></trkpt><trkpt lat="43.633515" lon="11.5597767"><ele>312.0</ele><time>2026-04-17T16:59:31.229Z</time></trkpt><trkpt lat="43.63346" lon="11.5596733"><ele>311.4</ele><time>2026-04-17T16:59:32.231Z</time></trkpt><trkpt lat="43.63341" lon="11.5595733"><ele>310.79999999999995</ele><time>2026-04-17T16:59:33.23Z</time></trkpt><trkpt lat="43.633355" lon="11.55947"><ele>310.2</ele><time>2026-04-17T16:59:34.23Z</time></trkpt><trkpt lat="43.6333033" lon="11.55937"><ele>309.59999999999997</ele><time>2026-04-17T16:59:35.232Z</time></trkpt><trkpt lat="43.6332483" lon="11.5592717"><ele>309.0</ele><time>2026-04-17T16:59:36.231Z</time></trkpt><trkpt lat="43.6331917" lon="11.55917"><ele>309.0</ele><time>2026-04-17T16:59:37.232Z</time></trkpt><trkpt lat="43.6331367" lon="11.5590717"><ele>309.0</ele><time>2026-04-17T16:59:38.232Z</time></trkpt><trkpt lat="43.6330783" lon="11.5589717"><ele>309.0</ele><time>2026-04-17T16:59:39.231Z</time></trkpt><trkpt lat="43.6330183" lon="11.5588667"><ele>309.0</ele><time>2026-04-17T16:59:40.231Z</time></trkpt><trkpt lat="43.6329567" lon="11.5587617"><ele>309.0</ele><time>2026-04-17T16:59:41.232Z</time></trkpt><trkpt lat="43.6328933" lon="11.5586583"><ele>307.8</ele><time>2026-04-17T16:59:42.232Z</time></trkpt><trkpt lat="43.63282" lon="11.5585667"><ele>306.59999999999997</ele><time>2026-04-17T16:59:43.233Z</time></trkpt><trkpt lat="43.6327317" lon="11.5585033"><ele>305.4</ele><time>2026-04-17T16:59:44.231Z</time></trkpt><trkpt lat="43.6326367" lon="11.5584717"><ele>304.2</ele><time>2026-04-17T16:59:45.231Z</time></trkpt><trkpt lat="43.6325383" lon="11.5584667"><ele>303.0</ele><time>2026-04-17T16:59:46.233Z</time></trkpt><trkpt lat="43.6324383" lon="11.5584767"><ele>303.0</ele><time>2026-04-17T16:59:47.231Z</time></trkpt><trkpt lat="43.6323383" lon="11.5584917"><ele>303.0</ele><time>2026-04-17T16:59:48.232Z</time></trkpt><trkpt lat="43.6322383" lon="11.5585167"><ele>303.0</ele><time>2026-04-17T16:59:49.231Z</time></trkpt><trkpt lat="43.63214" lon="11.558555"><ele>303.0</ele><time>2026-04-17T16:59:50.234Z</time></trkpt><trkpt lat="43.6320483" lon="11.55861"><ele>303.0</ele><time>2026-04-17T16:59:51.232Z</time></trkpt><trkpt lat="43.63196" lon="11.5586817"><ele>304.0</ele><time>2026-04-17T16:59:52.232Z</time></trkpt><trkpt lat="43.6318767" lon="11.5587633"><ele>305.0</ele><time>2026-04-17T16:59:53.23Z</time></trkpt><trkpt lat="43.6318" lon="11.5588533"><ele>306.0</ele><time>2026-04-17T16:59:54.23Z</time></trkpt><trkpt lat="43.6317283" lon="11.558945"><ele>307.0</ele><time>2026-04-17T16:59:55.23Z</time></trkpt><trkpt lat="43.6316533" lon="11.5590317"><ele>308.0</ele><time>2026-04-17T16:59:56.232Z</time></trkpt><trkpt lat="43.6315817" lon="11.55912"><ele>308.0</ele><time>2026-04-17T16:59:57.232Z</time></trkpt><trkpt lat="43.6315083" lon="11.5592067"><ele>308.0</ele><time>2026-04-17T16:59:58.231Z</time></trkpt><trkpt lat="43.6314317" lon="11.5592917"><ele>308.0</ele><time>2026-04-17T16:59:59.232Z</time></trkpt><trkpt lat="43.6313583" lon="11.559375"><ele>308.0</ele><time>2026-04-17T17:00:00.231Z</time></trkpt><trkpt lat="43.6312883" lon="11.55946"><ele>308.0</ele><time>2026-04-17T17:00:01.23Z</time></trkpt><trkpt lat="43.631225" lon="11.5595467"><ele>306.33333333333337</ele><time>2026-04-17T17:00:02.234Z</time></trkpt><trkpt lat="43.6311717" lon="11.5596433"><ele>304.6666666666667</ele><time>2026-04-17T17:00:03.231Z</time></trkpt><trkpt lat="43.6311233" lon="11.5597517"><ele>303.0</ele><time>2026-04-17T17:00:04.231Z</time></trkpt><trkpt lat="43.6310883" lon="11.5598633"><ele>301.3333333333333</ele><time>2026-04-17T17:00:05.232Z</time></trkpt><trkpt lat="43.6310583" lon="11.5599783"><ele>299.66666666666663</ele><time>2026-04-17T17:00:06.234Z</time></trkpt><trkpt lat="43.63103" lon="11.560095"><ele>298.0</ele><time>2026-04-17T17:00:07.234Z</time></trkpt><trkpt lat="43.6309933" lon="11.5602067"><ele>298.0</ele><time>2026-04-17T17:00:08.233Z</time></trkpt><trkpt lat="43.630935" lon="11.5602983"><ele>298.0</ele><time>2026-04-17T17:00:09.233Z</time></trkpt><trkpt lat="43.63086" lon="11.5603567"><ele>298.0</ele><time>2026-04-17T17:00:10.232Z</time></trkpt><trkpt lat="43.6307717" lon="11.5603833"><ele>298.0</ele><time>2026-04-17T17:00:11.233Z</time></trkpt><trkpt lat="43.6306867" lon="11.5604"><ele>298.0</ele><time>2026-04-17T17:00:12.23Z</time></trkpt><trkpt lat="43.6306017" lon="11.56044"><ele>298.0</ele><time>2026-04-17T17:00:13.232Z</time></trkpt><trkpt lat="43.6305267" lon="11.5605033"><ele>297.2</ele><time>2026-04-17T17:00:14.231Z</time></trkpt><trkpt lat="43.6304583" lon="11.5605883"><ele>296.4</ele><time>2026-04-17T17:00:15.232Z</time></trkpt><trkpt lat="43.6304017" lon="11.5606867"><ele>295.59999999999997</ele><time>2026-04-17T17:00:16.233Z</time></trkpt><trkpt lat="43.6303183" lon="11.5608983"><ele>294.8</ele><time>2026-04-17T17:00:18.232Z</time></trkpt><trkpt lat="43.63028" lon="11.5610033"><ele>294.0</ele><time>2026-04-17T17:00:19.232Z</time></trkpt><trkpt lat="43.6302467" lon="11.5611067"><ele>295.1666666666667</ele><time>2026-04-17T17:00:20.231Z</time></trkpt><trkpt lat="43.6302167" lon="11.5612133"><ele>296.3333333333333</ele><time>2026-04-17T17:00:21.231Z</time></trkpt><trkpt lat="43.63019" lon="11.5613183"><ele>297.5</ele><time>2026-04-17T17:00:22.232Z</time></trkpt><trkpt lat="43.6301683" lon="11.5614233"><ele>298.66666666666663</ele><time>2026-04-17T17:00:23.231Z</time></trkpt><trkpt lat="43.630145" lon="11.56153"><ele>299.8333333333333</ele><time>2026-04-17T17:00:24.23Z</time></trkpt><trkpt lat="43.6301217" lon="11.5616333"><ele>301.0</ele><time>2026-04-17T17:00:25.232Z</time></trkpt><trkpt lat="43.6301" lon="11.5617333"><ele>301.0</ele><time>2026-04-17T17:00:26.233Z</time></trkpt><trkpt lat="43.6300783" lon="11.5618333"><ele>301.0</ele><time>2026-04-17T17:00:27.231Z</time></trkpt><trkpt lat="43.6300583" lon="11.5619317"><ele>301.0</ele><time>2026-04-17T17:00:28.23Z</time></trkpt><trkpt lat="43.63004" lon="11.5620267"><ele>301.0</ele><time>2026-04-17T17:00:29.232Z</time></trkpt><trkpt lat="43.63002" lon="11.5621167"><ele>301.0</ele><time>2026-04-17T17:00:30.232Z</time></trkpt><trkpt lat="43.63" lon="11.5622067"><ele>301.0</ele><time>2026-04-17T17:00:31.231Z</time></trkpt><trkpt lat="43.62998" lon="11.5623"><ele>301.0</ele><time>2026-04-17T17:00:32.233Z</time></trkpt><trkpt lat="43.6299617" lon="11.5623867"><ele>303.2</ele><time>2026-04-17T17:00:33.232Z</time></trkpt><trkpt lat="43.6299467" lon="11.5624783"><ele>305.40000000000003</ele><time>2026-04-17T17:00:34.232Z</time></trkpt><trkpt lat="43.62993" lon="11.5625633"><ele>307.6</ele><time>2026-04-17T17:00:35.235Z</time></trkpt><trkpt lat="43.6299017" lon="11.5627267"><ele>309.8</ele><time>2026-04-17T17:00:37.232Z</time></trkpt><trkpt lat="43.629875" lon="11.562885"><ele>312.0</ele><time>2026-04-17T17:00:39.232Z</time></trkpt><trkpt lat="43.6298467" lon="11.5630433"><ele>313.0</ele><time>2026-04-17T17:00:41.233Z</time></trkpt><trkpt lat="43.6298233" lon="11.563205"><ele>314.0</ele><time>2026-04-17T17:00:43.231Z</time></trkpt><trkpt lat="43.6297883" lon="11.56337"><ele>315.0</ele><time>2026-04-17T17:00:45.232Z</time></trkpt><trkpt lat="43.62976" lon="11.5634483"><ele>316.0</ele><time>2026-04-17T17:00:46.23Z</time></trkpt><trkpt lat="43.6296567" lon="11.5635433"><ele>317.0</ele><time>2026-04-17T17:00:48.231Z</time></trkpt><trkpt lat="43.6295383" lon="11.5635183"><ele>317.0</ele><time>2026-04-17T17:00:50.23Z</time></trkpt><trkpt lat="43.6294783" lon="11.563455"><ele>317.0</ele><time>2026-04-17T17:00:51.231Z</time></trkpt><trkpt lat="43.629425" lon="11.56339"><ele>317.0</ele><time>2026-04-17T17:00:52.231Z</time></trkpt><trkpt lat="43.62939" lon="11.5633083"><ele>317.0</ele><time>2026-04-17T17:00:53.232Z</time></trkpt><trkpt lat="43.6293583" lon="11.5632283"><ele>317.0</ele><time>2026-04-17T17:00:54.231Z</time></trkpt><trkpt lat="43.629335" lon="11.5631417"><ele>317.0</ele><time>2026-04-17T17:00:55.231Z</time></trkpt><trkpt lat="43.6293267" lon="11.563055"><ele>317.0</ele><time>2026-04-17T17:00:56.233Z</time></trkpt><trkpt lat="43.6293183" lon="11.5629667"><ele>317.1666666666667</ele><time>2026-04-17T17:00:57.234Z</time></trkpt><trkpt lat="43.6293183" lon="11.5628783"><ele>317.33333333333337</ele><time>2026-04-17T17:00:58.232Z</time></trkpt><trkpt lat="43.629315" lon="11.56279"><ele>317.5</ele><time>2026-04-17T17:00:59.231Z</time></trkpt><trkpt lat="43.6293" lon="11.5626183"><ele>317.6666666666667</ele><time>2026-04-17T17:01:01.232Z</time></trkpt><trkpt lat="43.62928" lon="11.5625283"><ele>317.8333333333333</ele><time>2026-04-17T17:01:02.231Z</time></trkpt><trkpt lat="43.6292567" lon="11.5624433"><ele>318.0</ele><time>2026-04-17T17:01:03.231Z</time></trkpt><trkpt lat="43.629225" lon="11.5623617"><ele>316.8333333333333</ele><time>2026-04-17T17:01:04.23Z</time></trkpt><trkpt lat="43.6292017" lon="11.5622783"><ele>315.6666666666667</ele><time>2026-04-17T17:01:05.231Z</time></trkpt><trkpt lat="43.629175" lon="11.5621933"><ele>314.5</ele><time>2026-04-17T17:01:06.232Z</time></trkpt><trkpt lat="43.6291483" lon="11.5621117"><ele>313.33333333333337</ele><time>2026-04-17T17:01:07.232Z</time></trkpt><trkpt lat="43.629125" lon="11.56203"><ele>312.1666666666667</ele><time>2026-04-17T17:01:08.236Z</time></trkpt><trkpt lat="43.629095" lon="11.5619467"><ele>311.0</ele><time>2026-04-17T17:01:09.231Z</time></trkpt><trkpt lat="43.6290517" lon="11.5617883"><ele>310.0</ele><time>2026-04-17T17:01:11.231Z</time></trkpt><trkpt lat="43.628995" lon="11.5616283"><ele>309.0</ele><time>2026-04-17T17:01:13.232Z</time></trkpt><trkpt lat="43.628965" lon="11.5615517"><ele>308.0</ele><time>2026-04-17T17:01:14.231Z</time></trkpt><trkpt lat="43.6289317" lon="11.5614683"><ele>307.0</ele><time>2026-04-17T17:01:15.231Z</time></trkpt><trkpt lat="43.628895" lon="11.5613867"><ele>306.0</ele><time>2026-04-17T17:01:16.231Z</time></trkpt><trkpt lat="43.6288567" lon="11.5613017"><ele>305.0</ele><time>2026-04-17T17:01:17.231Z</time></trkpt><trkpt lat="43.628815" lon="11.561215"><ele>305.5</ele><time>2026-04-17T17:01:18.232Z</time></trkpt><trkpt lat="43.62877" lon="11.56114"><ele>306.0</ele><time>2026-04-17T17:01:19.232Z</time></trkpt><trkpt lat="43.62872" lon="11.5610767"><ele>306.5</ele><time>2026-04-17T17:01:20.232Z</time></trkpt><trkpt lat="43.628665" lon="11.561025"><ele>307.0</ele><time>2026-04-17T17:01:21.231Z</time></trkpt><trkpt lat="43.6286" lon="11.5609917"><ele>307.5</ele><time>2026-04-17T17:01:22.232Z</time></trkpt><trkpt lat="43.6285317" lon="11.5609817"><ele>308.0</ele><time>2026-04-17T17:01:23.231Z</time></trkpt><trkpt lat="43.6284117" lon="11.5610267"><ele>308.0</ele><time>2026-04-17T17:01:25.234Z</time></trkpt><trkpt lat="43.6283183" lon="11.5611467"><ele>308.0</ele><time>2026-04-17T17:01:27.232Z</time></trkpt><trkpt lat="43.62827" lon="11.5612217"><ele>308.0</ele><time>2026-04-17T17:01:28.232Z</time></trkpt><trkpt lat="43.6282267" lon="11.5613"><ele>308.0</ele><time>2026-04-17T17:01:29.233Z</time></trkpt><trkpt lat="43.62818" lon="11.56138"><ele>308.0</ele><time>2026-04-17T17:01:30.231Z</time></trkpt><trkpt lat="43.6281333" lon="11.5614633"><ele>308.0</ele><time>2026-04-17T17:01:31.233Z</time></trkpt><trkpt lat="43.628085" lon="11.56154"><ele>308.33333333333337</ele><time>2026-04-17T17:01:32.233Z</time></trkpt><trkpt lat="43.6280317" lon="11.5616167"><ele>308.6666666666667</ele><time>2026-04-17T17:01:33.232Z</time></trkpt><trkpt lat="43.62797" lon="11.561685"><ele>309.0</ele><time>2026-04-17T17:01:34.232Z</time></trkpt><trkpt lat="43.6278983" lon="11.5617317"><ele>309.3333333333333</ele><time>2026-04-17T17:01:35.231Z</time></trkpt><trkpt lat="43.6278233" lon="11.5617467"><ele>309.66666666666663</ele><time>2026-04-17T17:01:36.233Z</time></trkpt><trkpt lat="43.6277417" lon="11.5617383"><ele>310.0</ele><time>2026-04-17T17:01:37.234Z</time></trkpt><trkpt lat="43.627665" lon="11.561705"><ele>310.0</ele><time>2026-04-17T17:01:38.234Z</time></trkpt><trkpt lat="43.6275917" lon="11.5616633"><ele>310.0</ele><time>2026-04-17T17:01:39.235Z</time></trkpt><trkpt lat="43.627515" lon="11.5616217"><ele>310.0</ele><time>2026-04-17T17:01:40.234Z</time></trkpt><trkpt lat="43.6274383" lon="11.5615917"><ele>310.0</ele><time>2026-04-17T17:01:41.232Z</time></trkpt><trkpt lat="43.6273583" lon="11.561575"><ele>310.0</ele><time>2026-04-17T17:01:42.232Z</time></trkpt><trkpt lat="43.6272717" lon="11.5615717"><ele>310.0</ele><time>2026-04-17T17:01:43.231Z</time></trkpt><trkpt lat="43.6271917" lon="11.5615783"><ele>310.0</ele><time>2026-04-17T17:01:44.232Z</time></trkpt><trkpt lat="43.6271067" lon="11.561595"><ele>310.0</ele><time>2026-04-17T17:01:45.233Z</time></trkpt><trkpt lat="43.627015" lon="11.561615"><ele>310.0</ele><time>2026-04-17T17:01:46.235Z</time></trkpt><trkpt lat="43.6269217" lon="11.5616317"><ele>310.0</ele><time>2026-04-17T17:01:47.235Z</time></trkpt><trkpt lat="43.6268167" lon="11.5616417"><ele>310.0</ele><time>2026-04-17T17:01:48.232Z</time></trkpt><trkpt lat="43.6267067" lon="11.561655"><ele>309.6</ele><time>2026-04-17T17:01:49.231Z</time></trkpt><trkpt lat="43.6266083" lon="11.56167"><ele>309.2</ele><time>2026-04-17T17:01:50.231Z</time></trkpt><trkpt lat="43.6265083" lon="11.561685"><ele>308.8</ele><time>2026-04-17T17:01:51.23Z</time></trkpt><trkpt lat="43.62641" lon="11.561705"><ele>308.4</ele><time>2026-04-17T17:01:52.233Z</time></trkpt><trkpt lat="43.6263083" lon="11.5617267"><ele>308.0</ele><time>2026-04-17T17:01:53.231Z</time></trkpt><trkpt lat="43.62622" lon="11.5617683"><ele>308.0</ele><time>2026-04-17T17:01:54.232Z</time></trkpt><trkpt lat="43.626145" lon="11.5618367"><ele>308.0</ele><time>2026-04-17T17:01:55.234Z</time></trkpt><trkpt lat="43.6260767" lon="11.5619267"><ele>308.0</ele><time>2026-04-17T17:01:56.233Z</time></trkpt><trkpt lat="43.6260283" lon="11.5620367"><ele>308.0</ele><time>2026-04-17T17:01:57.23Z</time></trkpt><trkpt lat="43.62601" lon="11.56216"><ele>308.0</ele><time>2026-04-17T17:01:58.23Z</time></trkpt><trkpt lat="43.6260067" lon="11.5622817"><ele>306.83333333333337</ele><time>2026-04-17T17:01:59.229Z</time></trkpt><trkpt lat="43.6260133" lon="11.562405"><ele>305.6666666666667</ele><time>2026-04-17T17:02:00.231Z</time></trkpt><trkpt lat="43.6260083" lon="11.562525"><ele>304.5</ele><time>2026-04-17T17:02:01.232Z</time></trkpt><trkpt lat="43.6259917" lon="11.5626383"><ele>303.3333333333333</ele><time>2026-04-17T17:02:02.232Z</time></trkpt><trkpt lat="43.6259483" lon="11.5627367"><ele>302.16666666666663</ele><time>2026-04-17T17:02:03.231Z</time></trkpt><trkpt lat="43.625895" lon="11.5628183"><ele>301.0</ele><time>2026-04-17T17:02:04.23Z</time></trkpt><trkpt lat="43.6258367" lon="11.56288"><ele>301.0</ele><time>2026-04-17T17:02:05.232Z</time></trkpt><trkpt lat="43.6257467" lon="11.5629033"><ele>301.0</ele><time>2026-04-17T17:02:06.231Z</time></trkpt><trkpt lat="43.62565" lon="11.5628917"><ele>301.0</ele><time>2026-04-17T17:02:07.233Z</time></trkpt><trkpt lat="43.62556" lon="11.5628833"><ele>301.0</ele><time>2026-04-17T17:02:08.233Z</time></trkpt><trkpt lat="43.6254733" lon="11.562885"><ele>301.0</ele><time>2026-04-17T17:02:09.233Z</time></trkpt><trkpt lat="43.6253917" lon="11.5628783"><ele>301.0</ele><time>2026-04-17T17:02:10.232Z</time></trkpt><trkpt lat="43.62531" lon="11.5628733"><ele>301.16666666666663</ele><time>2026-04-17T17:02:11.231Z</time></trkpt><trkpt lat="43.6252317" lon="11.5628317"><ele>301.3333333333333</ele><time>2026-04-17T17:02:12.232Z</time></trkpt><trkpt lat="43.6251733" lon="11.5627583"><ele>301.5</ele><time>2026-04-17T17:02:13.231Z</time></trkpt><trkpt lat="43.6251133" lon="11.5626833"><ele>301.6666666666667</ele><time>2026-04-17T17:02:14.232Z</time></trkpt><trkpt lat="43.6250517" lon="11.562605"><ele>301.83333333333337</ele><time>2026-04-17T17:02:15.23Z</time></trkpt><trkpt lat="43.624985" lon="11.5625317"><ele>302.0</ele><time>2026-04-17T17:02:16.23Z</time></trkpt><trkpt lat="43.6249167" lon="11.562455"><ele>302.0</ele><time>2026-04-17T17:02:17.23Z</time></trkpt><trkpt lat="43.6248467" lon="11.5623817"><ele>302.0</ele><time>2026-04-17T17:02:18.231Z</time></trkpt><trkpt lat="43.6247817" lon="11.56231"><ele>302.0</ele><time>2026-04-17T17:02:19.23Z</time></trkpt><trkpt lat="43.62471" lon="11.562245"><ele>302.0</ele><time>2026-04-17T17:02:20.23Z</time></trkpt><trkpt lat="43.62464" lon="11.5621867"><ele>302.0</ele><time>2026-04-17T17:02:21.23Z</time></trkpt><trkpt lat="43.6245667" lon="11.5621367"><ele>302.0</ele><time>2026-04-17T17:02:22.231Z</time></trkpt><trkpt lat="43.62449" lon="11.5620967"><ele>302.5</ele><time>2026-04-17T17:02:23.231Z</time></trkpt><trkpt lat="43.62441" lon="11.5620683"><ele>303.0</ele><time>2026-04-17T17:02:24.23Z</time></trkpt><trkpt lat="43.6243267" lon="11.5620417"><ele>303.5</ele><time>2026-04-17T17:02:25.229Z</time></trkpt><trkpt lat="43.6242433" lon="11.5620167"><ele>304.0</ele><time>2026-04-17T17:02:26.232Z</time></trkpt><trkpt lat="43.6241567" lon="11.5619883"><ele>304.5</ele><time>2026-04-17T17:02:27.23Z</time></trkpt><trkpt lat="43.6240733" lon="11.5619567"><ele>305.0</ele><time>2026-04-17T17:02:28.23Z</time></trkpt><trkpt lat="43.62399" lon="11.5619117"><ele>303.8</ele><time>2026-04-17T17:02:29.231Z</time></trkpt><trkpt lat="43.623915" lon="11.56185"><ele>302.6</ele><time>2026-04-17T17:02:30.233Z</time></trkpt><trkpt lat="43.6238417" lon="11.5617733"><ele>301.4</ele><time>2026-04-17T17:02:31.231Z</time></trkpt><trkpt lat="43.6237733" lon="11.5616867"><ele>300.2</ele><time>2026-04-17T17:02:32.231Z</time></trkpt><trkpt lat="43.623705" lon="11.5615917"><ele>299.0</ele><time>2026-04-17T17:02:33.231Z</time></trkpt><trkpt lat="43.6236417" lon="11.5614917"><ele>299.0</ele><time>2026-04-17T17:02:34.23Z</time></trkpt><trkpt lat="43.6235767" lon="11.5613867"><ele>299.0</ele><time>2026-04-17T17:02:35.231Z</time></trkpt><trkpt lat="43.6235117" lon="11.5612817"><ele>299.0</ele><time>2026-04-17T17:02:36.23Z</time></trkpt><trkpt lat="43.623445" lon="11.561175"><ele>299.0</ele><time>2026-04-17T17:02:37.23Z</time></trkpt><trkpt lat="43.6233833" lon="11.5610633"><ele>299.0</ele><time>2026-04-17T17:02:38.232Z</time></trkpt><trkpt lat="43.6233283" lon="11.5609433"><ele>298.2</ele><time>2026-04-17T17:02:39.231Z</time></trkpt><trkpt lat="43.6232767" lon="11.5608233"><ele>297.4</ele><time>2026-04-17T17:02:40.231Z</time></trkpt><trkpt lat="43.6232217" lon="11.560705"><ele>296.6</ele><time>2026-04-17T17:02:41.231Z</time></trkpt><trkpt lat="43.6231667" lon="11.560585"><ele>295.8</ele><time>2026-04-17T17:02:42.231Z</time></trkpt><trkpt lat="43.6231167" lon="11.56046"><ele>295.0</ele><time>2026-04-17T17:02:43.231Z</time></trkpt><trkpt lat="43.6230667" lon="11.5603333"><ele>294.2</ele><time>2026-04-17T17:02:44.231Z</time></trkpt><trkpt lat="43.6230167" lon="11.5602083"><ele>293.4</ele><time>2026-04-17T17:02:45.232Z</time></trkpt><trkpt lat="43.6229633" lon="11.5600833"><ele>292.6</ele><time>2026-04-17T17:02:46.231Z</time></trkpt><trkpt lat="43.6229067" lon="11.5599617"><ele>291.8</ele><time>2026-04-17T17:02:47.231Z</time></trkpt><trkpt lat="43.622845" lon="11.5598483"><ele>291.0</ele><time>2026-04-17T17:02:48.23Z</time></trkpt><trkpt lat="43.6227817" lon="11.5597467"><ele>291.0</ele><time>2026-04-17T17:02:49.232Z</time></trkpt><trkpt lat="43.6227217" lon="11.5596633"><ele>291.0</ele><time>2026-04-17T17:02:50.232Z</time></trkpt><trkpt lat="43.622665" lon="11.5595967"><ele>291.0</ele><time>2026-04-17T17:02:51.232Z</time></trkpt><trkpt lat="43.6226117" lon="11.559535"><ele>291.0</ele><time>2026-04-17T17:02:52.229Z</time></trkpt><trkpt lat="43.6225667" lon="11.5594683"><ele>291.0</ele><time>2026-04-17T17:02:53.231Z</time></trkpt><trkpt lat="43.6225317" lon="11.5593867"><ele>291.0</ele><time>2026-04-17T17:02:54.232Z</time></trkpt><trkpt lat="43.6225083" lon="11.5592983"><ele>291.0</ele><time>2026-04-17T17:02:55.231Z</time></trkpt><trkpt lat="43.6224917" lon="11.55921"><ele>290.1666666666667</ele><time>2026-04-17T17:02:56.232Z</time></trkpt><trkpt lat="43.6224633" lon="11.5591217"><ele>289.3333333333333</ele><time>2026-04-17T17:02:57.23Z</time></trkpt><trkpt lat="43.6224233" lon="11.5590383"><ele>288.5</ele><time>2026-04-17T17:02:58.232Z</time></trkpt><trkpt lat="43.6223833" lon="11.5589517"><ele>287.66666666666663</ele><time>2026-04-17T17:02:59.231Z</time></trkpt><trkpt lat="43.6223517" lon="11.5588533"><ele>286.8333333333333</ele><time>2026-04-17T17:03:00.23Z</time></trkpt><trkpt lat="43.62233" lon="11.5587467"><ele>286.0</ele><time>2026-04-17T17:03:01.229Z</time></trkpt><trkpt lat="43.622315" lon="11.558635"><ele>285.3333333333333</ele><time>2026-04-17T17:03:02.232Z</time></trkpt><trkpt lat="43.622295" lon="11.5585267"><ele>284.66666666666663</ele><time>2026-04-17T17:03:03.23Z</time></trkpt><trkpt lat="43.6222633" lon="11.5584183"><ele>284.0</ele><time>2026-04-17T17:03:04.231Z</time></trkpt><trkpt lat="43.6222183" lon="11.5583267"><ele>283.3333333333333</ele><time>2026-04-17T17:03:05.23Z</time></trkpt><trkpt lat="43.6221617" lon="11.5582367"><ele>282.6666666666667</ele><time>2026-04-17T17:03:06.23Z</time></trkpt><trkpt lat="43.6221017" lon="11.5581517"><ele>282.0</ele><time>2026-04-17T17:03:07.233Z</time></trkpt><trkpt lat="43.622035" lon="11.5580783"><ele>282.6</ele><time>2026-04-17T17:03:08.232Z</time></trkpt><trkpt lat="43.6219617" lon="11.5580067"><ele>283.2</ele><time>2026-04-17T17:03:09.232Z</time></trkpt><trkpt lat="43.621885" lon="11.5579383"><ele>283.8</ele><time>2026-04-17T17:03:10.233Z</time></trkpt><trkpt lat="43.6218017" lon="11.5578683"><ele>284.4</ele><time>2026-04-17T17:03:11.23Z</time></trkpt><trkpt lat="43.6217167" lon="11.5578017"><ele>285.0</ele><time>2026-04-17T17:03:12.232Z</time></trkpt><trkpt lat="43.621635" lon="11.55773"><ele>285.0</ele><time>2026-04-17T17:03:13.231Z</time></trkpt><trkpt lat="43.6215517" lon="11.557655"><ele>285.0</ele><time>2026-04-17T17:03:14.232Z</time></trkpt><trkpt lat="43.6214683" lon="11.5575817"><ele>285.0</ele><time>2026-04-17T17:03:15.231Z</time></trkpt><trkpt lat="43.6213933" lon="11.5575067"><ele>285.0</ele><time>2026-04-17T17:03:16.23Z</time></trkpt><trkpt lat="43.6213317" lon="11.5574283"><ele>285.0</ele><time>2026-04-17T17:03:17.231Z</time></trkpt><trkpt lat="43.62129" lon="11.5573533"><ele>285.0</ele><time>2026-04-17T17:03:18.23Z</time></trkpt><trkpt lat="43.6212567" lon="11.5572767"><ele>285.0</ele><time>2026-04-17T17:03:19.23Z</time></trkpt><trkpt lat="43.621245" lon="11.5571883"><ele>285.0</ele><time>2026-04-17T17:03:20.232Z</time></trkpt><trkpt lat="43.62125" lon="11.55709"><ele>285.0</ele><time>2026-04-17T17:03:21.231Z</time></trkpt><trkpt lat="43.62127" lon="11.557005"><ele>285.0</ele><time>2026-04-17T17:03:22.231Z</time></trkpt><trkpt lat="43.621305" lon="11.5569183"><ele>285.0</ele><time>2026-04-17T17:03:23.232Z</time></trkpt><trkpt lat="43.6213517" lon="11.5568367"><ele>285.0</ele><time>2026-04-17T17:03:24.231Z</time></trkpt><trkpt lat="43.6214083" lon="11.5567683"><ele>285.0</ele><time>2026-04-17T17:03:25.23Z</time></trkpt><trkpt lat="43.6214683" lon="11.556705"><ele>284.8333333333333</ele><time>2026-04-17T17:03:26.232Z</time></trkpt><trkpt lat="43.6215283" lon="11.5566483"><ele>284.6666666666667</ele><time>2026-04-17T17:03:27.231Z</time></trkpt><trkpt lat="43.62159" lon="11.55659"><ele>284.5</ele><time>2026-04-17T17:03:28.231Z</time></trkpt><trkpt lat="43.6216517" lon="11.5565283"><ele>284.33333333333337</ele><time>2026-04-17T17:03:29.231Z</time></trkpt><trkpt lat="43.62171" lon="11.5564667"><ele>284.1666666666667</ele><time>2026-04-17T17:03:30.231Z</time></trkpt><trkpt lat="43.62177" lon="11.5563983"><ele>284.0</ele><time>2026-04-17T17:03:31.233Z</time></trkpt><trkpt lat="43.62183" lon="11.5563367"><ele>284.0</ele><time>2026-04-17T17:03:32.231Z</time></trkpt><trkpt lat="43.62189" lon="11.5562833"><ele>284.0</ele><time>2026-04-17T17:03:33.232Z</time></trkpt><trkpt lat="43.6219517" lon="11.55623"><ele>284.0</ele><time>2026-04-17T17:03:34.231Z</time></trkpt><trkpt lat="43.6220133" lon="11.5561717"><ele>284.0</ele><time>2026-04-17T17:03:35.231Z</time></trkpt><trkpt lat="43.622075" lon="11.55611"><ele>284.0</ele><time>2026-04-17T17:03:36.232Z</time></trkpt><trkpt lat="43.6221367" lon="11.5560483"><ele>284.0</ele><time>2026-04-17T17:03:37.234Z</time></trkpt><trkpt lat="43.6221967" lon="11.5559833"><ele>284.0</ele><time>2026-04-17T17:03:38.232Z</time></trkpt><trkpt lat="43.622255" lon="11.5559233"><ele>284.0</ele><time>2026-04-17T17:03:39.232Z</time></trkpt><trkpt lat="43.622315" lon="11.55586"><ele>284.0</ele><time>2026-04-17T17:03:40.233Z</time></trkpt><trkpt lat="43.6223733" lon="11.5557883"><ele>284.0</ele><time>2026-04-17T17:03:41.231Z</time></trkpt><trkpt lat="43.62243" lon="11.55571"><ele>284.0</ele><time>2026-04-17T17:03:42.232Z</time></trkpt><trkpt lat="43.622485" lon="11.55562"><ele>284.0</ele><time>2026-04-17T17:03:43.231Z</time></trkpt><trkpt lat="43.6225317" lon="11.5555267"><ele>284.0</ele><time>2026-04-17T17:03:44.231Z</time></trkpt><trkpt lat="43.6225717" lon="11.5554267"><ele>283.5</ele><time>2026-04-17T17:03:45.23Z</time></trkpt><trkpt lat="43.6226067" lon="11.5553167"><ele>283.0</ele><time>2026-04-17T17:03:46.23Z</time></trkpt><trkpt lat="43.6226367" lon="11.5551983"><ele>282.5</ele><time>2026-04-17T17:03:47.232Z</time></trkpt><trkpt lat="43.622655" lon="11.555075"><ele>282.0</ele><time>2026-04-17T17:03:48.23Z</time></trkpt><trkpt lat="43.622665" lon="11.5549533"><ele>281.5</ele><time>2026-04-17T17:03:49.232Z</time></trkpt><trkpt lat="43.6226633" lon="11.5548317"><ele>281.0</ele><time>2026-04-17T17:03:50.231Z</time></trkpt><trkpt lat="43.6226583" lon="11.55471"><ele>281.0</ele><time>2026-04-17T17:03:51.232Z</time></trkpt><trkpt lat="43.6226533" lon="11.5545833"><ele>281.0</ele><time>2026-04-17T17:03:52.23Z</time></trkpt><trkpt lat="43.6226483" lon="11.554455"><ele>281.0</ele><time>2026-04-17T17:03:53.231Z</time></trkpt><trkpt lat="43.6226417" lon="11.5543283"><ele>281.0</ele><time>2026-04-17T17:03:54.232Z</time></trkpt><trkpt lat="43.6226317" lon="11.554205"><ele>281.0</ele><time>2026-04-17T17:03:55.23Z</time></trkpt><trkpt lat="43.6226183" lon="11.5540817"><ele>280.6666666666667</ele><time>2026-04-17T17:03:56.232Z</time></trkpt><trkpt lat="43.6225983" lon="11.5539583"><ele>280.33333333333337</ele><time>2026-04-17T17:03:57.233Z</time></trkpt><trkpt lat="43.6225733" lon="11.5538367"><ele>280.0</ele><time>2026-04-17T17:03:58.231Z</time></trkpt><trkpt lat="43.622545" lon="11.5537183"><ele>279.6666666666667</ele><time>2026-04-17T17:03:59.233Z</time></trkpt><trkpt lat="43.6225083" lon="11.5536083"><ele>279.3333333333333</ele><time>2026-04-17T17:04:00.232Z</time></trkpt><trkpt lat="43.622465" lon="11.5535033"><ele>279.0</ele><time>2026-04-17T17:04:01.233Z</time></trkpt><trkpt lat="43.6224167" lon="11.5534033"><ele>278.8333333333333</ele><time>2026-04-17T17:04:02.232Z</time></trkpt><trkpt lat="43.6223633" lon="11.5533067"><ele>278.6666666666667</ele><time>2026-04-17T17:04:03.232Z</time></trkpt><trkpt lat="43.622305" lon="11.553215"><ele>278.5</ele><time>2026-04-17T17:04:04.231Z</time></trkpt><trkpt lat="43.62224" lon="11.5531267"><ele>278.33333333333337</ele><time>2026-04-17T17:04:05.232Z</time></trkpt><trkpt lat="43.622175" lon="11.553045"><ele>278.1666666666667</ele><time>2026-04-17T17:04:06.231Z</time></trkpt><trkpt lat="43.6221017" lon="11.5529733"><ele>278.0</ele><time>2026-04-17T17:04:07.232Z</time></trkpt><trkpt lat="43.6220267" lon="11.5529083"><ele>276.8</ele><time>2026-04-17T17:04:08.234Z</time></trkpt><trkpt lat="43.621945" lon="11.5528567"><ele>275.6</ele><time>2026-04-17T17:04:09.232Z</time></trkpt><trkpt lat="43.621865" lon="11.5528133"><ele>274.4</ele><time>2026-04-17T17:04:10.231Z</time></trkpt><trkpt lat="43.6217833" lon="11.5527767"><ele>273.2</ele><time>2026-04-17T17:04:11.23Z</time></trkpt><trkpt lat="43.62169" lon="11.5527367"><ele>272.0</ele><time>2026-04-17T17:04:12.231Z</time></trkpt><trkpt lat="43.6216" lon="11.5527167"><ele>272.0</ele><time>2026-04-17T17:04:13.231Z</time></trkpt><trkpt lat="43.6215117" lon="11.552705"><ele>272.0</ele><time>2026-04-17T17:04:14.232Z</time></trkpt><trkpt lat="43.6214217" lon="11.5527"><ele>272.0</ele><time>2026-04-17T17:04:15.23Z</time></trkpt><trkpt lat="43.6213333" lon="11.5527"><ele>272.0</ele><time>2026-04-17T17:04:16.233Z</time></trkpt><trkpt lat="43.6212533" lon="11.552705"><ele>272.0</ele><time>2026-04-17T17:04:17.231Z</time></trkpt><trkpt lat="43.62118" lon="11.552715"><ele>272.0</ele><time>2026-04-17T17:04:18.232Z</time></trkpt><trkpt lat="43.6211167" lon="11.5527233"><ele>272.1666666666667</ele><time>2026-04-17T17:04:19.23Z</time></trkpt><trkpt lat="43.62102" lon="11.5527283"><ele>272.33333333333337</ele><time>2026-04-17T17:04:21.231Z</time></trkpt><trkpt lat="43.6209333" lon="11.5527367"><ele>272.5</ele><time>2026-04-17T17:04:23.231Z</time></trkpt><trkpt lat="43.6208583" lon="11.552735"><ele>272.6666666666667</ele><time>2026-04-17T17:04:25.23Z</time></trkpt><trkpt lat="43.6207767" lon="11.552735"><ele>272.8333333333333</ele><time>2026-04-17T17:04:29.233Z</time></trkpt><trkpt lat="43.62071" lon="11.55273"><ele>273.0</ele><time>2026-04-17T17:04:31.234Z</time></trkpt><trkpt lat="43.6206217" lon="11.552665"><ele>273.0</ele><time>2026-04-17T17:04:33.23Z</time></trkpt><trkpt lat="43.620595" lon="11.5525283"><ele>273.0</ele><time>2026-04-17T17:04:35.326Z</time></trkpt><trkpt lat="43.6206" lon="11.552435"><ele>273.0</ele><time>2026-04-17T17:04:36.229Z</time></trkpt><trkpt lat="43.6206083" lon="11.55233"><ele>273.0</ele><time>2026-04-17T17:04:37.231Z</time></trkpt><trkpt lat="43.6206133" lon="11.55222"><ele>273.0</ele><time>2026-04-17T17:04:38.231Z</time></trkpt><trkpt lat="43.6206233" lon="11.5521"><ele>273.0</ele><time>2026-04-17T17:04:39.23Z</time></trkpt><trkpt lat="43.6206317" lon="11.5519733"><ele>272.2</ele><time>2026-04-17T17:04:40.233Z</time></trkpt><trkpt lat="43.62064" lon="11.55184"><ele>271.4</ele><time>2026-04-17T17:04:41.23Z</time></trkpt><trkpt lat="43.620645" lon="11.5517067"><ele>270.59999999999997</ele><time>2026-04-17T17:04:42.231Z</time></trkpt><trkpt lat="43.6206483" lon="11.5515683"><ele>269.8</ele><time>2026-04-17T17:04:43.232Z</time></trkpt><trkpt lat="43.6206517" lon="11.5514283"><ele>269.0</ele><time>2026-04-17T17:04:44.231Z</time></trkpt><trkpt lat="43.6206533" lon="11.5512883"><ele>268.59999999999997</ele><time>2026-04-17T17:04:45.232Z</time></trkpt><trkpt lat="43.6206567" lon="11.5511483"><ele>268.2</ele><time>2026-04-17T17:04:46.23Z</time></trkpt><trkpt lat="43.6206633" lon="11.551"><ele>267.79999999999995</ele><time>2026-04-17T17:04:47.233Z</time></trkpt><trkpt lat="43.6206683" lon="11.5508483"><ele>267.4</ele><time>2026-04-17T17:04:48.231Z</time></trkpt><trkpt lat="43.6206717" lon="11.550695"><ele>267.0</ele><time>2026-04-17T17:04:49.23Z</time></trkpt><trkpt lat="43.6206767" lon="11.5505417"><ele>267.0</ele><time>2026-04-17T17:04:50.232Z</time></trkpt><trkpt lat="43.62068" lon="11.55038"><ele>267.0</ele><time>2026-04-17T17:04:51.232Z</time></trkpt><trkpt lat="43.6206833" lon="11.550215"><ele>267.0</ele><time>2026-04-17T17:04:52.236Z</time></trkpt><trkpt lat="43.6206867" lon="11.5500433"><ele>267.0</ele><time>2026-04-17T17:04:53.232Z</time></trkpt><trkpt lat="43.6206867" lon="11.5498683"><ele>266.25</ele><time>2026-04-17T17:04:54.231Z</time></trkpt><trkpt lat="43.6206833" lon="11.5496817"><ele>265.5</ele><time>2026-04-17T17:04:55.23Z</time></trkpt><trkpt lat="43.6206717" lon="11.549495"><ele>264.75</ele><time>2026-04-17T17:04:56.234Z</time></trkpt><trkpt lat="43.6206583" lon="11.5493033"><ele>264.0</ele><time>2026-04-17T17:04:57.231Z</time></trkpt><trkpt lat="43.6206433" lon="11.5491083"><ele>262.5</ele><time>2026-04-17T17:04:58.234Z</time></trkpt><trkpt lat="43.6206317" lon="11.54891"><ele>261.0</ele><time>2026-04-17T17:04:59.234Z</time></trkpt><trkpt lat="43.6206267" lon="11.548705"><ele>259.5</ele><time>2026-04-17T17:05:00.232Z</time></trkpt><trkpt lat="43.62063" lon="11.5484967"><ele>258.0</ele><time>2026-04-17T17:05:01.232Z</time></trkpt><trkpt lat="43.6206367" lon="11.548285"><ele>255.33333333333331</ele><time>2026-04-17T17:05:02.231Z</time></trkpt><trkpt lat="43.6206483" lon="11.54807"><ele>252.66666666666666</ele><time>2026-04-17T17:05:03.234Z</time></trkpt><trkpt lat="43.6206667" lon="11.54785"><ele>250.0</ele><time>2026-04-17T17:05:04.233Z</time></trkpt><trkpt lat="43.6206917" lon="11.54763"><ele>249.0</ele><time>2026-04-17T17:05:05.231Z</time></trkpt><trkpt lat="43.6207233" lon="11.54741"><ele>248.0</ele><time>2026-04-17T17:05:06.232Z</time></trkpt><trkpt lat="43.62076" lon="11.5471917"><ele>247.0</ele><time>2026-04-17T17:05:07.23Z</time></trkpt><trkpt lat="43.6207983" lon="11.5469733"><ele>245.25</ele><time>2026-04-17T17:05:08.231Z</time></trkpt><trkpt lat="43.6208383" lon="11.5467683"><ele>243.5</ele><time>2026-04-17T17:05:09.233Z</time></trkpt><trkpt lat="43.6208767" lon="11.5465767"><ele>241.75</ele><time>2026-04-17T17:05:10.23Z</time></trkpt><trkpt lat="43.6209133" lon="11.5463967"><ele>240.0</ele><time>2026-04-17T17:05:11.23Z</time></trkpt><trkpt lat="43.6209467" lon="11.5462267"><ele>238.5</ele><time>2026-04-17T17:05:12.23Z</time></trkpt><trkpt lat="43.6209717" lon="11.5460633"><ele>237.0</ele><time>2026-04-17T17:05:13.233Z</time></trkpt><trkpt lat="43.6209833" lon="11.5458967"><ele>235.5</ele><time>2026-04-17T17:05:14.232Z</time></trkpt><trkpt lat="43.62098" lon="11.5457333"><ele>234.0</ele><time>2026-04-17T17:05:15.232Z</time></trkpt><trkpt lat="43.6209583" lon="11.5455683"><ele>234.0</ele><time>2026-04-17T17:05:16.23Z</time></trkpt><trkpt lat="43.620915" lon="11.54541"><ele>234.0</ele><time>2026-04-17T17:05:17.23Z</time></trkpt><trkpt lat="43.620855" lon="11.5452583"><ele>234.0</ele><time>2026-04-17T17:05:18.231Z</time></trkpt><trkpt lat="43.6207767" lon="11.5451233"><ele>234.0</ele><time>2026-04-17T17:05:19.232Z</time></trkpt><trkpt lat="43.6206817" lon="11.5450033"><ele>235.25</ele><time>2026-04-17T17:05:20.23Z</time></trkpt><trkpt lat="43.620575" lon="11.5449117"><ele>236.5</ele><time>2026-04-17T17:05:21.231Z</time></trkpt><trkpt lat="43.6204567" lon="11.5448367"><ele>237.75</ele><time>2026-04-17T17:05:22.23Z</time></trkpt><trkpt lat="43.6203333" lon="11.5447767"><ele>239.0</ele><time>2026-04-17T17:05:23.231Z</time></trkpt><trkpt lat="43.620205" lon="11.5447183"><ele>237.75</ele><time>2026-04-17T17:05:24.23Z</time></trkpt><trkpt lat="43.62008" lon="11.5446667"><ele>236.5</ele><time>2026-04-17T17:05:25.231Z</time></trkpt><trkpt lat="43.6199667" lon="11.5446133"><ele>235.25</ele><time>2026-04-17T17:05:26.23Z</time></trkpt><trkpt lat="43.6198567" lon="11.5445383"><ele>234.0</ele><time>2026-04-17T17:05:27.231Z</time></trkpt><trkpt lat="43.6197567" lon="11.5444317"><ele>234.0</ele><time>2026-04-17T17:05:28.23Z</time></trkpt><trkpt lat="43.619675" lon="11.54429"><ele>234.0</ele><time>2026-04-17T17:05:29.231Z</time></trkpt><trkpt lat="43.6196233" lon="11.5441267"><ele>234.0</ele><time>2026-04-17T17:05:30.232Z</time></trkpt><trkpt lat="43.6195933" lon="11.543945"><ele>234.0</ele><time>2026-04-17T17:05:31.231Z</time></trkpt><trkpt lat="43.6195867" lon="11.5437567"><ele>234.0</ele><time>2026-04-17T17:05:32.232Z</time></trkpt><trkpt lat="43.6195917" lon="11.5435667"><ele>234.0</ele><time>2026-04-17T17:05:33.23Z</time></trkpt><trkpt lat="43.6196017" lon="11.5433783"><ele>234.0</ele><time>2026-04-17T17:05:34.23Z</time></trkpt><trkpt lat="43.61961" lon="11.5431867"><ele>234.0</ele><time>2026-04-17T17:05:35.233Z</time></trkpt><trkpt lat="43.6196167" lon="11.5429933"><ele>232.5</ele><time>2026-04-17T17:05:36.231Z</time></trkpt><trkpt lat="43.61962" lon="11.5427967"><ele>231.0</ele><time>2026-04-17T17:05:37.232Z</time></trkpt><trkpt lat="43.619625" lon="11.5426017"><ele>229.5</ele><time>2026-04-17T17:05:38.232Z</time></trkpt><trkpt lat="43.6196283" lon="11.5424067"><ele>228.0</ele><time>2026-04-17T17:05:39.234Z</time></trkpt><trkpt lat="43.6196333" lon="11.54222"><ele>228.25</ele><time>2026-04-17T17:05:40.233Z</time></trkpt><trkpt lat="43.6196433" lon="11.54204"><ele>228.5</ele><time>2026-04-17T17:05:41.231Z</time></trkpt><trkpt lat="43.6196633" lon="11.5418917"><ele>228.75</ele><time>2026-04-17T17:05:42.232Z</time></trkpt><trkpt lat="43.6197067" lon="11.54175"><ele>229.0</ele><time>2026-04-17T17:05:43.232Z</time></trkpt><trkpt lat="43.6197767" lon="11.5416267"><ele>229.0</ele><time>2026-04-17T17:05:44.234Z</time></trkpt><trkpt lat="43.619855" lon="11.5415133"><ele>229.0</ele><time>2026-04-17T17:05:45.232Z</time></trkpt><trkpt lat="43.6199417" lon="11.5413917"><ele>229.0</ele><time>2026-04-17T17:05:46.231Z</time></trkpt><trkpt lat="43.6200317" lon="11.5412567"><ele>229.0</ele><time>2026-04-17T17:05:47.232Z</time></trkpt><trkpt lat="43.620115" lon="11.5411067"><ele>230.5</ele><time>2026-04-17T17:05:48.232Z</time></trkpt><trkpt lat="43.6202033" lon="11.54097"><ele>232.0</ele><time>2026-04-17T17:05:49.231Z</time></trkpt><trkpt lat="43.62029" lon="11.5408333"><ele>233.5</ele><time>2026-04-17T17:05:50.232Z</time></trkpt><trkpt lat="43.6203767" lon="11.5407"><ele>235.0</ele><time>2026-04-17T17:05:51.231Z</time></trkpt><trkpt lat="43.6205117" lon="11.5404967"><ele>225.5</ele><time>2026-04-17T17:05:52.234Z</time></trkpt><trkpt lat="43.62084" lon="11.5406117"><ele>216.0</ele><time>2026-04-17T17:05:53.233Z</time></trkpt><trkpt lat="43.6210483" lon="11.540605"><ele>213.0</ele><time>2026-04-17T17:05:54.231Z</time></trkpt><trkpt lat="43.62121" lon="11.5405083"><ele>210.0</ele><time>2026-04-17T17:05:55.235Z</time></trkpt><trkpt lat="43.6213567" lon="11.5403983"><ele>207.0</ele><time>2026-04-17T17:05:56.232Z</time></trkpt><trkpt lat="43.6215017" lon="11.5402667"><ele>201.0</ele><time>2026-04-17T17:05:57.23Z</time></trkpt><trkpt lat="43.62164" lon="11.5401283"><ele>195.0</ele><time>2026-04-17T17:05:58.231Z</time></trkpt><trkpt lat="43.621775" lon="11.5399883"><ele>189.0</ele><time>2026-04-17T17:05:59.233Z</time></trkpt><trkpt lat="43.62191" lon="11.5398483"><ele>188.66666666666666</ele><time>2026-04-17T17:06:00.232Z</time></trkpt><trkpt lat="43.62204" lon="11.5396983"><ele>188.33333333333331</ele><time>2026-04-17T17:06:01.234Z</time></trkpt><trkpt lat="43.6221667" lon="11.5395417"><ele>188.0</ele><time>2026-04-17T17:06:02.232Z</time></trkpt><trkpt lat="43.6222917" lon="11.53938"><ele>185.0</ele><time>2026-04-17T17:06:03.234Z</time></trkpt><trkpt lat="43.622415" lon="11.5392167"><ele>182.0</ele><time>2026-04-17T17:06:04.232Z</time></trkpt><trkpt lat="43.6225317" lon="11.539045"><ele>179.0</ele><time>2026-04-17T17:06:05.231Z</time></trkpt><trkpt lat="43.6226417" lon="11.5388683"><ele>177.66666666666666</ele><time>2026-04-17T17:06:06.232Z</time></trkpt><trkpt lat="43.6227467" lon="11.5386833"><ele>176.33333333333334</ele><time>2026-04-17T17:06:07.231Z</time></trkpt><trkpt lat="43.6228483" lon="11.538495"><ele>175.0</ele><time>2026-04-17T17:06:08.231Z</time></trkpt><trkpt lat="43.62295" lon="11.538305"><ele>172.33333333333334</ele><time>2026-04-17T17:06:09.232Z</time></trkpt><trkpt lat="43.623045" lon="11.5381133"><ele>169.66666666666666</ele><time>2026-04-17T17:06:10.233Z</time></trkpt><trkpt lat="43.6231383" lon="11.5379183"><ele>167.0</ele><time>2026-04-17T17:06:11.231Z</time></trkpt><trkpt lat="43.62323" lon="11.5377267"><ele>166.0</ele><time>2026-04-17T17:06:12.231Z</time></trkpt><trkpt lat="43.6233233" lon="11.537535"><ele>165.0</ele><time>2026-04-17T17:06:13.233Z</time></trkpt><trkpt lat="43.6234117" lon="11.5373383"><ele>164.0</ele><time>2026-04-17T17:06:14.232Z</time></trkpt><trkpt lat="43.6235033" lon="11.537145"><ele>164.33333333333331</ele><time>2026-04-17T17:06:15.232Z</time></trkpt><trkpt lat="43.6235917" lon="11.53695"><ele>164.66666666666666</ele><time>2026-04-17T17:06:16.231Z</time></trkpt><trkpt lat="43.6236783" lon="11.53676"><ele>165.0</ele><time>2026-04-17T17:06:17.232Z</time></trkpt><trkpt lat="43.6237667" lon="11.5365717"><ele>164.0</ele><time>2026-04-17T17:06:18.231Z</time></trkpt><trkpt lat="43.6238517" lon="11.5363883"><ele>163.0</ele><time>2026-04-17T17:06:19.231Z</time></trkpt><trkpt lat="43.6239367" lon="11.5362083"><ele>162.0</ele><time>2026-04-17T17:06:20.233Z</time></trkpt><trkpt lat="43.62402" lon="11.5360317"><ele>161.75</ele><time>2026-04-17T17:06:21.232Z</time></trkpt><trkpt lat="43.6240983" lon="11.5358583"><ele>161.5</ele><time>2026-04-17T17:06:22.233Z</time></trkpt><trkpt lat="43.6241767" lon="11.535685"><ele>161.25</ele><time>2026-04-17T17:06:23.231Z</time></trkpt><trkpt lat="43.6242533" lon="11.53552"><ele>161.0</ele><time>2026-04-17T17:06:24.231Z</time></trkpt><trkpt lat="43.6243267" lon="11.535355"><ele>160.5</ele><time>2026-04-17T17:06:25.232Z</time></trkpt><trkpt lat="43.6243933" lon="11.5351883"><ele>160.0</ele><time>2026-04-17T17:06:26.231Z</time></trkpt><trkpt lat="43.6244583" lon="11.5350233"><ele>159.5</ele><time>2026-04-17T17:06:27.23Z</time></trkpt><trkpt lat="43.6245217" lon="11.534855"><ele>159.0</ele><time>2026-04-17T17:06:28.23Z</time></trkpt><trkpt lat="43.62458" lon="11.5346917"><ele>160.5</ele><time>2026-04-17T17:06:29.231Z</time></trkpt><trkpt lat="43.62463" lon="11.5345267"><ele>162.0</ele><time>2026-04-17T17:06:30.232Z</time></trkpt><trkpt lat="43.6246733" lon="11.5343533"><ele>163.5</ele><time>2026-04-17T17:06:31.23Z</time></trkpt><trkpt lat="43.62471" lon="11.5341867"><ele>165.0</ele><time>2026-04-17T17:06:32.232Z</time></trkpt><trkpt lat="43.6247467" lon="11.5340217"><ele>165.0</ele><time>2026-04-17T17:06:33.231Z</time></trkpt><trkpt lat="43.6247833" lon="11.5338633"><ele>165.0</ele><time>2026-04-17T17:06:34.231Z</time></trkpt><trkpt lat="43.6248233" lon="11.533705"><ele>165.0</ele><time>2026-04-17T17:06:35.23Z</time></trkpt><trkpt lat="43.624865" lon="11.53355"><ele>165.0</ele><time>2026-04-17T17:06:36.232Z</time></trkpt><trkpt lat="43.624905" lon="11.533395"><ele>164.0</ele><time>2026-04-17T17:06:37.23Z</time></trkpt><trkpt lat="43.62494" lon="11.5332433"><ele>163.0</ele><time>2026-04-17T17:06:38.232Z</time></trkpt><trkpt lat="43.6249767" lon="11.5330933"><ele>162.0</ele><time>2026-04-17T17:06:39.231Z</time></trkpt><trkpt lat="43.6250133" lon="11.532945"><ele>161.0</ele><time>2026-04-17T17:06:40.231Z</time></trkpt><trkpt lat="43.6250517" lon="11.5327967"><ele>160.20000000000002</ele><time>2026-04-17T17:06:41.231Z</time></trkpt><trkpt lat="43.6250883" lon="11.5326517"><ele>159.4</ele><time>2026-04-17T17:06:42.232Z</time></trkpt><trkpt lat="43.6251283" lon="11.5325083"><ele>158.6</ele><time>2026-04-17T17:06:43.232Z</time></trkpt><trkpt lat="43.625165" lon="11.532365"><ele>157.8</ele><time>2026-04-17T17:06:44.232Z</time></trkpt><trkpt lat="43.6252017" lon="11.5322233"><ele>157.0</ele><time>2026-04-17T17:06:45.232Z</time></trkpt><trkpt lat="43.6252367" lon="11.532085"><ele>156.79999999999998</ele><time>2026-04-17T17:06:46.23Z</time></trkpt><trkpt lat="43.62527" lon="11.5319467"><ele>156.6</ele><time>2026-04-17T17:06:47.231Z</time></trkpt><trkpt lat="43.6253033" lon="11.53181"><ele>156.39999999999998</ele><time>2026-04-17T17:06:48.231Z</time></trkpt><trkpt lat="43.62534" lon="11.53167"><ele>156.2</ele><time>2026-04-17T17:06:49.233Z</time></trkpt><trkpt lat="43.625375" lon="11.5315333"><ele>156.0</ele><time>2026-04-17T17:06:50.232Z</time></trkpt><trkpt lat="43.6254083" lon="11.5314"><ele>156.4</ele><time>2026-04-17T17:06:51.232Z</time></trkpt><trkpt lat="43.62544" lon="11.531265"><ele>156.8</ele><time>2026-04-17T17:06:52.231Z</time></trkpt><trkpt lat="43.6254683" lon="11.5311317"><ele>157.20000000000002</ele><time>2026-04-17T17:06:53.23Z</time></trkpt><trkpt lat="43.6254983" lon="11.530995"><ele>157.6</ele><time>2026-04-17T17:06:54.232Z</time></trkpt><trkpt lat="43.6255217" lon="11.5308617"><ele>158.0</ele><time>2026-04-17T17:06:55.233Z</time></trkpt><trkpt lat="43.6255433" lon="11.5307317"><ele>158.0</ele><time>2026-04-17T17:06:56.234Z</time></trkpt><trkpt lat="43.6255617" lon="11.5306033"><ele>158.0</ele><time>2026-04-17T17:06:57.232Z</time></trkpt><trkpt lat="43.625575" lon="11.530475"><ele>158.0</ele><time>2026-04-17T17:06:58.231Z</time></trkpt><trkpt lat="43.6255867" lon="11.5303483"><ele>158.0</ele><time>2026-04-17T17:06:59.232Z</time></trkpt><trkpt lat="43.6255967" lon="11.53022"><ele>158.0</ele><time>2026-04-17T17:07:00.232Z</time></trkpt><trkpt lat="43.6256017" lon="11.53009"><ele>157.8</ele><time>2026-04-17T17:07:01.232Z</time></trkpt><trkpt lat="43.6256" lon="11.5299617"><ele>157.60000000000002</ele><time>2026-04-17T17:07:02.231Z</time></trkpt><trkpt lat="43.6255967" lon="11.5298333"><ele>157.39999999999998</ele><time>2026-04-17T17:07:03.232Z</time></trkpt><trkpt lat="43.62559" lon="11.529705"><ele>157.2</ele><time>2026-04-17T17:07:04.232Z</time></trkpt><trkpt lat="43.6255817" lon="11.5295783"><ele>157.0</ele><time>2026-04-17T17:07:05.233Z</time></trkpt><trkpt lat="43.6255667" lon="11.529455"><ele>156.4</ele><time>2026-04-17T17:07:06.231Z</time></trkpt><trkpt lat="43.6255483" lon="11.5293267"><ele>155.79999999999998</ele><time>2026-04-17T17:07:07.232Z</time></trkpt><trkpt lat="43.6255283" lon="11.5291967"><ele>155.2</ele><time>2026-04-17T17:07:08.23Z</time></trkpt><trkpt lat="43.6255067" lon="11.52907"><ele>154.6</ele><time>2026-04-17T17:07:09.231Z</time></trkpt><trkpt lat="43.6254817" lon="11.5289483"><ele>154.0</ele><time>2026-04-17T17:07:10.234Z</time></trkpt><trkpt lat="43.6254567" lon="11.5288233"><ele>153.4</ele><time>2026-04-17T17:07:11.231Z</time></trkpt><trkpt lat="43.6254317" lon="11.5287"><ele>152.8</ele><time>2026-04-17T17:07:12.231Z</time></trkpt><trkpt lat="43.6254083" lon="11.5285733"><ele>152.2</ele><time>2026-04-17T17:07:13.232Z</time></trkpt><trkpt lat="43.6253817" lon="11.528445"><ele>151.6</ele><time>2026-04-17T17:07:14.233Z</time></trkpt><trkpt lat="43.6253567" lon="11.52832"><ele>151.0</ele><time>2026-04-17T17:07:15.231Z</time></trkpt><trkpt lat="43.6253333" lon="11.528195"><ele>150.8</ele><time>2026-04-17T17:07:16.23Z</time></trkpt><trkpt lat="43.6253083" lon="11.52807"><ele>150.6</ele><time>2026-04-17T17:07:17.232Z</time></trkpt><trkpt lat="43.6252833" lon="11.5279433"><ele>150.4</ele><time>2026-04-17T17:07:18.23Z</time></trkpt><trkpt lat="43.6252583" lon="11.527815"><ele>150.2</ele><time>2026-04-17T17:07:19.233Z</time></trkpt><trkpt lat="43.6252317" lon="11.52769"><ele>150.0</ele><time>2026-04-17T17:07:20.231Z</time></trkpt><trkpt lat="43.6252083" lon="11.5275633"><ele>150.0</ele><time>2026-04-17T17:07:21.232Z</time></trkpt><trkpt lat="43.6251867" lon="11.5274317"><ele>150.0</ele><time>2026-04-17T17:07:22.23Z</time></trkpt><trkpt lat="43.625165" lon="11.5273017"><ele>150.0</ele><time>2026-04-17T17:07:23.233Z</time></trkpt><trkpt lat="43.6251467" lon="11.52717"><ele>150.0</ele><time>2026-04-17T17:07:24.231Z</time></trkpt><trkpt lat="43.6251267" lon="11.5270383"><ele>150.0</ele><time>2026-04-17T17:07:25.23Z</time></trkpt><trkpt lat="43.6251083" lon="11.526905"><ele>150.0</ele><time>2026-04-17T17:07:26.233Z</time></trkpt><trkpt lat="43.6250983" lon="11.5267767"><ele>150.0</ele><time>2026-04-17T17:07:27.231Z</time></trkpt><trkpt lat="43.6250883" lon="11.5266467"><ele>150.0</ele><time>2026-04-17T17:07:28.231Z</time></trkpt><trkpt lat="43.62508" lon="11.52652"><ele>150.0</ele><time>2026-04-17T17:07:29.231Z</time></trkpt><trkpt lat="43.62507" lon="11.5263917"><ele>150.0</ele><time>2026-04-17T17:07:30.232Z</time></trkpt><trkpt lat="43.625065" lon="11.52626"><ele>149.4</ele><time>2026-04-17T17:07:31.232Z</time></trkpt><trkpt lat="43.6250583" lon="11.5261383"><ele>148.8</ele><time>2026-04-17T17:07:32.233Z</time></trkpt><trkpt lat="43.6250517" lon="11.52601"><ele>148.2</ele><time>2026-04-17T17:07:33.23Z</time></trkpt><trkpt lat="43.6250483" lon="11.525875"><ele>147.6</ele><time>2026-04-17T17:07:34.232Z</time></trkpt><trkpt lat="43.625045" lon="11.5257433"><ele>147.0</ele><time>2026-04-17T17:07:35.233Z</time></trkpt><trkpt lat="43.6250417" lon="11.52561"><ele>147.0</ele><time>2026-04-17T17:07:36.232Z</time></trkpt><trkpt lat="43.6250433" lon="11.52548"><ele>147.0</ele><time>2026-04-17T17:07:37.231Z</time></trkpt><trkpt lat="43.6250483" lon="11.525355"><ele>147.0</ele><time>2026-04-17T17:07:38.232Z</time></trkpt><trkpt lat="43.625055" lon="11.52523"><ele>147.0</ele><time>2026-04-17T17:07:39.233Z</time></trkpt><trkpt lat="43.62506" lon="11.5251"><ele>147.0</ele><time>2026-04-17T17:07:40.23Z</time></trkpt><trkpt lat="43.625065" lon="11.5249667"><ele>147.2</ele><time>2026-04-17T17:07:41.232Z</time></trkpt><trkpt lat="43.6250683" lon="11.5248383"><ele>147.39999999999998</ele><time>2026-04-17T17:07:42.229Z</time></trkpt><trkpt lat="43.6250717" lon="11.5247083"><ele>147.60000000000002</ele><time>2026-04-17T17:07:43.231Z</time></trkpt><trkpt lat="43.6250733" lon="11.5245883"><ele>147.8</ele><time>2026-04-17T17:07:44.232Z</time></trkpt><trkpt lat="43.6250783" lon="11.5244583"><ele>148.0</ele><time>2026-04-17T17:07:45.232Z</time></trkpt><trkpt lat="43.62508" lon="11.5243333"><ele>148.20000000000002</ele><time>2026-04-17T17:07:46.232Z</time></trkpt><trkpt lat="43.6250817" lon="11.5242017"><ele>148.4</ele><time>2026-04-17T17:07:47.231Z</time></trkpt><trkpt lat="43.625085" lon="11.524075"><ele>148.60000000000002</ele><time>2026-04-17T17:07:48.233Z</time></trkpt><trkpt lat="43.6250883" lon="11.52395"><ele>148.8</ele><time>2026-04-17T17:07:49.232Z</time></trkpt><trkpt lat="43.6250917" lon="11.523825"><ele>149.0</ele><time>2026-04-17T17:07:50.233Z</time></trkpt><trkpt lat="43.6250967" lon="11.5237"><ele>149.0</ele><time>2026-04-17T17:07:51.231Z</time></trkpt><trkpt lat="43.6251033" lon="11.5235767"><ele>149.0</ele><time>2026-04-17T17:07:52.231Z</time></trkpt><trkpt lat="43.6251183" lon="11.5234683"><ele>149.0</ele><time>2026-04-17T17:07:53.233Z</time></trkpt><trkpt lat="43.62514" lon="11.523375"><ele>149.0</ele><time>2026-04-17T17:07:54.231Z</time></trkpt><trkpt lat="43.625165" lon="11.5232933"><ele>149.0</ele><time>2026-04-17T17:07:55.233Z</time></trkpt><trkpt lat="43.62523" lon="11.5231517"><ele>149.0</ele><time>2026-04-17T17:07:57.231Z</time></trkpt><trkpt lat="43.625335" lon="11.5230683"><ele>149.0</ele><time>2026-04-17T17:07:59.232Z</time></trkpt><trkpt lat="43.6254567" lon="11.5230333"><ele>149.0</ele><time>2026-04-17T17:08:01.231Z</time></trkpt><trkpt lat="43.6255233" lon="11.52302"><ele>149.0</ele><time>2026-04-17T17:08:02.232Z</time></trkpt><trkpt lat="43.6255867" lon="11.5230083"><ele>149.0</ele><time>2026-04-17T17:08:03.232Z</time></trkpt><trkpt lat="43.6257083" lon="11.5229733"><ele>149.0</ele><time>2026-04-17T17:08:05.234Z</time></trkpt><trkpt lat="43.6258283" lon="11.5229333"><ele>149.0</ele><time>2026-04-17T17:08:07.232Z</time></trkpt><trkpt lat="43.6259417" lon="11.5228917"><ele>149.0</ele><time>2026-04-17T17:08:09.231Z</time></trkpt><trkpt lat="43.6260517" lon="11.5228367"><ele>149.0</ele><time>2026-04-17T17:08:11.233Z</time></trkpt><trkpt lat="43.6261417" lon="11.5227517"><ele>149.0</ele><time>2026-04-17T17:08:13.233Z</time></trkpt><trkpt lat="43.6262233" lon="11.5226383"><ele>149.5</ele><time>2026-04-17T17:08:15.231Z</time></trkpt><trkpt lat="43.6262967" lon="11.5225183"><ele>150.0</ele><time>2026-04-17T17:08:17.233Z</time></trkpt><trkpt lat="43.626375" lon="11.52241"><ele>150.5</ele><time>2026-04-17T17:08:19.232Z</time></trkpt><trkpt lat="43.6264533" lon="11.522285"><ele>151.0</ele><time>2026-04-17T17:08:21.232Z</time></trkpt><trkpt lat="43.626535" lon="11.5221483"><ele>151.0</ele><time>2026-04-17T17:08:23.231Z</time></trkpt><trkpt lat="43.6265767" lon="11.5220767"><ele>151.0</ele><time>2026-04-17T17:08:24.232Z</time></trkpt><trkpt lat="43.6266183" lon="11.5220067"><ele>151.0</ele><time>2026-04-17T17:08:25.232Z</time></trkpt><trkpt lat="43.6266933" lon="11.5218667"><ele>151.0</ele><time>2026-04-17T17:08:27.232Z</time></trkpt><trkpt lat="43.6267333" lon="11.5217883"><ele>151.0</ele><time>2026-04-17T17:08:28.229Z</time></trkpt><trkpt lat="43.626775" lon="11.5217133"><ele>151.0</ele><time>2026-04-17T17:08:29.23Z</time></trkpt><trkpt lat="43.626815" lon="11.5216383"><ele>151.00000000000003</ele><time>2026-04-17T17:08:30.23Z</time></trkpt><trkpt lat="43.6268567" lon="11.52156"><ele>151.0</ele><time>2026-04-17T17:08:31.231Z</time></trkpt><trkpt lat="43.6268983" lon="11.5214817"><ele>151.0</ele><time>2026-04-17T17:08:32.231Z</time></trkpt><trkpt lat="43.62694" lon="11.5214017"><ele>151.0</ele><time>2026-04-17T17:08:33.228Z</time></trkpt><trkpt lat="43.6269817" lon="11.52132"><ele>151.0</ele><time>2026-04-17T17:08:34.23Z</time></trkpt><trkpt lat="43.6270233" lon="11.52124"><ele>151.00000000000003</ele><time>2026-04-17T17:08:35.229Z</time></trkpt><trkpt lat="43.6270617" lon="11.5211583"><ele>151.0</ele><time>2026-04-17T17:08:36.23Z</time></trkpt><trkpt lat="43.6270967" lon="11.521075"><ele>150.85714285714286</ele><time>2026-04-17T17:08:37.231Z</time></trkpt><trkpt lat="43.62713" lon="11.520985"><ele>150.71428571428572</ele><time>2026-04-17T17:08:38.23Z</time></trkpt><trkpt lat="43.6271633" lon="11.5208933"><ele>150.57142857142856</ele><time>2026-04-17T17:08:39.23Z</time></trkpt><trkpt lat="43.627195" lon="11.520805"><ele>150.42857142857144</ele><time>2026-04-17T17:08:40.231Z</time></trkpt><trkpt lat="43.62723" lon="11.5207133"><ele>150.28571428571428</ele><time>2026-04-17T17:08:41.231Z</time></trkpt><trkpt lat="43.6272617" lon="11.5206267"><ele>150.14285714285714</ele><time>2026-04-17T17:08:42.23Z</time></trkpt><trkpt lat="43.62729" lon="11.5205433"><ele>150.0</ele><time>2026-04-17T17:08:43.23Z</time></trkpt><trkpt lat="43.6273167" lon="11.5204633"><ele>150.6</ele><time>2026-04-17T17:08:44.232Z</time></trkpt><trkpt lat="43.6273467" lon="11.5203833"><ele>151.2</ele><time>2026-04-17T17:08:45.231Z</time></trkpt><trkpt lat="43.6273917" lon="11.5202417"><ele>151.8</ele><time>2026-04-17T17:08:47.23Z</time></trkpt><trkpt lat="43.62743" lon="11.5201083"><ele>152.4</ele><time>2026-04-17T17:08:49.23Z</time></trkpt><trkpt lat="43.627465" lon="11.51998"><ele>153.0</ele><time>2026-04-17T17:08:51.232Z</time></trkpt><trkpt lat="43.6275" lon="11.5198483"><ele>153.0</ele><time>2026-04-17T17:08:53.231Z</time></trkpt><trkpt lat="43.62753" lon="11.519705"><ele>153.0</ele><time>2026-04-17T17:08:55.232Z</time></trkpt><trkpt lat="43.62756" lon="11.519575"><ele>153.0</ele><time>2026-04-17T17:08:57.23Z</time></trkpt><trkpt lat="43.62759" lon="11.51945"><ele>153.0</ele><time>2026-04-17T17:08:59.234Z</time></trkpt><trkpt lat="43.627615" lon="11.519315"><ele>153.0</ele><time>2026-04-17T17:09:01.231Z</time></trkpt><trkpt lat="43.6276433" lon="11.5191767"><ele>153.20000000000002</ele><time>2026-04-17T17:09:03.233Z</time></trkpt><trkpt lat="43.627665" lon="11.519045"><ele>153.4</ele><time>2026-04-17T17:09:05.231Z</time></trkpt><trkpt lat="43.6276917" lon="11.5189133"><ele>153.60000000000002</ele><time>2026-04-17T17:09:07.23Z</time></trkpt><trkpt lat="43.6277217" lon="11.5187733"><ele>153.8</ele><time>2026-04-17T17:09:09.23Z</time></trkpt><trkpt lat="43.6277483" lon="11.5186317"><ele>154.0</ele><time>2026-04-17T17:09:11.23Z</time></trkpt><trkpt lat="43.6277767" lon="11.5184833"><ele>154.0</ele><time>2026-04-17T17:09:13.231Z</time></trkpt><trkpt lat="43.6277983" lon="11.518325"><ele>154.0</ele><time>2026-04-17T17:09:15.23Z</time></trkpt><trkpt lat="43.6278133" lon="11.5181683"><ele>154.0</ele><time>2026-04-17T17:09:17.231Z</time></trkpt><trkpt lat="43.6278233" lon="11.5180783"><ele>154.0</ele><time>2026-04-17T17:09:18.229Z</time></trkpt><trkpt lat="43.62783" lon="11.5179867"><ele>154.0</ele><time>2026-04-17T17:09:19.232Z</time></trkpt><trkpt lat="43.627835" lon="11.5179"><ele>154.0</ele><time>2026-04-17T17:09:20.233Z</time></trkpt><trkpt lat="43.6278433" lon="11.5177683"><ele>154.5</ele><time>2026-04-17T17:09:22.231Z</time></trkpt><trkpt lat="43.6278467" lon="11.5176667"><ele>155.0</ele><time>2026-04-17T17:09:24.23Z</time></trkpt><trkpt lat="43.6278517" lon="11.5175233"><ele>155.5</ele><time>2026-04-17T17:09:26.232Z</time></trkpt><trkpt lat="43.6278583" lon="11.5173783"><ele>156.0</ele><time>2026-04-17T17:09:28.23Z</time></trkpt><trkpt lat="43.6278217" lon="11.51728"><ele>156.5</ele><time>2026-04-17T17:09:30.231Z</time></trkpt><trkpt lat="43.627745" lon="11.5172517"><ele>157.0</ele><time>2026-04-17T17:09:32.231Z</time></trkpt><trkpt lat="43.6276767" lon="11.5173067"><ele>155.6</ele><time>2026-04-17T17:09:34.232Z</time></trkpt><trkpt lat="43.6275883" lon="11.517335"><ele>154.2</ele><time>2026-04-17T17:09:36.232Z</time></trkpt><trkpt lat="43.6274917" lon="11.5173117"><ele>152.8</ele><time>2026-04-17T17:09:38.232Z</time></trkpt><trkpt lat="43.62742" lon="11.5172133"><ele>151.4</ele><time>2026-04-17T17:09:40.231Z</time></trkpt><trkpt lat="43.6274283" lon="11.517065"><ele>150.0</ele><time>2026-04-17T17:09:42.23Z</time></trkpt><trkpt lat="43.6274533" lon="11.5168967"><ele>149.5</ele><time>2026-04-17T17:09:44.232Z</time></trkpt><trkpt lat="43.62745" lon="11.516745"><ele>149.0</ele><time>2026-04-17T17:09:46.233Z</time></trkpt><trkpt lat="43.627445" lon="11.5166317"><ele>148.5</ele><time>2026-04-17T17:09:49.23Z</time></trkpt><trkpt lat="43.627445" lon="11.51654"><ele>148.0</ele><time>2026-04-17T17:09:52.229Z</time></trkpt><trkpt lat="43.6274417" lon="11.51644"><ele>147.5</ele><time>2026-04-17T17:09:55.23Z</time></trkpt><trkpt lat="43.62745" lon="11.5165267"><ele>147.0</ele><time>2026-04-17T17:11:04.231Z</time></trkpt><trkpt lat="43.62735" lon="11.5165067"><ele>147.0</ele><time>2026-04-17T17:11:07.23Z</time></trkpt><trkpt lat="43.6272783" lon="11.5164883"><ele>147.0</ele><time>2026-04-17T17:11:15.232Z</time></trkpt><trkpt lat="43.6272183" lon="11.5164417"><ele>147.0</ele><time>2026-04-17T17:11:18.232Z</time></trkpt><trkpt lat="43.6271383" lon="11.5164117"><ele>147.0</ele><time>2026-04-17T17:11:22.231Z</time></trkpt><trkpt lat="43.627065" lon="11.5164067"><ele>147.0</ele><time>2026-04-17T17:11:26.234Z</time></trkpt><trkpt lat="43.6269967" lon="11.5164"><ele>147.0</ele><time>2026-04-17T17:11:27.232Z</time></trkpt><trkpt lat="43.626915" lon="11.5163817"><ele>147.0</ele><time>2026-04-17T17:11:30.231Z</time></trkpt><trkpt lat="43.6268167" lon="11.5164117"><ele>147.0</ele><time>2026-04-17T17:11:32.233Z</time></trkpt><trkpt lat="43.626715" lon="11.5164117"><ele>147.0</ele><time>2026-04-17T17:11:34.23Z</time></trkpt><trkpt lat="43.6266367" lon="11.5164217"><ele>147.0</ele><time>2026-04-17T17:11:36.231Z</time></trkpt><trkpt lat="43.6264917" lon="11.5164317"><ele>147.0</ele><time>2026-04-17T17:11:37.232Z</time></trkpt><trkpt lat="43.6263767" lon="11.51641"><ele>147.0</ele><time>2026-04-17T17:11:40.233Z</time></trkpt><trkpt lat="43.6264517" lon="11.5164417"><ele>147.0</ele><time>2026-04-17T17:11:52.23Z</time></trkpt><trkpt lat="43.6274066" lon="11.5162621"><ele>147.0</ele><time>2026-04-17T17:12:17.99Z</time></trkpt><trkpt lat="43.6274066" lon="11.5162621"><ele>147.0</ele><time>2026-04-17T17:12:17.99Z</time></trkpt></trkseg></trk></gpx>